ECMWFNIL_850_spd_003.txt.gz
Wind_Speed
19 17 16 15 13 11 11 11 11 11 10 9 8 7 6 5 4 2 1 2 3 4 5 4 4 5 6 7 9 10 11 10 9 8 9 12 16 18 20 20 20 20
20 18 17 17 15 13 12 12 12 12 11 10 9 9 8 7 5 3 3 4 5 5 6 5 5 6 7 9 10 12 12 13 12 11 9 9 12 15 18 20 20 21
21 20 19 18 16 14 13 13 13 13 12 12 11 11 10 9 7 6 6 6 7 8 8 7 7 8 9 11 12 13 13 14 13 12 11 10 10 12 14 17 19 20
23 21 20 19 17 14 14 14 15 15 14 14 13 12 11 11 9 8 8 8 9 10 10 9 9 9 11 12 13 14 15 15 15 14 13 12 12 11 12 14 17 19
24 23 22 21 19 15 15 16 16 16 16 16 15 14 13 12 10 9 9 10 10 11 11 10 9 10 11 13 14 15 16 17 17 16 15 14 13 13 13 13 15 17
26 25 25 24 21 17 17 17 17 18 17 17 16 15 14 13 11 11 11 11 12 13 12 11 9 10 11 14 15 17 18 19 19 19 18 17 16 15 15 15 16 16
27 27 27 26 23 20 18 18 18 18 18 18 17 16 15 14 13 12 12 13 14 14 14 12 10 10 12 15 17 19 20 21 21 21 21 21 20 19 17 17 17 18
27 28 28 29 26 22 20 19 19 19 19 19 18 17 15 14 14 14 13 14 15 15 15 13 11 12 14 17 19 20 21 22 22 23 23 23 23 23 22 20 19 19
29 29 30 30 28 24 22 21 20 19 19 19 18 17 16 15 15 14 14 15 15 15 15 13 12 13 16 18 20 22 23 23 23 23 23 24 24 25 25 24 23 21
33 32 32 32 29 25 23 22 20 19 19 18 18 17 17 16 16 15 15 16 15 14 13 12 13 15 17 20 22 23 24 23 23 23 24 25 25 25 26 26 26 24
37 36 34 33 30 26 23 22 20 19 18 18 18 18 17 17 16 16 16 16 14 13 12 12 14 16 18 21 23 24 24 23 24 24 25 26 26 26 26 26 26 26
39 36 35 34 30 25 23 21 20 19 18 18 18 18 18 17 16 16 16 14 12 11 12 13 15 18 20 22 23 23 23 23 24 25 25 26 26 26 26 26 25 25
41 35 33 34 31 26 23 21 19 18 17 18 18 18 17 17 16 15 14 12 11 11 12 15 17 19 21 22 23 23 24 25 26 26 26 26 26 27 27 27 26 25
43 37 33 33 32 28 24 21 20 18 18 18 18 17 17 16 15 13 12 10 11 12 14 17 19 20 21 21 22 24 26 28 29 29 29 28 28 28 27 27 26 26
42 39 35 34 34 30 25 22 20 19 19 19 18 17 16 15 13 11 11 11 12 14 17 18 19 19 19 21 23 26 28 30 31 32 32 31 31 30 28 27 27 27
44 46 41 37 35 31 26 23 21 20 19 18 17 16 14 12 12 12 12 13 14 16 18 18 18 18 20 22 24 27 30 32 33 33 33 33 33 32 31 30 29 29
47 49 44 37 34 30 27 25 23 22 20 18 16 15 13 13 13 14 14 15 15 16 17 17 17 19 22 25 28 30 32 33 34 35 35 35 34 34 34 33 33 33
44 44 38 34 34 33 31 29 26 23 21 19 18 16 15 15 15 15 15 15 15 15 15 17 19 22 25 27 29 30 31 32 33 35 36 36 36 36 36 36 36 36
41 39 35 35 36 34 33 30 26 23 22 20 18 17 16 16 15 15 15 14 14 14 16 18 20 22 23 23 24 26 27 29 31 32 34 35 35 36 37 37 38 39
39 39 37 39 39 35 32 29 25 22 20 18 17 16 16 16 15 14 14 13 14 15 17 18 18 18 18 19 22 24 26 28 30 31 33 34 35 36 37 38 38 39
37 36 38 40 39 35 31 27 24 22 19 17 16 16 16 15 14 14 13 13 14 15 15 14 14 16 18 21 23 25 27 29 30 32 33 34 35 35 36 37 38 39
38 37 38 39 37 33 29 26 22 20 18 16 17 17 16 15 13 13 13 13 14 13 13 14 16 19 21 22 25 27 30 32 33 34 35 35 36 36 36 37 37 38
38 38 38 38 34 30 28 23 18 16 16 16 17 17 15 14 12 11 11 12 13 13 15 18 21 22 22 24 27 30 33 36 37 38 38 38 38 38 37 38 38 38
35 36 36 35 31 29 26 19 14 14 16 16 16 15 13 12 10 9 10 12 13 15 18 22 24 24 24 26 29 32 36 39 40 41 41 40 40 40 39 39 39 39
33 33 34 34 32 30 24 16 14 16 17 15 14 12 10 9 9 9 10 12 14 16 20 23 25 25 25 28 31 34 38 41 42 43 43 42 41 41 41 41 40 40
31 32 34 35 33 26 19 15 17 18 15 13 11 10 8 8 8 9 11 13 15 18 21 24 25 26 27 29 32 35 38 41 43 44 44 44 43 43 43 43 42 41

ECMWFNIL_850_spd_006.txt.gz
Wind_Speed
21 20 18 17 13 10 9 9 8 7 7 6 6 6 6 6 5 5 5 4 3 1 1 2 2 2 3 4 5 6 7 8 9 9 9 9 10 10 10 11 13 14
22 21 20 19 17 13 12 11 9 9 8 8 7 7 7 7 6 6 5 4 3 2 2 3 4 4 4 5 6 8 9 9 10 10 10 10 10 10 10 11 12 13
24 23 22 21 20 17 14 13 11 10 10 10 10 10 9 8 8 7 6 5 4 3 4 5 5 5 5 5 7 8 9 11 11 12 12 12 11 11 11 11 12 13
25 24 23 22 21 19 17 15 13 12 13 12 12 12 11 10 10 9 8 7 6 5 6 7 7 7 6 6 7 9 10 12 13 13 14 14 14 13 13 12 12 13
25 25 24 23 22 21 19 18 16 15 14 14 14 14 13 12 11 10 9 8 8 8 8 9 9 9 8 8 9 10 12 14 15 16 16 16 16 16 16 16 15 15
29 28 26 24 23 22 22 20 17 17 16 15 15 15 14 13 13 12 11 10 10 10 11 11 11 11 11 11 11 12 14 15 16 18 18 19 19 19 19 19 19 18
31 31 30 28 26 25 24 22 19 18 18 17 17 17 16 15 14 14 13 12 12 12 13 13 13 13 13 13 13 14 15 16 18 19 20 21 22 22 22 21 21 21
29 32 33 32 31 29 27 25 22 20 19 19 19 19 18 17 16 16 15 15 15 15 15 15 15 15 15 15 15 15 16 17 19 20 22 24 24 25 25 24 24 23
29 32 35 36 35 33 31 29 25 22 21 21 20 20 20 19 18 17 17 17 17 18 18 17 17 17 17 17 17 17 17 18 20 22 23 25 26 26 27 27 27 26
32 32 34 38 39 36 34 32 28 25 23 22 21 21 21 20 20 20 19 19 20 20 20 19 19 19 19 19 18 18 18 20 21 23 24 25 26 27 28 28 28 28
36 35 33 36 40 40 37 35 32 28 25 24 23 22 22 21 21 22 21 21 21 21 20 20 20 20 20 20 19 19 20 21 23 24 24 25 25 26 27 28 29 29
36 39 38 37 39 41 41 39 36 31 28 26 25 24 23 23 23 22 22 22 21 21 21 20 20 20 20 20 19 19 21 23 24 24 24 25 26 26 27 27 28 29
32 37 40 41 40 42 43 42 38 33 30 28 27 25 24 24 24 23 23 22 21 21 20 20 19 20 20 20 20 21 22 23 24 25 26 27 28 28 28 28 28 28
30 33 37 39 41 43 43 40 36 34 32 30 28 27 26 25 25 25 24 23 21 21 20 20 20 20 20 20 21 21 22 23 25 26 28 29 29 29 29 29 28 28
28 31 34 36 39 41 40 37 35 35 34 32 29 28 26 26 25 25 24 23 22 21 20 20 20 20 20 20 21 21 22 24 26 28 29 29 29 29 29 28 28 28
25 29 31 33 36 37 37 37 36 37 38 35 30 28 26 26 26 25 24 23 22 21 20 19 18 19 19 19 19 21 23 24 25 26 26 27 28 28 28 28 28 28
22 25 28 30 32 33 35 37 37 38 39 34 29 27 26 25 25 23 23 22 21 20 18 17 17 17 18 18 19 21 21 22 23 23 24 26 27 28 29 29 29 29
21 23 26 29 30 30 34 38 38 38 36 31 29 29 27 25 23 22 22 21 19 17 16 15 15 16 17 18 19 19 19 20 21 22 23 24 25 27 28 29 29 30
21 23 25 29 30 29 32 37 39 39 37 34 32 31 28 26 24 23 21 20 18 15 13 13 14 15 16 16 17 18 19 21 22 23 24 25 26 26 27 28 29 30
21 22 24 27 29 30 32 35 39 39 37 34 32 29 27 26 24 23 21 18 16 13 12 13 14 14 14 14 16 19 21 22 23 24 26 26 27 27 28 28 29 30
21 21 24 26 28 29 31 36 39 38 34 32 29 26 24 23 21 20 18 15 13 12 12 13 13 13 13 15 17 19 21 22 24 26 28 28 29 29 29 30 29 30
21 20 23 26 28 29 32 37 39 36 33 31 28 25 23 20 18 16 15 13 13 12 13 13 13 13 14 17 19 20 22 24 26 28 30 31 31 32 32 31 31 31
21 20 23 26 28 30 34 38 39 36 34 31 28 25 21 17 15 13 12 12 13 13 13 13 13 14 16 18 19 20 23 25 27 29 32 33 34 35 35 34 33 32
22 21 24 27 28 30 34 37 39 37 32 27 24 21 17 14 12 12 12 13 14 14 14 13 12 14 17 18 19 21 23 25 28 31 34 36 37 38 37 37 36 34
22 21 24 27 30 30 32 36 38 35 30 25 21 17 14 12 12 12 12 13 14 14 14 12 12 15 18 19 20 21 23 25 29 33 35 37 39 40 40 39 38 37
21 20 22 26 30 31 32 38 38 33 28 24 20 16 13 12 11 11 11 12 14 14 14 13 14 16 18 20 20 21 23 25 29 33 36 38 40 41 42 42 40 39

ECMWFNIL_850_spd_009.txt.gz
Wind_Speed
17 17 17 15 14 13 12 12 12 10 7 6 6 6 6 6 6 5 4 4 3 3 3 3 2 1 0 1 3 5 6 7 8 8 9 9 10 9 9 9 8 8
18 18 18 17 16 15 14 14 13 12 10 8 7 7 7 7 7 6 6 5 4 4 5 4 4 3 2 2 3 5 7 8 8 9 10 11 11 11 11 11 11 11
19 19 19 19 18 17 16 15 15 14 12 11 10 9 8 8 8 8 7 7 6 6 6 6 5 5 4 4 5 6 7 8 9 10 11 11 12 13 13 13 13 13
21 21 21 21 20 20 19 18 17 16 15 14 13 12 10 10 9 9 9 9 8 8 8 7 6 6 6 6 6 7 8 9 10 11 12 12 12 13 14 14 15 14
21 21 22 22 22 22 22 21 19 19 18 17 16 15 14 12 11 11 10 10 10 10 9 8 7 7 7 7 8 8 8 9 10 11 12 13 13 14 14 14 15 15
22 21 22 24 24 24 25 24 22 21 20 19 18 18 17 16 14 13 12 11 12 11 11 10 9 8 8 9 9 10 10 10 10 11 12 14 15 16 17 17 17 17
27 24 24 24 25 26 26 26 25 23 22 22 21 20 20 19 17 15 14 13 14 14 13 12 12 11 11 11 11 12 12 12 11 11 12 13 15 17 18 19 19 19
32 29 27 24 25 28 28 28 27 26 25 24 24 23 22 21 20 18 17 16 16 16 15 15 14 13 13 13 14 14 14 15 14 13 13 13 15 16 18 18 19 20
34 35 33 29 27 28 30 30 29 28 27 27 26 25 24 23 22 20 19 19 19 18 18 17 16 15 15 15 16 16 17 17 17 16 15 15 16 17 18 18 19 20
30 35 37 37 34 32 30 30 31 31 31 30 29 28 27 26 24 23 22 22 22 22 21 19 18 17 17 17 18 19 20 19 19 19 18 18 18 19 19 20 21 22
22 27 33 38 39 38 35 32 32 32 33 33 32 31 30 28 27 26 26 25 25 24 23 21 20 19 19 20 21 22 22 21 21 20 20 19 20 21 21 22 23 23
17 21 26 31 36 39 39 38 36 34 34 35 35 35 33 31 29 29 28 28 27 26 25 23 22 21 21 23 23 23 23 22 22 22 22 21 22 23 23 24 23 23
14 17 20 24 27 32 36 39 40 39 37 36 38 39 36 31 30 31 30 29 28 27 27 25 24 24 24 25 24 23 23 23 23 23 22 22 23 24 25 24 23 22
11 14 17 19 22 25 29 33 35 37 38 37 37 37 35 33 33 34 32 30 29 28 28 27 26 26 26 25 24 23 23 24 23 23 22 23 24 25 24 24 23 22
13 14 15 17 20 22 24 26 27 29 32 33 33 34 35 36 36 34 31 31 31 30 30 29 28 27 26 25 24 23 24 23 23 23 23 23 24 24 24 24 23 23
17 17 17 17 19 20 21 21 21 22 24 27 30 32 35 37 37 34 32 33 34 33 32 31 28 26 24 23 23 23 23 22 22 22 22 22 23 23 24 24 24 25
20 20 20 20 20 20 19 19 20 21 22 25 28 31 34 37 37 34 33 34 35 33 31 29 26 23 22 22 21 21 21 20 20 20 21 21 22 23 24 25 26 26
20 21 22 22 22 21 19 18 19 21 23 26 28 31 34 36 35 33 33 35 34 32 29 25 22 21 20 20 19 19 18 18 18 19 20 21 22 23 24 25 26 27
20 21 23 24 24 23 21 18 18 20 23 25 28 31 35 37 34 33 34 35 33 30 26 22 20 19 19 18 18 17 16 16 17 18 20 21 22 24 25 26 27 28
20 20 22 23 24 25 24 20 19 20 22 25 28 32 36 37 35 34 36 34 31 27 23 20 19 18 17 16 15 14 15 16 17 19 20 22 23 24 25 26 27 28
21 21 21 23 24 25 25 22 20 20 22 25 28 32 35 37 36 36 35 32 28 24 20 18 16 14 13 13 12 13 15 17 18 20 21 23 24 25 27 28 29 29
23 22 21 22 24 25 25 22 19 19 21 23 27 31 35 37 36 35 33 29 25 21 18 15 13 12 11 11 12 14 16 18 20 22 23 24 26 27 29 30 31 31
23 23 22 23 24 25 25 22 18 17 19 22 27 32 37 38 36 34 30 25 21 17 14 12 12 10 10 11 12 14 17 19 21 23 25 27 28 30 31 32 32 31
24 24 23 23 23 24 24 21 17 17 20 23 28 34 39 39 36 32 27 21 17 14 13 13 12 11 10 11 13 16 18 20 22 24 26 28 30 32 34 34 34 34
24 24 23 23 23 24 23 20 16 17 21 25 30 36 38 35 30 26 22 19 16 14 13 12 11 10 11 12 13 16 19 21 23 25 26 29 31 34 36 36 37 37
23 23 23 22 23 23 22 18 16 17 22 26 31 36 34 28 23 21 19 17 14 12 11 9 9 9 10 11 13 17 19 21 23 24 26 29 31 34 37 38 38 40

ECMWFNIL_850_spd_012.txt.gz
Wind_Speed
22 20 17 15 13 12 11 11 10 9 8 8 8 8 8 7 6 5 5 4 3 2 2 2 2 2 2 2 2 2 3 4 4 5 5 6 6 6 6 6 6 6
22 21 19 18 16 15 13 12 12 11 10 9 9 10 10 9 7 7 6 6 5 5 4 3 3 3 2 2 1 1 1 3 4 5 6 6 7 7 7 7 6 6
21 20 20 19 19 18 16 14 13 13 13 12 11 11 11 9 9 9 9 8 7 7 6 6 5 5 4 4 3 2 2 2 3 4 6 6 7 8 8 8 7 7
21 20 20 20 20 19 18 17 16 15 15 15 14 14 13 11 10 10 10 10 10 9 9 8 7 7 6 6 6 5 5 4 4 4 5 6 7 8 9 9 9 8
23 22 21 21 21 21 20 20 19 18 17 17 16 16 16 14 13 12 12 12 12 12 11 11 10 9 8 8 8 8 8 7 6 5 5 6 7 8 9 10 11 11
27 24 23 23 23 23 22 21 21 20 20 19 18 19 19 17 16 15 14 14 14 13 13 13 12 11 10 10 10 10 10 10 9 8 8 7 8 9 10 11 12 13
30 27 26 25 25 24 24 23 23 23 22 21 20 20 20 20 19 18 17 16 15 15 15 15 14 13 12 11 11 11 11 12 11 10 10 10 10 11 12 12 13 14
32 32 30 28 27 26 25 25 25 25 25 24 23 22 22 22 21 20 19 19 18 17 17 17 16 16 14 13 13 13 13 13 12 12 12 12 12 12 13 14 14 15
28 31 33 33 32 30 29 28 27 27 27 26 25 24 23 23 23 23 22 21 21 20 19 19 19 18 17 16 15 15 15 14 13 12 12 13 13 13 13 14 15 15
20 23 27 32 34 35 35 33 31 28 28 28 27 27 26 25 24 24 24 24 23 23 22 22 21 21 20 18 18 17 17 16 14 13 13 14 14 14 14 14 15 16
17 19 21 25 30 33 35 36 36 35 33 30 29 29 29 28 27 27 27 27 26 26 25 25 24 23 22 21 20 20 18 17 16 15 15 15 15 16 16 16 16 17
16 19 19 20 22 24 26 28 32 35 37 36 34 32 31 31 31 31 30 29 28 28 28 27 27 26 24 23 23 22 20 18 17 17 17 17 17 17 17 17 17 17
12 16 16 16 17 18 18 19 22 26 29 33 35 34 33 34 33 32 32 31 29 30 30 29 28 27 25 25 25 23 21 20 19 18 18 19 18 17 17 18 18 18
11 13 13 13 14 14 15 16 18 20 21 23 27 30 31 33 32 31 32 33 32 32 31 31 29 27 26 26 25 23 22 21 20 20 20 20 19 18 18 18 18 19
13 13 13 13 13 12 13 14 15 17 18 19 22 24 25 26 26 27 31 34 35 35 35 34 32 30 28 28 26 24 23 22 21 21 21 21 20 19 19 19 19 20
14 15 15 16 15 15 14 14 14 16 17 17 18 20 21 22 22 25 30 34 37 38 37 36 34 33 32 30 27 24 23 22 22 22 22 21 20 20 20 20 20 21
15 16 17 17 18 18 17 17 16 15 16 17 17 17 20 22 22 24 27 31 36 39 38 37 38 37 33 30 27 24 22 22 22 22 22 21 20 20 19 20 21 22
16 16 17 17 18 20 20 20 20 16 14 15 15 16 19 21 22 23 24 29 35 39 39 39 39 36 32 30 27 24 23 22 21 21 21 20 19 19 19 20 22 23
17 17 17 18 18 20 21 22 21 18 15 14 14 15 16 19 20 21 24 28 34 37 39 39 37 34 31 29 26 24 23 22 21 21 19 18 19 19 20 21 22 22
19 18 19 19 19 20 21 22 21 19 16 13 13 14 16 17 17 18 22 28 32 36 39 39 36 33 30 28 25 23 23 21 20 20 18 17 18 19 20 21 22 22
20 20 20 21 21 21 22 23 22 22 19 14 13 16 17 17 16 17 22 28 32 36 39 38 34 30 27 25 23 22 21 19 19 18 17 17 19 20 22 23 23 24
22 22 22 22 21 21 23 24 23 25 23 15 13 17 18 19 19 20 23 28 32 37 39 36 31 27 24 22 20 19 18 17 16 16 17 17 19 21 22 24 25 26
24 24 23 23 23 21 22 23 24 26 24 17 15 18 18 18 19 20 22 28 33 37 37 32 26 23 21 19 18 16 16 14 13 13 13 15 17 19 20 22 25 27
26 25 25 25 24 23 22 23 25 25 21 16 16 18 17 17 18 20 23 28 33 35 32 27 22 19 17 16 14 14 13 12 10 10 11 13 15 16 17 20 23 26
27 27 27 26 26 25 23 23 25 24 18 14 17 19 18 17 18 21 26 30 32 30 25 21 18 16 14 12 11 11 12 12 11 10 11 13 15 15 16 19 22 24
29 28 28 27 27 26 24 24 25 21 15 15 17 18 17 17 19 23 28 30 29 25 21 17 14 11 10 9 9 10 11 13 13 13 14 15 15 16 18 21 22 22

ECMWFNIL_850_spd_015.txt.gz
Wind_Speed
17 16 16 17 15 13 13 12 11 11 10 9 8 7 6 5 3 3 2 1 0 0 1 1 1 1 1 0 1 1 2 3 3 4 4 4 4 4 4 4 3 3
18 16 15 16 15 14 14 14 13 12 11 10 9 9 9 6 4 4 5 4 3 2 1 1 1 2 2 2 2 1 2 2 3 4 4 4 4 4 4 4 4 3
20 18 16 15 15 15 15 15 14 13 12 12 11 11 11 9 5 6 6 6 6 5 4 3 3 3 4 3 3 3 3 2 3 3 4 4 5 5 5 5 5 5
22 21 19 17 15 15 15 16 16 15 14 14 13 14 13 11 8 7 8 7 7 8 6 6 6 5 5 5 4 5 4 4 4 4 3 4 5 5 6 6 6 7
23 22 22 20 17 15 15 15 16 16 15 15 15 15 15 14 11 10 10 9 9 10 8 8 8 8 8 7 6 6 6 6 6 5 4 5 5 5 6 7 7 7
23 22 22 21 19 17 17 16 16 16 16 16 17 16 17 16 14 13 13 12 11 11 11 11 10 10 10 9 9 9 7 7 7 5 5 6 6 6 6 6 7 8
24 22 23 21 19 18 19 19 17 17 17 17 18 18 18 18 17 15 16 15 14 14 13 13 13 12 12 11 11 10 8 9 9 7 5 6 7 8 8 7 6 7
22 23 25 24 21 19 19 19 19 18 18 18 18 19 20 20 19 18 18 17 16 16 15 15 15 15 14 14 13 13 13 12 12 9 6 8 9 9 9 10 9 8
17 19 21 21 20 19 18 21 24 21 18 18 18 19 20 21 21 20 20 19 18 18 17 17 17 16 17 16 14 15 16 15 14 12 10 11 11 9 7 9 12 11
13 14 15 16 18 17 16 19 24 25 23 20 19 19 20 21 22 22 21 20 20 20 19 19 19 18 18 18 16 16 18 17 16 14 13 12 11 9 8 9 12 11
10 11 13 16 18 21 21 20 22 24 25 24 21 21 21 21 22 22 22 22 22 21 20 20 20 19 20 19 18 18 18 18 16 15 14 13 12 12 11 12 13 12
4 6 9 11 14 18 22 24 25 25 25 25 24 23 24 23 23 23 23 23 22 22 21 20 19 19 20 20 18 18 19 19 18 16 15 14 13 13 13 13 13 13
2 3 6 7 9 12 15 20 23 23 22 22 22 21 23 24 25 25 25 24 24 23 22 21 20 20 21 20 19 19 20 20 19 18 16 15 15 14 14 15 15 14
11 11 11 12 12 13 15 18 18 18 19 20 21 23 24 25 25 25 24 24 25 24 23 23 22 22 23 22 21 21 23 22 21 20 17 17 17 16 15 16 16 16
13 15 16 17 17 15 16 18 16 15 16 18 21 23 25 24 23 23 23 24 25 24 24 25 25 24 24 24 23 23 24 23 22 20 17 17 17 16 16 17 17 17
7 9 10 12 14 13 14 16 14 13 13 15 18 19 21 21 22 23 24 25 25 24 24 26 26 25 26 27 27 26 24 23 22 20 18 17 16 15 16 17 17 17
6 7 7 8 10 10 11 12 12 12 12 14 17 17 17 17 19 21 23 24 24 24 25 27 28 27 29 32 32 29 25 23 22 21 20 18 17 16 16 16 16 16
7 7 8 9 9 10 10 10 11 11 12 13 14 16 17 16 16 18 19 20 23 26 28 29 29 30 32 36 37 33 28 25 23 22 21 19 18 17 16 14 15 16
8 9 9 10 10 10 10 10 11 11 12 13 13 15 17 18 18 18 18 18 22 25 25 28 30 32 35 37 36 33 31 27 21 19 19 17 16 17 17 17 17 18
9 9 10 10 11 11 11 11 12 12 13 13 13 14 16 18 19 19 18 18 21 21 21 26 32 33 34 36 35 33 31 26 19 18 18 17 17 19 19 19 20 19
9 10 10 11 11 12 12 12 13 13 14 14 14 14 15 16 17 18 17 18 21 21 22 28 33 32 31 33 33 32 29 25 21 21 21 20 19 20 20 20 20 20
10 10 11 12 12 12 13 13 13 14 14 14 14 14 14 15 16 17 16 16 19 21 24 30 33 31 30 30 31 30 28 24 22 23 22 19 19 19 19 19 18 17
10 11 11 12 13 13 14 14 14 14 14 14 15 15 15 14 14 16 17 16 17 20 26 32 33 29 27 28 29 28 25 22 21 20 19 18 17 17 15 13 13 14
11 12 12 13 14 14 15 15 15 15 15 15 15 16 16 15 14 15 16 16 17 22 28 32 31 27 26 27 27 25 23 19 15 13 12 12 11 11 11 10 11 15
14 14 15 16 17 17 17 17 16 16 15 15 15 15 15 15 13 13 15 18 22 26 30 30 28 27 26 25 24 22 20 15 11 9 7 6 7 9 9 10 11 14
15 16 16 17 18 19 19 18 17 16 16 15 15 16 15 14 14 14 17 21 24 27 29 26 25 26 25 23 20 19 17 16 14 11 8 8 9 9 9 11 11 12

ECMWFNIL_850_spd_018.txt.gz
Wind_Speed
20 18 17 16 13 11 11 10 9 7 6 5 4 1 2 3 2 2 3 3 3 4 4 4 4 4 4 4 3 3 5 6 6 7 7 6 6 6 5 5 5 5
20 19 17 17 15 12 11 12 11 9 9 8 6 4 2 1 2 2 2 2 2 2 2 3 3 3 2 2 2 2 3 4 5 6 6 6 7 6 6 6 5 4
20 19 17 17 16 13 12 12 13 12 10 10 9 8 6 2 2 3 3 2 1 1 1 1 2 2 1 1 0 1 2 3 4 4 5 5 5 6 6 6 5 5
20 19 16 15 15 13 12 12 13 13 12 11 11 11 10 6 4 5 4 4 5 3 2 2 1 2 1 1 2 1 1 1 2 3 3 4 4 5 6 6 6 5
20 19 17 15 14 14 13 13 13 14 13 12 12 13 13 11 9 8 7 7 7 7 6 5 4 4 3 2 3 2 1 2 1 2 2 3 3 3 3 4 5 5
18 18 17 16 14 15 14 13 14 14 12 12 13 13 15 15 13 12 11 10 10 10 10 9 8 8 6 5 5 5 4 3 2 1 3 3 2 2 3 3 4 4
16 16 15 14 13 13 14 14 15 15 14 13 14 14 15 17 17 15 15 15 13 13 13 12 11 11 10 9 9 8 7 6 4 3 4 4 3 3 3 3 3 4
12 12 13 14 13 13 14 16 17 17 17 16 16 16 15 16 18 18 16 16 17 16 15 15 14 14 13 12 12 11 10 9 8 6 5 6 5 5 6 5 3 3
11 11 12 13 15 16 15 15 17 19 19 18 17 17 16 16 17 18 17 17 18 18 17 17 17 16 16 15 14 13 13 13 12 9 8 9 9 7 7 8 7 6
11 11 12 12 14 16 16 16 17 18 18 18 17 16 16 16 16 17 18 18 19 19 18 18 18 18 18 17 16 15 15 15 14 13 11 12 11 9 7 8 10 10
12 13 16 17 15 16 17 16 17 17 18 18 17 16 17 18 19 19 20 20 21 21 20 19 19 19 19 19 17 15 16 17 17 15 14 14 13 11 10 10 11 10
12 12 13 15 15 13 14 18 21 21 20 18 16 17 19 20 22 22 21 22 24 24 24 22 21 20 19 19 19 17 17 19 18 16 16 15 14 13 13 12 11 11
12 11 8 7 8 8 10 17 23 24 24 24 23 24 24 22 23 23 23 25 27 26 26 25 23 23 22 21 21 19 19 20 19 18 18 17 16 16 15 14 13 11
10 9 8 7 7 8 9 13 17 18 19 21 21 22 22 20 21 24 27 30 31 30 29 28 25 24 24 23 23 22 22 22 21 19 19 19 18 17 16 15 14 12
6 6 8 9 11 13 13 12 13 13 12 12 13 14 16 17 19 24 27 30 31 31 32 31 28 27 26 25 26 26 25 24 23 21 20 20 20 18 17 16 15 14
3 4 4 5 7 8 9 8 8 9 8 8 9 10 12 14 16 20 24 28 30 29 29 30 29 28 27 27 28 29 28 26 25 22 21 21 20 19 18 17 15 15
0 2 3 3 4 4 5 6 6 6 7 9 11 11 13 14 15 17 21 24 26 25 24 24 25 26 28 28 28 29 28 27 26 23 21 20 20 18 17 17 16 15
3 4 4 4 5 5 5 6 6 6 7 9 10 11 13 16 16 16 17 18 20 21 20 19 23 27 30 30 29 29 29 29 27 24 21 20 19 18 17 16 16 15
3 4 4 4 5 6 6 7 7 7 8 9 10 11 13 15 16 16 16 16 18 19 19 19 21 24 27 29 31 31 31 30 29 26 23 21 20 18 17 16 16 15
4 3 4 5 5 6 7 8 8 8 9 10 11 12 13 14 16 17 17 16 15 17 20 22 22 21 21 25 29 32 33 32 30 28 24 21 19 18 18 17 17 17
4 4 5 6 7 7 8 8 8 9 9 10 10 12 12 12 14 16 17 16 15 16 20 22 22 20 19 22 28 31 31 30 29 27 23 20 19 19 20 20 19 19
4 5 6 7 7 8 8 8 8 9 10 10 10 11 13 13 13 15 15 16 16 17 21 22 21 20 20 22 26 28 27 26 27 26 24 22 22 22 21 21 20 20
6 7 8 8 8 8 8 8 10 10 11 11 11 12 13 14 14 15 16 16 15 17 21 21 20 20 22 23 24 25 25 24 25 26 26 25 23 21 20 19 17 15
8 8 9 9 10 10 10 11 12 12 12 12 12 13 13 14 15 14 15 16 16 17 21 21 20 20 21 22 23 24 23 23 24 26 25 23 20 17 15 13 11 11
9 10 11 12 13 13 13 13 14 14 14 13 13 13 14 15 15 14 15 18 19 20 21 21 20 20 20 21 22 22 22 22 22 21 18 15 12 10 9 8 9 11
11 11 12 13 13 13 13 14 15 15 15 15 14 14 14 14 15 15 18 21 22 21 20 19 19 19 19 20 21 21 22 21 21 19 16 13 13 13 13 12 12 12

ECMWFNIL_850_spd_021.txt.gz
Wind_Speed
18 15 15 16 15 13 12 11 10 11 11 12 11 11 10 10 9 8 8 8 8 8 7 7 6 5 5 7 7 7 7 7 6 7 6 6 6 6 5 4 4 3
18 16 14 15 14 12 11 10 9 8 8 9 9 9 9 9 9 9 8 7 7 6 6 6 5 4 3 4 5 5 5 6 6 6 6 6 6 6 5 4 4 5
18 17 15 14 13 12 11 9 9 7 6 5 5 6 7 6 6 7 7 7 6 6 5 5 4 4 3 3 3 3 3 5 5 6 6 6 6 5 5 4 4 5
18 17 16 15 12 11 10 10 9 8 7 5 4 3 4 3 3 3 4 4 4 4 4 4 3 3 2 2 3 3 3 3 4 4 5 5 5 5 5 4 4 4
18 16 14 14 13 10 9 9 9 9 8 7 6 4 3 2 1 1 2 2 3 3 3 3 3 3 2 2 2 2 2 2 2 3 3 3 3 4 3 3 4 3
18 15 11 11 13 11 9 9 9 9 9 8 8 7 6 5 5 5 4 4 5 5 5 5 5 5 4 4 4 3 2 2 1 0 1 1 2 2 2 1 2 2
17 14 11 10 11 11 10 10 9 9 9 8 7 7 7 6 7 8 8 8 7 7 7 6 7 8 7 7 7 6 6 5 4 3 3 2 1 1 0 0 1 0
19 17 15 14 13 11 10 10 10 10 10 9 8 8 8 7 8 10 10 11 11 10 9 8 7 8 8 9 10 10 9 9 7 6 6 6 4 4 3 3 4 4
21 19 18 16 14 12 11 12 11 11 12 11 11 11 9 8 8 8 10 11 13 13 12 12 11 10 10 10 11 12 11 12 12 10 9 10 8 7 7 6 5 5
18 17 18 17 15 13 13 14 14 14 14 14 14 14 14 12 10 9 9 11 13 14 13 14 13 12 12 12 12 13 13 14 14 13 12 12 12 10 10 10 8 7
15 18 21 19 17 17 17 19 19 17 16 16 15 17 17 15 13 12 12 14 15 15 14 14 15 15 15 15 15 15 15 15 15 14 13 14 14 12 12 13 11 9
16 20 21 18 17 19 21 22 23 22 21 20 18 20 22 20 16 14 15 17 18 17 16 15 16 17 18 19 17 16 17 18 18 16 15 15 16 14 14 14 13 11
16 18 19 17 17 19 20 19 20 21 20 17 18 22 25 23 19 16 16 18 19 19 21 21 20 20 22 23 21 19 18 19 20 19 17 17 17 16 16 15 14 13
14 15 16 16 15 16 15 12 12 14 13 13 17 21 22 19 17 17 18 19 19 19 23 25 25 24 24 25 25 22 20 20 21 22 21 21 20 18 17 17 15 15
9 9 9 9 9 9 9 8 8 9 10 13 16 18 17 15 15 16 17 19 19 19 22 25 26 26 26 27 27 25 23 22 23 25 25 24 23 21 20 19 17 16
6 6 5 5 4 3 4 5 6 5 7 8 9 10 10 10 11 12 13 14 16 18 20 22 23 23 24 27 28 28 27 26 25 25 27 28 26 23 22 21 19 17
7 6 5 4 3 2 2 1 1 2 3 4 4 5 6 7 8 9 10 11 13 15 16 18 18 18 19 21 24 26 28 29 28 27 27 29 28 26 25 23 20 18
6 5 4 3 2 1 1 1 1 1 2 3 4 5 6 8 9 9 10 11 12 13 14 14 15 15 16 18 20 23 26 29 30 29 28 30 30 28 27 24 21 19
5 5 4 4 3 4 5 6 6 6 5 5 5 7 8 10 10 10 11 13 14 13 13 13 14 14 15 16 18 20 22 25 29 30 29 31 31 29 28 24 20 19
5 6 6 6 7 8 9 10 10 10 10 9 9 9 9 10 11 12 12 14 16 16 15 14 14 14 15 16 17 19 21 24 27 28 28 29 30 28 26 23 20 18
6 5 7 8 9 9 9 8 7 7 8 9 10 11 11 11 11 12 13 14 16 17 16 15 14 15 16 17 18 19 19 20 23 25 27 28 27 24 22 20 18 18
5 6 7 8 8 9 7 6 5 4 5 6 7 9 10 11 11 12 13 14 15 15 15 15 15 16 17 17 18 18 17 17 20 25 28 28 24 21 21 20 18 18
6 7 9 9 10 9 8 6 6 6 6 6 6 7 9 10 11 12 14 15 16 16 16 16 16 16 16 16 16 16 16 17 20 24 25 24 21 20 21 19 18 17
8 9 10 10 11 10 10 11 11 11 10 8 7 7 8 10 11 13 14 15 16 18 18 18 17 17 16 15 15 15 16 18 21 22 22 20 18 18 18 16 16 17
11 10 10 11 12 13 14 15 14 13 13 11 9 9 9 10 12 14 16 17 18 18 19 18 18 17 17 16 15 15 16 18 20 21 20 18 18 17 15 15 17 19
14 14 14 14 15 15 16 16 16 15 15 15 13 12 10 12 14 16 17 18 19 19 19 19 19 18 17 15 14 15 16 18 20 21 20 19 18 18 17 17 18 19

ECMWFNIL_850_spd_024.txt.gz
Wind_Speed
15 15 15 15 14 13 14 16 16 16 15 15 14 14 13 12 11 10 10 9 8 7 7 8 9 8 8 8 7 7 7 7 7 7 6 5 5 5 4 4 3 3
17 16 17 17 17 15 14 15 16 16 16 15 14 14 14 13 13 12 10 10 8 7 6 7 8 8 7 7 7 7 7 7 7 7 6 5 5 5 5 4 4 4
19 18 19 17 17 17 15 14 14 15 14 14 14 14 14 13 13 12 11 11 9 8 7 7 7 7 7 6 7 7 7 7 7 7 7 7 6 6 6 6 5 5
21 21 20 17 17 16 15 13 13 13 12 12 12 12 13 13 12 11 11 10 9 8 8 7 6 6 6 6 6 6 6 7 7 7 7 6 6 6 7 6 6 5
25 23 20 17 17 16 15 14 12 11 11 10 9 9 10 10 10 10 9 9 8 7 6 6 5 4 4 5 5 5 5 5 6 6 6 5 4 5 6 5 5 5
28 25 20 18 18 17 16 14 12 11 11 10 9 8 7 7 7 6 6 6 7 6 5 4 3 3 2 2 3 2 2 2 3 3 3 3 2 2 3 3 2 2
30 26 21 21 21 19 17 15 14 13 12 11 9 8 6 5 5 4 4 4 5 6 6 5 4 3 2 1 1 1 1 1 1 1 1 1 2 2 1 1 1 0
29 26 23 22 22 22 21 19 19 17 15 13 11 10 8 6 5 4 4 4 4 4 4 4 5 4 4 3 3 4 4 4 4 3 3 3 2 3 3 2 2 2
28 26 24 22 23 24 23 23 23 20 18 16 14 12 11 10 9 8 7 7 6 6 6 5 5 4 4 4 4 4 5 5 6 6 6 5 5 4 4 4 4 4
28 27 26 24 25 25 23 24 25 22 20 19 16 15 14 13 13 12 11 10 9 9 9 8 8 8 7 7 6 5 5 5 5 6 6 6 5 6 6 6 5 5
26 26 27 27 25 23 22 26 27 24 21 19 16 15 15 15 15 14 13 12 12 12 11 11 10 11 11 11 10 9 8 8 7 7 7 6 6 6 7 7 7 6
24 26 27 27 25 22 22 24 25 23 20 19 17 17 17 17 16 15 14 14 13 14 14 13 13 13 14 14 13 13 12 12 12 11 11 10 9 9 9 9 8 8
20 24 25 24 23 21 20 20 20 19 18 19 19 19 19 19 19 18 16 15 15 15 15 15 15 15 15 16 17 16 16 16 16 15 14 14 13 12 11 11 11 10
16 19 20 21 21 20 20 20 19 18 19 20 21 21 21 21 21 19 16 16 16 18 19 19 19 18 18 18 19 19 19 19 19 19 18 17 16 16 15 14 14 13
15 16 17 18 19 19 18 17 15 15 16 17 18 19 19 17 16 14 13 14 16 18 19 20 21 21 21 21 22 21 21 21 20 20 20 19 18 18 18 18 17 17
12 12 12 12 14 14 13 12 12 13 12 11 11 11 11 11 11 11 12 12 13 14 15 17 18 20 21 21 22 23 24 23 22 22 22 22 21 20 21 21 21 20
10 9 9 8 9 9 8 8 8 8 7 7 7 7 7 8 9 9 9 9 9 10 11 13 15 16 17 18 18 20 22 24 24 24 24 24 24 24 23 23 24 24
10 9 9 8 8 7 7 7 7 7 7 7 8 8 8 8 8 8 8 8 9 9 9 9 11 12 13 14 14 15 17 19 21 22 23 24 26 27 26 26 26 26
9 9 9 9 8 8 8 8 8 8 8 8 9 9 9 10 10 9 9 9 9 10 9 9 10 11 12 13 13 14 15 17 18 19 20 21 23 26 27 27 27 28
8 9 9 9 9 9 9 9 9 9 9 9 10 10 10 11 11 11 11 11 11 11 11 11 12 12 13 13 14 14 14 15 16 17 18 19 21 23 25 26 27 28
9 10 10 10 9 10 11 11 11 12 13 13 14 14 13 13 13 13 12 12 12 11 11 12 14 14 14 14 15 15 15 16 15 16 17 18 19 21 23 25 27 26
9 10 11 11 11 12 12 12 12 11 11 12 12 13 13 14 14 14 14 13 12 12 12 13 15 16 16 15 15 16 17 16 15 15 14 14 15 17 21 25 26 25
8 9 11 12 11 11 11 10 9 8 8 7 7 8 9 10 12 13 13 13 12 13 14 15 17 17 17 16 15 15 15 15 14 12 11 11 12 16 20 23 23 22
10 10 11 11 11 11 11 10 8 8 8 9 9 8 8 8 10 12 13 14 13 14 15 16 16 17 17 16 15 15 14 13 11 10 10 12 14 17 20 21 20 18
9 10 11 12 13 13 12 11 11 12 13 13 12 11 10 10 10 11 13 15 15 15 16 16 17 17 17 17 16 16 15 12 10 9 10 14 17 18 20 20 19 18
10 11 12 13 13 13 13 13 14 15 16 15 14 14 15 15 14 13 13 15 16 17 17 17 18 18 18 17 16 16 15 11 9 10 11 14 17 18 20 20 20 20

ECMWFNIL_850_spd_030.txt.gz
Wind_Speed
9 8 8 6 6 3 2 2 1 2 2 3 3 2 3 4 4 4 4 4 3 2 4 4 5 5 6 7 8 8 8 8 8 9 9 9 9 9 10 10 10 9
12 10 9 8 8 6 5 4 3 2 2 2 2 2 2 3 4 5 5 5 3 2 2 3 4 6 7 9 10 10 11 10 10 11 11 10 11 11 11 11 11 10
13 12 10 10 9 8 6 5 6 4 2 1 2 1 2 2 3 4 5 5 4 3 2 3 3 5 6 8 10 11 12 12 12 13 13 13 13 12 13 12 12 12
14 13 12 11 11 9 8 8 8 6 5 4 3 3 2 2 2 3 3 3 4 3 3 2 2 3 4 5 7 9 10 11 11 12 12 12 13 12 13 13 12 11
16 15 14 14 14 13 12 12 10 9 8 7 6 5 4 3 3 2 2 2 2 3 2 2 2 2 2 3 4 5 6 7 9 10 9 10 10 10 10 10 10 9
19 18 17 17 17 15 15 14 13 12 12 9 8 7 5 5 4 3 3 2 2 2 2 1 1 1 1 1 2 2 2 3 4 6 6 6 7 7 7 7 7 7
22 21 20 19 18 16 16 15 13 14 14 11 10 9 7 6 5 4 4 3 3 2 2 2 2 2 2 2 1 1 0 0 0 1 2 3 3 3 4 4 4 4
24 22 22 21 19 17 17 17 15 16 16 13 12 11 9 8 7 6 5 5 4 3 3 3 4 4 3 3 2 2 1 1 2 3 2 2 2 1 1 2 2 2
24 24 24 24 21 19 19 19 18 18 17 15 14 14 12 10 9 8 7 6 5 5 4 3 4 6 6 5 3 2 1 1 2 2 3 3 3 3 3 2 2 2
24 24 24 26 25 21 21 21 20 19 18 17 16 16 15 12 11 10 9 9 8 7 6 6 6 7 7 7 5 3 2 2 2 2 2 3 3 4 4 4 4 3
23 24 24 27 27 23 22 21 20 20 19 18 18 18 16 14 14 13 13 12 12 11 11 10 10 9 10 12 10 6 5 4 4 3 3 3 3 4 4 4 5 4
21 22 23 26 26 24 23 21 20 21 20 19 19 19 17 15 15 15 16 16 15 14 15 15 15 14 15 17 16 12 9 8 8 7 7 7 7 6 6 6 5 5
18 20 23 24 23 22 22 21 20 20 20 21 21 22 21 21 20 18 16 17 17 17 18 19 18 18 18 18 17 16 13 12 12 11 10 11 12 11 11 10 8 8
15 18 22 23 21 19 20 21 20 19 19 21 21 20 21 23 23 21 19 19 19 20 22 21 19 19 18 16 15 16 15 14 14 14 14 14 14 15 15 14 13 11
13 14 17 20 21 19 19 20 21 20 20 20 20 19 20 21 22 22 23 24 22 21 21 21 20 20 18 15 14 15 16 17 18 18 17 17 17 17 17 16 16 15
11 12 15 18 20 20 19 19 19 20 19 19 19 20 19 19 19 20 22 23 22 22 21 22 21 19 15 14 15 16 18 20 21 19 18 18 18 18 17 16 16 16
9 11 12 14 17 19 20 18 18 18 17 17 18 19 18 17 17 19 20 20 20 20 19 19 16 14 12 12 14 16 17 18 18 18 18 18 17 17 17 17 17 17
8 10 11 12 13 15 17 17 18 17 17 17 17 18 17 16 14 14 13 13 13 13 13 12 10 9 9 10 10 11 12 12 13 14 15 15 15 15 15 17 18 19
8 10 11 12 12 14 15 16 16 17 16 16 15 14 13 12 10 9 8 9 9 8 7 7 7 7 8 7 7 7 8 8 9 10 11 12 12 12 13 14 15 16
7 8 9 11 12 13 12 12 13 12 12 11 11 10 9 8 7 7 7 7 7 6 6 6 7 8 8 8 9 9 9 9 9 10 11 11 12 12 13 13 13 14
6 7 8 9 10 11 10 9 9 9 9 8 8 7 6 6 6 6 7 7 8 9 9 10 10 11 10 10 10 10 10 10 10 11 11 12 12 13 13 14 14 14
5 6 7 7 7 7 7 7 7 8 8 8 7 7 7 7 8 8 9 11 11 12 12 12 12 11 11 10 10 9 9 10 10 11 11 11 11 11 11 12 13 14
7 7 7 8 7 7 7 7 7 7 7 7 8 8 8 9 9 10 10 10 11 11 12 12 11 11 11 10 10 9 9 9 10 11 12 12 11 10 10 10 11 12
9 9 8 7 7 7 8 9 9 8 9 8 8 8 7 7 7 6 6 7 7 9 10 11 11 11 11 11 11 10 9 10 11 12 13 13 13 12 9 8 8 8
8 9 10 9 9 8 9 10 10 10 9 9 8 8 7 6 5 5 6 6 7 9 10 11 13 13 14 14 13 12 11 11 11 12 13 13 13 12 11 9 7 6
9 9 10 10 10 9 9 10 10 10 10 10 10 9 9 7 6 7 8 8 9 10 10 11 13 14 15 15 15 14 13 12 11 12 12 12 12 11 10 9 8 6

ECMWFNIL_850_spd_033.txt.gz
Wind_Speed
7 6 5 5 5 5 6 7 7 8 7 8 8 8 8 8 8 8 8 7 7 7 7 7 7 8 9 9 9 8 8 8 9 10 9 9 10 10 10 10 10 10
10 8 7 7 7 7 7 8 8 8 7 8 8 7 7 7 6 6 6 6 6 6 6 7 7 9 9 9 9 8 7 8 8 9 10 10 10 11 11 11 11 10
11 10 9 9 10 10 9 9 9 8 8 8 8 7 6 6 6 5 5 5 5 5 6 7 7 8 9 9 9 8 7 7 8 9 9 10 10 11 11 11 11 11
14 12 10 9 11 12 11 12 10 8 5 5 6 7 6 6 6 5 5 4 4 5 5 6 7 7 8 8 8 8 7 7 8 8 8 8 10 10 11 11 10 11
15 13 11 10 13 14 13 13 10 6 4 4 6 7 6 6 6 6 6 5 5 4 5 5 5 6 6 6 7 7 7 6 6 7 7 7 8 9 9 9 9 9
14 14 13 11 14 17 15 13 11 8 7 9 9 7 6 6 6 6 6 5 5 4 4 4 4 4 4 4 5 5 5 4 4 4 5 5 5 5 6 7 6 6
15 15 15 13 16 19 16 15 14 10 9 12 12 9 8 8 7 6 5 5 4 4 3 3 3 3 3 3 3 3 4 4 4 3 3 3 3 2 3 4 4 4
16 15 16 15 17 19 17 17 15 11 12 15 13 10 9 9 8 6 5 4 4 3 3 3 3 3 2 2 2 2 2 2 3 3 3 2 2 1 1 1 2 2
16 16 17 16 17 19 17 17 16 13 13 14 13 11 10 10 9 7 6 4 3 3 3 3 3 3 2 2 2 2 3 3 3 2 2 2 2 1 0 1 1 1
14 16 17 17 18 19 17 16 16 15 14 14 14 13 12 12 11 9 8 6 5 5 5 4 4 2 2 2 2 3 4 4 4 4 3 1 2 3 2 1 1 1
14 17 18 17 18 19 18 17 16 16 16 16 16 15 15 14 13 11 10 8 7 8 9 8 7 6 6 6 5 6 7 7 5 4 4 4 4 5 5 4 3 2
15 17 19 19 19 21 20 19 18 17 17 17 16 16 16 17 16 15 13 13 12 12 12 13 11 10 9 9 9 9 10 11 12 10 8 7 8 8 7 7 6 5
14 15 16 18 19 20 21 21 19 17 18 18 17 17 18 18 18 18 18 19 19 17 16 16 17 15 13 13 13 13 13 13 14 13 12 10 10 11 10 10 10 10
11 11 12 12 14 14 15 18 19 18 18 18 17 18 19 19 18 18 20 22 22 21 19 18 18 17 16 15 15 14 14 14 14 14 13 12 12 13 13 12 12 13
8 8 7 8 10 12 12 13 16 18 19 19 18 17 19 19 17 18 20 22 22 22 23 23 21 19 17 17 16 16 16 15 15 15 15 15 15 16 16 16 15 15
4 5 5 5 8 11 12 12 14 17 20 20 19 17 18 18 17 17 18 20 21 22 24 26 26 22 18 17 17 18 18 17 16 15 15 16 17 17 17 17 17 18
2 3 5 6 7 10 12 13 14 15 18 19 20 19 19 18 17 17 17 18 19 21 21 21 21 20 18 17 17 18 17 15 14 13 13 14 15 15 16 16 16 17
3 5 6 7 9 11 13 14 15 15 16 18 19 18 18 18 17 17 17 17 17 17 16 15 15 15 15 15 14 13 12 10 10 10 10 11 12 13 13 14 14 15
4 6 7 8 9 11 12 14 16 16 16 18 19 19 18 18 17 15 14 13 12 10 10 10 10 11 11 11 11 9 8 7 8 8 9 10 11 12 12 12 12 13
3 4 6 7 8 8 10 12 14 16 17 18 19 18 17 15 13 11 9 9 8 7 8 8 8 8 9 9 8 8 8 9 9 9 10 10 11 12 12 12 12 13
2 1 3 4 5 5 6 8 10 11 12 12 11 10 10 9 8 8 8 7 7 7 7 7 7 7 8 8 8 9 9 9 9 8 7 7 8 8 9 10 11 12
4 4 4 3 4 4 4 5 6 7 7 6 6 6 7 7 7 7 7 7 7 8 8 8 8 8 8 9 9 10 9 8 7 5 5 5 6 6 6 7 8 9
5 6 6 6 7 8 7 6 6 6 6 6 6 6 6 6 7 7 7 8 8 9 9 10 10 10 10 10 10 10 9 8 6 5 5 6 7 7 7 7 7 7
7 7 7 7 8 8 8 7 7 7 7 7 6 6 6 7 7 7 8 8 8 9 9 9 10 10 10 10 10 10 9 8 8 7 7 7 8 8 8 7 6 6
10 9 8 8 7 7 7 7 7 7 7 7 7 8 8 7 6 7 7 7 7 7 7 6 6 6 7 8 9 9 10 10 10 9 8 7 7 7 7 6 6 5
11 11 10 9 9 9 9 9 9 9 8 8 8 9 10 8 7 7 7 7 7 7 6 6 6 7 8 9 10 10 10 11 10 10 9 7 6 6 6 6 5 4

ECMWFNIL_850_spd_036.txt.gz
Wind_Speed
10 9 8 10 10 9 9 10 11 12 13 13 14 14 14 13 12 12 12 11 11 10 9 8 8 8 8 9 10 8 7 9 9 10 10 10 10 10 10 10 9 8
10 9 8 9 10 10 9 10 11 12 13 14 14 14 13 12 12 11 11 11 11 10 10 9 9 9 9 9 9 9 8 9 9 10 10 11 11 10 10 10 10 9
9 9 8 8 9 10 9 11 12 13 14 14 13 13 13 12 12 11 11 11 11 11 11 10 10 10 10 10 10 9 9 9 9 10 10 10 11 10 11 11 10 10
8 9 10 8 9 10 10 12 14 14 15 15 13 11 12 13 12 11 11 11 11 11 11 11 11 10 10 10 10 10 9 9 10 10 10 10 11 11 11 11 10 10
8 10 11 10 11 12 12 13 14 12 15 16 14 12 13 13 12 11 11 11 10 10 10 10 10 10 10 10 10 10 10 9 9 10 10 9 10 10 10 10 9 9
9 11 12 12 12 13 15 15 13 11 14 16 15 13 13 13 12 11 10 10 10 9 9 8 8 9 9 9 9 9 8 8 8 8 7 7 7 7 7 8 7 6
10 11 12 13 13 14 17 17 14 12 14 16 16 15 14 13 13 12 11 10 9 8 8 7 7 7 7 7 7 7 7 7 7 7 5 4 5 4 4 5 5 4
13 12 13 14 14 15 17 18 16 13 13 15 15 15 15 14 14 13 12 11 10 9 8 7 6 6 6 6 6 5 6 6 6 7 6 5 4 3 2 3 3 3
15 14 14 15 16 16 18 19 18 14 12 13 15 14 15 15 15 14 13 12 11 10 9 8 7 6 5 5 4 4 5 5 5 7 7 7 5 4 1 0 1 2
13 14 14 15 17 18 19 20 20 16 13 13 15 14 15 15 15 15 14 13 13 11 10 9 8 7 5 4 4 4 5 5 5 5 6 7 7 5 4 3 1 0
10 11 13 15 18 19 20 20 19 17 15 16 16 16 16 16 16 16 15 15 14 13 12 11 9 8 7 6 5 5 5 5 5 5 5 6 6 7 7 7 6 3
9 10 12 15 18 19 20 20 19 18 17 18 17 17 17 17 16 16 15 15 15 14 13 11 10 10 10 9 7 6 6 7 7 7 8 9 9 9 8 8 8 7
8 10 12 14 16 18 20 21 20 18 18 19 19 19 18 18 18 17 17 16 15 14 13 12 12 13 14 13 10 9 9 8 9 10 10 11 12 12 11 11 11 11
7 9 11 12 14 15 18 22 22 20 19 20 21 20 19 19 19 18 18 18 18 17 16 16 15 15 15 14 13 12 11 10 10 10 10 10 11 12 13 12 12 13
7 9 10 11 12 12 14 17 19 20 20 21 21 21 21 20 20 19 19 20 20 20 19 19 18 17 16 14 12 12 11 11 10 10 9 10 11 12 13 13 13 14
5 6 7 9 10 11 12 12 13 16 19 21 21 21 21 20 20 19 18 18 18 18 19 20 19 20 20 19 18 16 14 13 12 10 10 11 12 13 13 13 13 13
3 3 5 7 7 8 10 11 12 13 15 19 20 21 20 19 19 19 17 16 15 16 18 20 20 22 22 23 24 22 19 15 12 11 11 11 11 10 9 9 9 9
2 2 3 5 6 6 8 10 11 12 12 14 16 17 17 18 18 17 16 16 16 17 18 18 19 21 20 19 20 20 18 14 11 10 9 8 8 7 6 7 7 8
1 2 2 4 4 5 6 8 9 10 11 12 14 15 16 17 17 17 17 18 18 18 18 17 17 18 16 15 15 14 13 11 9 9 8 7 7 7 7 7 7 7
0 1 2 4 4 5 6 7 8 9 11 13 15 16 16 18 17 16 18 18 18 17 15 14 14 13 12 11 11 10 10 10 9 9 8 8 9 10 9 10 9 9
1 1 3 4 5 6 7 7 8 9 10 11 13 14 15 16 16 14 14 13 14 14 13 11 10 9 9 9 10 10 10 9 9 9 7 8 10 10 10 10 10 10
2 3 4 5 6 6 6 6 7 6 6 6 6 7 8 9 8 8 8 9 10 11 11 10 8 8 8 9 10 10 10 9 8 7 6 6 7 7 7 7 7 7
4 4 4 5 7 7 6 7 7 6 6 6 5 6 6 6 7 7 8 9 10 11 10 10 9 9 9 9 10 10 9 8 6 6 6 6 6 5 5 5 5 5
5 5 5 6 8 8 9 10 10 9 8 8 8 9 10 9 9 10 10 11 12 13 13 12 11 10 10 10 10 10 9 8 7 7 7 6 6 5 6 6 6 6
7 8 8 8 8 8 9 10 10 10 10 10 10 11 11 11 11 11 12 13 13 14 13 13 11 11 11 11 11 10 9 8 7 7 8 7 6 6 7 7 6 6
9 10 11 10 9 9 9 10 9 9 10 11 11 11 12 12 12 12 12 12 12 12 11 10 9 8 8 8 8 9 9 9 8 8 8 8 7 7 7 7 7 6

ECMWFNIL_850_spd_039.txt.gz
Wind_Speed
12 11 12 11 10 10 11 11 11 11 12 12 11 11 11 11 11 11 10 9 8 8 8 8 8 9 9 11 11 9 8 9 10 9 10 9 9 8 8 9 10 9
11 11 12 12 11 11 12 12 12 12 12 12 12 11 11 11 11 10 9 8 8 8 8 8 8 9 8 9 9 9 8 9 9 9 10 10 9 8 8 9 10 10
13 13 12 12 12 12 12 13 13 12 12 12 13 12 12 12 11 11 10 9 8 9 9 9 9 9 9 9 10 10 9 9 9 9 9 10 9 9 9 9 10 10
14 13 12 11 12 11 12 14 14 12 13 13 13 13 13 13 12 12 12 10 10 10 10 10 10 10 11 11 11 11 11 10 11 10 9 10 9 9 9 9 9 9
13 13 12 11 11 11 12 14 14 13 14 15 14 14 14 14 13 13 13 12 11 11 11 11 11 12 12 12 12 11 11 10 11 10 9 9 9 8 8 8 8 8
13 13 13 12 12 12 13 15 15 14 15 16 15 14 14 14 14 13 13 13 12 12 12 11 12 12 12 12 11 11 10 9 10 9 7 7 7 6 7 7 6 6
13 13 13 13 13 14 15 17 17 16 16 16 14 13 14 14 14 14 14 13 12 11 11 11 11 11 11 10 10 9 9 9 9 8 5 5 5 5 4 4 5 5
14 13 14 14 14 15 15 17 17 16 17 16 13 12 14 13 13 14 14 13 12 11 11 11 10 10 9 9 8 7 7 7 7 6 5 5 5 4 1 2 4 3
14 13 14 15 16 15 15 17 17 16 18 17 13 12 13 13 13 14 14 14 13 12 11 11 10 10 9 8 7 6 6 6 6 5 5 5 4 3 1 2 2 2
13 12 13 15 17 16 15 17 18 16 17 16 13 13 13 12 13 13 13 13 13 13 12 11 11 10 9 9 8 7 6 6 5 5 5 5 4 4 4 3 2 2
12 12 12 14 16 16 16 16 17 17 16 14 13 13 13 13 13 13 13 13 13 13 12 12 11 10 9 9 9 8 7 6 5 5 5 6 6 7 7 6 5 4
11 12 12 12 14 16 17 16 16 17 16 14 13 13 13 13 13 13 13 13 13 13 12 12 12 11 10 10 9 9 9 8 8 7 6 7 7 8 9 9 8 8
9 10 11 12 12 15 17 17 16 16 15 14 12 13 13 14 14 14 14 14 13 13 13 12 12 11 11 11 10 9 9 9 9 9 9 9 10 10 12 12 11 10
7 7 9 10 11 13 15 16 15 14 14 13 13 13 14 14 15 15 14 14 13 13 14 13 13 13 12 11 11 10 10 11 11 11 11 12 12 11 12 12 11 11
6 6 7 8 9 11 13 15 15 14 14 16 17 17 15 15 16 16 16 15 13 13 14 13 14 15 14 14 14 13 13 13 13 14 14 13 13 13 13 12 11 11
5 5 5 6 7 9 10 13 16 16 16 18 19 19 18 18 18 17 16 15 14 15 16 18 19 17 15 17 17 15 15 15 15 17 16 15 15 15 14 13 11 10
4 4 4 5 5 5 7 9 11 13 15 18 20 19 20 20 18 18 18 18 18 18 19 22 22 18 16 18 19 18 18 18 18 19 19 18 17 15 13 11 10 9
3 3 3 3 3 3 5 6 8 9 11 14 16 17 18 19 20 21 21 21 21 21 21 21 18 15 16 18 19 20 21 22 22 22 20 19 16 13 11 10 8 8
3 2 1 1 2 3 4 5 7 8 8 9 12 15 18 19 20 21 21 21 21 22 23 23 20 18 17 18 20 21 20 20 21 21 19 17 13 11 9 8 8 8
4 3 2 1 1 2 4 5 6 7 8 9 12 13 16 17 18 19 21 21 22 21 21 22 22 21 19 19 20 19 17 17 17 15 14 11 9 8 8 8 9 8
4 2 2 1 1 2 3 5 6 7 9 10 10 11 12 14 16 17 20 21 22 21 21 21 22 22 20 17 15 14 13 14 13 10 7 6 6 6 7 7 7 8
2 2 2 2 2 2 3 4 6 8 8 9 9 10 11 13 14 16 18 20 22 22 21 21 21 20 18 14 11 11 11 11 9 6 5 6 5 5 6 6 7 9
3 3 3 3 4 4 4 5 6 7 8 8 9 9 10 11 11 12 14 14 16 18 18 17 16 16 16 13 11 11 11 9 7 6 7 7 6 5 6 8 9 9
4 4 4 4 5 6 6 6 7 8 8 9 9 9 10 10 9 10 10 10 12 13 13 13 13 13 13 12 12 13 13 10 9 8 8 8 6 6 8 9 8 8
5 5 6 6 6 6 7 7 8 9 9 10 10 10 10 10 9 10 10 10 11 12 11 11 12 13 12 12 13 14 13 13 12 10 9 9 7 6 8 9 8 7
7 7 7 7 7 7 7 8 8 9 9 10 10 11 11 11 10 11 11 11 12 13 12 11 12 14 14 14 14 14 14 15 14 11 10 10 9 8 7 7 8 8

ECMWFNIL_850_spd_042.txt.gz
Wind_Speed
20 19 16 13 11 10 9 9 8 8 8 8 9 8 7 7 7 6 6 8 7 8 8 9 11 13 13 11 10 11 12 13 13 13 12 11 13 15 18 18 14 12
20 19 17 14 12 11 11 11 10 10 9 10 10 9 9 8 7 5 6 6 6 6 7 8 9 8 9 10 10 11 12 12 13 12 12 12 13 16 17 18 15 12
19 19 17 16 14 13 13 13 12 11 11 12 12 10 9 8 7 6 6 5 5 6 7 7 8 7 8 9 9 10 11 11 11 11 12 12 12 13 15 15 14 12
20 18 17 17 15 14 14 15 14 13 13 13 12 11 9 9 8 7 6 5 5 6 8 9 9 9 9 10 10 11 12 13 13 12 13 13 13 12 13 14 14 14
21 19 18 17 15 14 15 16 15 14 14 14 13 10 9 9 8 7 6 6 7 8 9 10 10 11 11 12 12 12 12 13 13 12 13 13 13 13 12 11 12 13
22 20 18 16 15 14 15 16 16 14 15 15 13 10 9 8 8 8 7 8 8 9 9 10 11 11 12 12 11 11 11 11 11 9 9 10 11 10 10 9 9 10
22 20 17 15 15 15 15 16 16 16 16 15 12 11 9 9 9 8 8 9 9 10 10 10 10 10 10 9 8 8 8 8 9 6 5 7 8 6 6 7 7 6
20 18 17 16 16 16 16 17 17 17 16 14 13 11 10 9 9 9 9 9 10 10 10 9 9 8 8 6 6 5 4 5 6 4 2 3 3 3 2 3 3 2
20 18 18 17 16 16 17 18 18 17 14 13 12 11 11 9 8 9 9 9 9 9 9 9 8 8 6 5 4 3 2 2 2 1 1 1 1 3 2 3 2 2
21 19 19 18 17 17 17 16 17 16 14 13 11 10 11 10 9 9 9 8 8 8 8 8 8 8 6 5 4 4 4 4 5 4 3 3 0 2 2 5 4 3
20 18 19 19 17 16 15 14 14 15 14 13 11 10 11 10 10 10 9 9 9 8 8 8 8 8 7 6 6 6 6 6 6 5 4 3 3 3 5 6 3 2
21 20 20 20 19 18 15 13 12 12 12 12 11 10 12 11 11 10 10 10 9 9 9 8 8 7 6 6 7 7 7 8 7 6 6 5 5 5 6 7 6 3
20 20 20 20 20 20 18 15 14 13 12 12 11 10 11 12 12 11 11 11 10 10 10 9 8 7 6 7 9 8 8 9 9 9 9 7 7 7 7 9 9 6
16 16 17 17 18 19 18 16 16 16 14 12 11 10 11 12 12 12 12 13 13 11 10 10 11 11 10 11 13 12 11 11 11 12 11 10 9 8 8 9 9 8
10 10 11 13 14 15 15 15 16 17 17 16 14 14 14 15 14 14 14 15 15 13 13 15 17 17 17 17 16 14 13 13 13 15 15 13 11 10 11 11 10 9
8 8 8 10 11 11 13 15 16 17 19 20 19 19 20 19 18 18 17 18 18 17 18 20 21 21 21 19 16 14 14 15 16 17 17 14 13 12 13 14 14 13
6 7 7 7 7 8 10 14 15 16 18 19 19 20 20 20 20 20 20 21 21 21 22 21 20 20 20 19 18 18 18 18 20 20 19 16 15 15 16 16 15 15
6 6 6 6 6 6 7 10 12 12 13 15 17 18 18 20 22 22 22 22 22 23 22 21 20 20 18 18 19 20 20 21 22 23 21 19 18 19 18 16 15 16
7 6 5 5 5 5 6 7 7 7 8 9 11 12 13 16 19 22 23 24 24 23 22 21 22 21 21 20 20 20 21 21 23 23 22 20 19 18 17 16 16 16
7 6 5 4 4 3 4 5 6 8 8 8 8 8 9 10 13 17 19 22 23 22 22 23 24 23 23 23 23 22 22 21 22 22 20 17 15 14 14 15 15 14
6 5 5 5 4 2 1 1 3 5 6 7 8 8 8 9 10 12 15 18 20 21 22 25 26 25 24 24 24 24 23 21 21 19 16 13 11 10 10 11 11 11
7 5 4 4 2 1 1 1 2 4 5 5 6 6 7 8 9 10 11 13 15 18 20 23 26 25 24 23 23 23 23 23 20 15 11 10 10 10 11 11 9 9
7 6 5 3 2 2 3 2 2 3 4 5 5 5 6 7 8 9 10 11 13 15 18 22 25 25 23 22 21 21 22 21 17 12 10 9 9 11 13 13 13 13
9 8 5 3 2 2 4 3 3 4 5 5 7 7 7 9 9 9 10 11 13 15 18 21 22 22 20 18 18 19 19 17 15 13 11 10 11 12 15 16 15 16
9 9 8 6 5 5 5 4 5 6 6 7 9 10 10 10 11 11 12 13 14 15 17 18 18 18 16 14 16 18 17 16 16 13 12 14 15 15 17 16 15 17
8 8 9 8 9 10 10 9 9 9 8 8 10 11 11 12 13 13 14 15 14 13 14 15 16 15 13 13 16 18 17 17 16 14 15 18 18 16 17 15 14 14

ECMWFNIL_850_spd_045.txt.gz
Wind_Speed
18 17 15 13 13 13 13 14 12 10 7 5 4 4 6 9 10 9 7 9 11 13 14 12 10 8 6 6 7 9 10 11 11 13 14 14 14 14 15 15 14 14
19 18 16 15 14 14 14 13 12 10 8 6 5 4 5 6 8 8 8 10 11 12 14 14 11 8 7 9 11 11 12 12 13 14 15 15 15 14 14 15 16 15
19 18 16 15 15 15 15 13 13 12 10 8 6 5 4 6 7 9 9 9 9 11 11 12 11 9 8 10 10 10 10 11 12 14 14 14 13 11 11 13 14 15
19 18 17 16 15 15 15 14 15 14 11 9 7 5 4 7 8 7 7 8 10 11 11 11 11 11 11 11 11 11 11 12 14 14 14 13 11 10 12 13 14 15
18 18 17 16 15 15 15 16 16 14 12 10 8 5 5 8 8 6 7 10 12 12 12 13 14 14 15 15 15 16 16 16 17 16 16 15 13 13 14 14 15 16
17 18 18 16 15 14 15 16 16 14 13 10 8 6 6 8 7 7 10 12 12 13 14 15 17 17 17 17 17 18 17 16 15 15 15 14 14 14 13 13 13 14
17 17 17 17 15 13 14 16 16 15 13 10 8 7 7 9 8 9 12 13 13 14 15 17 17 17 17 17 16 16 14 13 12 12 11 11 11 11 11 11 10 11
19 17 17 17 15 13 13 15 16 15 13 10 8 7 8 10 10 11 13 13 13 14 14 16 16 15 15 14 14 13 12 11 10 9 8 8 8 7 7 8 9 10
20 17 17 16 14 13 12 13 14 14 12 10 9 8 9 10 11 11 12 12 12 13 13 14 14 13 12 12 11 11 10 8 7 6 5 5 5 4 4 5 6 7
21 19 17 15 13 12 12 12 13 13 12 10 9 9 10 11 10 10 12 12 11 11 11 12 12 11 10 10 10 9 8 6 5 4 5 6 5 4 3 2 3 5
20 18 16 13 12 11 12 12 12 11 11 10 9 9 11 12 10 9 11 11 9 9 9 9 10 10 9 9 9 7 6 5 5 5 6 8 7 6 4 3 1 2
17 16 16 15 14 13 13 13 12 11 11 10 9 10 11 13 11 9 10 11 10 9 8 8 9 9 8 7 6 5 5 5 5 6 7 8 9 9 8 6 4 3
16 17 18 16 15 15 15 14 12 13 12 11 11 10 11 13 11 9 10 12 12 10 9 9 9 7 7 6 6 6 6 6 6 6 7 8 9 10 10 8 6 7
15 17 18 16 16 16 17 15 14 14 12 12 12 11 12 13 12 11 11 13 12 10 11 12 11 9 9 8 8 8 8 9 9 8 8 9 9 9 9 8 7 8
14 16 17 17 17 18 18 17 15 15 15 14 14 13 12 14 15 14 13 14 14 13 13 14 13 13 13 12 12 12 11 12 12 11 11 11 10 10 10 10 9 9
16 16 17 19 19 19 21 18 15 16 17 16 17 16 14 15 15 15 15 15 17 17 16 16 16 16 16 16 16 16 16 16 15 15 14 13 12 11 12 12 12 11
14 15 17 19 18 18 20 19 17 18 18 18 19 18 17 17 17 16 17 17 18 19 19 19 18 18 18 18 19 19 19 19 19 17 16 15 15 15 15 15 14 14
10 12 14 14 14 16 19 20 20 21 20 20 20 19 19 19 18 19 19 19 20 21 21 22 22 22 21 21 20 20 20 21 21 20 18 18 19 19 18 18 18 18
8 9 11 10 11 14 17 17 18 19 18 18 20 20 20 20 20 21 21 22 23 23 23 24 24 24 23 23 22 21 20 21 21 21 21 22 22 21 21 21 21 21
11 9 7 6 6 7 7 8 9 10 11 12 13 14 15 16 18 20 21 23 24 25 25 25 25 25 24 24 24 22 20 20 21 21 22 22 22 21 21 22 23 23
17 13 11 10 8 7 5 3 2 2 3 5 7 8 9 10 12 14 16 19 21 24 25 25 26 26 26 25 24 23 22 22 23 23 23 22 21 21 21 20 21 21
15 14 13 11 10 8 6 5 2 1 2 3 4 6 8 9 10 11 12 14 16 18 21 23 23 23 23 24 24 24 24 24 24 25 24 22 21 20 19 18 17 16
10 10 9 8 7 7 8 7 5 3 1 2 4 6 8 9 10 11 12 13 15 16 17 19 20 20 20 21 22 22 23 23 24 24 22 20 19 19 18 16 15 14
3 3 3 2 2 2 4 5 6 6 5 2 1 4 7 10 12 12 12 13 14 16 17 17 18 19 19 20 20 20 20 20 21 21 19 18 17 18 17 16 15 15
4 3 4 5 5 6 5 5 5 6 6 6 6 5 6 8 12 14 15 14 14 15 16 17 19 19 20 19 19 18 19 19 18 18 17 17 19 18 17 17 16 15
8 7 7 8 9 9 9 8 9 10 10 11 11 11 10 9 10 12 15 17 17 17 16 16 17 19 19 19 18 17 18 18 17 16 17 20 20 19 18 18 16 15

ECMWFNIL_850_spd_048.txt.gz
Wind_Speed
21 18 15 13 13 13 13 13 12 12 10 9 9 12 13 12 10 8 8 10 12 10 8 5 4 6 9 11 11 12 14 14 14 14 14 14 14 14 14 13 13 13
21 18 15 13 13 13 13 13 12 10 8 8 7 7 10 11 11 9 9 11 14 12 9 6 5 7 10 12 13 15 16 16 15 14 14 13 13 13 13 12 13 13
21 18 15 13 13 14 14 13 11 9 7 6 4 5 8 10 10 11 11 13 14 12 10 7 7 9 11 13 13 15 16 16 15 14 13 13 13 13 13 12 12 13
20 17 14 12 13 14 14 13 11 10 8 5 3 3 7 9 11 12 12 13 13 12 11 9 9 11 12 13 14 15 15 14 13 12 11 11 11 13 14 14 13 13
19 16 14 12 13 15 14 13 12 11 8 6 4 3 6 9 10 11 12 12 12 12 11 10 10 12 13 15 16 16 16 15 14 13 12 12 11 12 14 15 14 14
18 17 15 14 14 15 15 14 13 12 9 7 6 3 5 8 10 11 12 13 12 13 13 13 13 14 16 18 19 18 17 17 16 15 15 15 14 13 12 13 15 15
17 16 16 15 14 15 15 14 14 12 10 9 7 4 6 9 10 12 13 13 14 15 16 16 16 18 19 19 19 18 17 16 15 14 13 14 14 13 12 11 13 16
17 16 16 16 15 15 15 14 15 13 11 10 7 5 7 9 11 13 14 14 16 18 19 19 19 20 20 19 18 16 15 14 13 13 12 12 12 11 12 12 12 14
19 19 18 17 16 15 14 15 15 14 12 10 7 6 8 11 12 15 16 16 17 19 20 20 20 20 19 17 16 14 13 12 11 10 9 10 10 10 10 11 12 14
20 20 19 17 15 13 13 14 14 13 12 9 7 7 9 12 13 14 15 16 17 19 19 19 19 19 17 15 13 12 11 10 9 7 6 7 8 9 9 9 11 13
17 17 17 16 13 11 11 12 13 12 10 9 7 7 10 12 13 14 15 15 16 17 17 17 17 17 16 15 12 11 10 8 7 7 7 7 7 7 7 7 8 10
18 18 17 16 14 12 11 11 12 10 8 8 8 8 10 12 12 12 13 14 14 14 15 14 14 14 15 15 14 12 10 9 9 9 10 10 9 8 7 6 7 7
21 20 18 16 14 13 12 12 12 10 8 8 9 9 11 12 11 10 11 12 12 11 11 11 11 11 11 12 13 12 10 10 11 12 12 11 10 8 8 8 8 7
19 20 18 18 16 14 14 14 13 11 10 11 11 11 12 13 12 10 10 11 11 10 9 9 8 8 8 9 10 10 10 9 11 13 13 11 10 10 10 10 10 9
16 20 21 19 17 16 16 15 14 12 11 13 13 12 14 14 12 12 12 13 13 12 11 11 11 10 9 10 10 10 10 10 10 11 11 10 10 11 11 12 12 11
15 19 21 20 17 17 17 15 14 12 12 13 13 13 14 14 13 13 13 14 15 15 13 14 14 14 13 13 13 12 12 11 11 11 11 12 12 12 12 12 12 12
14 17 19 19 17 16 16 15 14 13 12 13 14 14 14 14 14 14 14 15 16 16 16 16 16 16 16 16 16 16 15 14 14 14 15 15 15 15 15 14 14 15
16 17 17 17 17 16 16 16 15 14 14 14 15 14 13 14 15 16 16 17 17 17 18 18 17 16 15 16 17 18 18 17 17 18 18 19 19 19 18 18 17 18
13 13 13 14 16 16 16 16 16 16 16 17 17 16 15 14 15 17 18 19 19 19 19 20 19 18 17 17 18 19 20 20 20 20 21 22 22 21 21 20 20 21
12 12 10 9 10 10 11 12 14 16 18 19 18 18 17 16 15 17 19 20 20 20 21 22 22 22 22 22 22 22 23 23 23 23 24 24 23 22 22 22 23 24
15 14 13 12 11 10 9 9 10 12 15 16 16 16 18 18 18 18 20 21 22 22 23 24 24 25 25 25 25 25 25 26 26 26 26 25 24 22 23 24 24 25
15 13 11 11 10 9 9 9 8 8 8 9 8 9 12 14 13 12 14 16 18 20 22 24 24 25 26 26 26 26 26 27 27 27 27 26 25 24 24 25 25 26
14 12 11 10 8 6 5 5 5 6 6 6 7 8 10 10 9 8 8 9 11 12 15 17 19 21 23 24 25 26 26 26 26 26 26 26 25 25 24 25 26 26
10 10 9 9 8 7 6 5 6 7 8 9 10 11 11 11 11 11 10 9 9 10 11 14 16 17 18 20 21 22 23 24 24 25 26 26 25 25 25 26 27 26
5 5 6 6 6 6 7 7 8 9 10 11 12 12 12 13 13 14 14 13 12 11 12 14 15 15 16 18 18 19 20 21 22 23 25 25 26 25 25 26 26 26
6 7 7 8 9 9 10 10 11 12 13 13 13 14 15 15 16 17 17 16 15 15 16 17 17 16 16 17 18 18 19 20 21 22 23 23 24 24 24 24 24 24

ECMWFNIL_850_spd_051.txt.gz
Wind_Speed
20 17 15 13 12 11 10 9 7 6 4 3 3 4 5 5 4 4 4 5 6 6 5 4 2 6 9 9 9 8 8 7 7 8 8 8 8 7 6 6 7 8
19 16 14 12 11 11 10 8 6 5 5 4 4 5 6 7 6 5 5 6 7 7 5 3 1 7 10 9 9 9 9 8 8 9 9 9 9 8 7 6 7 8
18 15 13 11 11 12 12 9 7 7 7 6 5 5 7 8 8 7 7 7 8 8 6 2 2 7 11 11 10 10 10 9 9 9 8 9 9 8 7 6 7 10
17 14 12 11 11 13 12 11 10 9 8 7 6 6 8 8 9 9 9 8 9 9 6 4 3 7 11 11 11 11 10 10 9 8 8 8 8 7 7 7 8 10
17 14 13 12 12 13 12 10 9 9 8 6 5 6 7 9 10 11 10 9 9 8 6 6 6 7 10 11 12 11 10 9 9 8 7 8 9 9 8 7 8 9
17 15 14 13 13 12 11 8 8 8 7 5 3 4 6 9 10 11 10 9 9 8 7 7 7 8 10 11 12 11 10 9 8 7 8 9 11 11 10 9 8 9
18 16 14 13 13 13 11 9 11 10 7 5 3 3 6 9 10 10 10 10 9 9 8 8 9 10 12 12 13 12 11 10 8 8 8 8 11 13 13 11 9 9
20 18 15 15 15 14 12 11 13 11 8 7 4 3 6 8 9 10 11 10 9 9 9 10 12 13 14 14 14 13 12 11 10 10 9 9 9 11 13 13 11 11
22 20 17 17 16 14 12 12 13 12 10 9 5 4 8 9 9 11 11 10 10 10 11 14 15 16 16 15 14 13 12 11 10 9 8 8 8 8 10 12 13 12
25 22 20 21 19 15 14 14 13 13 12 10 6 6 9 10 11 13 13 13 13 14 15 16 17 17 15 14 13 11 10 9 8 7 7 7 7 7 8 9 10 11
28 24 22 23 20 19 17 15 13 13 12 10 7 7 10 12 13 15 15 15 16 17 18 18 17 16 15 14 12 10 10 9 7 7 6 6 6 6 7 7 7 7
28 24 23 21 18 17 16 12 12 13 13 11 8 8 11 13 14 15 16 16 17 18 19 18 18 16 15 13 12 10 9 8 7 6 6 6 6 6 6 6 6 7
27 26 26 24 17 15 14 12 12 14 13 11 9 9 12 14 15 15 16 16 16 17 17 17 17 16 14 13 11 10 9 8 7 7 7 7 7 7 7 7 7 8
28 28 27 24 17 15 16 15 14 15 13 11 10 11 12 14 14 15 14 14 14 14 13 13 13 13 13 12 11 10 10 10 9 10 10 10 10 9 9 8 9 9
31 30 27 23 20 20 21 19 18 18 15 12 11 12 13 13 13 12 11 11 12 12 11 11 10 11 11 10 10 11 11 11 11 11 12 12 11 10 10 10 10 11
30 27 24 24 25 23 22 22 21 20 16 13 13 13 14 14 13 11 11 11 11 12 12 11 11 11 10 10 10 10 11 12 12 11 11 12 11 11 12 11 11 12
25 24 22 24 26 23 22 24 24 20 17 15 15 16 15 15 15 13 12 13 13 13 13 13 14 13 13 13 13 13 14 14 14 13 12 12 13 13 14 13 14 14
24 24 22 22 24 22 21 23 22 19 16 16 18 18 17 17 16 14 13 14 14 14 15 15 15 15 15 16 16 17 17 17 17 17 16 16 16 16 17 17 17 17
21 23 21 21 22 19 19 19 18 19 19 18 18 18 17 16 16 15 14 15 16 16 16 16 16 16 16 16 16 17 18 19 20 20 20 20 19 20 20 20 20 20
16 19 19 19 20 20 19 18 17 19 19 16 14 15 15 15 15 15 15 16 17 17 17 17 17 17 17 17 16 16 17 19 20 21 22 22 23 23 23 23 23 23
14 15 15 16 17 18 18 18 17 16 15 14 14 14 14 14 15 15 15 15 16 17 17 17 17 18 19 19 19 18 18 19 21 22 23 24 25 25 25 24 25 25
15 15 15 15 15 15 15 15 14 14 13 14 15 16 15 16 16 16 17 17 17 17 18 17 16 17 19 20 21 22 22 23 23 24 25 26 26 26 26 26 26 26
15 14 14 14 13 13 13 13 12 12 13 14 14 15 15 16 16 17 18 18 17 16 16 16 14 14 14 16 18 21 23 26 27 29 30 31 31 30 29 28 28 28
12 11 11 10 10 10 10 9 10 10 11 11 11 12 13 13 13 14 14 15 14 14 14 15 14 13 13 14 15 15 18 21 24 27 29 31 31 31 30 29 29 29
7 6 6 5 5 6 6 6 6 7 7 7 8 9 9 10 11 11 12 12 13 14 15 17 17 16 15 16 15 15 14 15 17 20 23 24 25 26 26 27 28 29
1 3 4 3 3 3 3 4 5 6 7 7 8 9 10 11 12 12 13 14 15 16 17 19 20 20 19 19 18 17 16 15 16 18 19 20 20 21 22 23 24 25

ECMWFNIL_850_spd_054.txt.gz
Wind_Speed
15 12 10 8 6 6 7 7 7 7 6 6 6 6 6 6 5 4 4 4 3 2 1 2 4 7 7 6 5 5 4 4 4 4 4 4 3 3 3 4 5 7
15 13 11 8 7 8 8 7 7 7 6 6 6 5 5 5 4 4 3 3 2 2 1 2 3 8 9 7 7 6 5 4 4 4 4 3 2 2 2 2 3 5
14 13 11 9 8 9 9 8 7 7 5 5 5 4 4 5 5 4 3 2 2 2 1 2 3 8 10 9 8 7 5 4 4 4 3 2 2 2 2 3 3 5
14 13 11 9 9 9 8 8 8 8 6 4 4 4 4 5 5 5 3 3 2 2 1 2 3 8 10 10 9 8 6 4 4 4 2 2 2 2 2 4 4 5
15 14 12 11 9 8 9 9 9 8 7 5 4 3 4 4 5 5 4 3 3 3 3 3 4 6 9 10 10 9 7 5 4 3 1 1 2 2 3 4 5 5
16 15 13 11 9 8 9 10 9 9 8 7 5 4 4 4 5 5 5 4 5 5 5 5 5 6 8 9 9 9 7 5 4 3 2 1 2 2 3 4 4 4
18 17 14 11 9 9 10 11 10 9 8 6 5 3 4 4 5 5 5 5 6 7 8 7 6 7 8 9 9 9 8 6 4 4 4 4 4 3 4 4 4 4
18 17 15 13 11 12 12 12 11 8 7 5 3 3 3 4 5 6 6 6 7 8 9 9 8 9 9 10 10 10 8 7 5 5 5 6 7 7 5 5 5 4
19 18 17 15 13 13 13 12 11 8 7 5 2 2 2 4 5 6 7 7 8 9 10 10 11 11 11 12 12 12 10 8 7 7 7 7 8 9 8 6 6 5
20 20 19 16 14 14 12 10 9 7 6 4 3 2 3 5 6 7 8 9 9 10 11 12 13 13 13 14 14 13 12 10 10 9 8 7 7 7 8 8 7 7
21 22 20 18 16 14 12 9 8 7 6 5 4 4 4 6 7 8 9 10 10 11 12 13 14 15 15 14 13 13 12 11 10 9 8 7 7 6 6 7 8 8
23 23 22 20 18 16 13 10 8 7 6 6 5 4 6 7 8 9 10 11 12 13 14 15 15 15 15 14 13 12 11 10 10 9 8 8 7 7 6 6 7 7
24 25 24 22 21 20 17 13 10 9 8 7 5 4 5 7 9 10 11 11 13 14 15 16 16 15 14 13 12 12 11 10 9 8 8 7 7 6 6 6 6 6
24 25 25 25 23 20 19 17 13 12 11 8 4 3 4 7 9 10 11 12 13 15 16 17 16 15 13 12 11 11 10 8 7 6 5 5 6 6 7 6 5 5
22 24 26 26 23 20 20 21 17 14 12 8 5 3 3 6 9 9 9 11 12 15 16 16 15 14 12 11 10 9 8 7 6 6 5 5 6 7 8 7 6 6
21 24 26 24 22 20 21 22 20 15 12 10 9 7 5 7 9 9 9 10 11 12 13 14 13 12 11 10 9 8 8 7 7 7 6 7 7 7 7 6 6 7
24 26 25 22 21 19 18 20 20 18 15 14 13 11 10 10 11 10 10 10 10 11 11 11 11 10 9 9 8 8 8 8 8 8 8 8 8 8 8 8 9 10
22 23 23 23 22 19 16 17 20 21 21 18 15 13 14 13 13 12 12 11 11 12 12 12 11 10 9 9 10 10 10 11 11 12 12 12 12 12 12 12 13 13
18 18 21 22 21 19 18 18 21 24 23 20 17 16 16 15 14 15 15 14 14 14 15 15 14 13 12 12 12 12 13 14 14 15 16 16 16 16 16 16 16 16
18 18 18 18 18 18 17 18 20 22 21 19 18 17 16 15 15 16 16 16 16 16 16 16 16 15 14 14 14 14 14 15 16 16 17 17 17 18 18 19 19 19
18 17 16 15 15 15 15 16 18 20 18 15 15 16 16 16 16 16 16 16 16 16 17 17 17 17 16 16 16 15 15 15 16 16 17 18 19 19 20 21 21 22
17 16 15 13 13 13 14 16 17 18 17 15 15 16 17 17 17 16 16 16 16 16 16 16 17 18 18 18 18 18 18 17 17 18 19 20 20 21 22 22 23 24
15 14 14 13 12 12 14 16 16 16 17 17 16 17 18 18 18 17 16 16 16 16 16 17 17 18 18 19 20 20 20 20 21 21 22 22 22 22 23 24 25 25
16 15 14 13 12 11 12 12 13 13 14 15 14 15 15 15 15 15 16 16 16 17 17 17 17 18 17 18 18 19 19 20 21 22 23 23 23 22 22 22 22 23
12 12 12 11 11 11 11 10 10 9 9 10 11 12 12 12 11 12 12 13 14 14 15 15 15 15 15 16 16 17 17 18 18 19 19 19 20 20 19 17 17 17
6 6 5 5 5 6 6 5 4 4 4 5 6 8 9 10 11 10 11 12 12 12 13 13 14 14 15 15 16 17 17 18 18 19 19 19 20 20 20 19 18 17

ECMWFNIL_850_spd_057.txt.gz
Wind_Speed
18 16 14 12 12 12 12 12 13 13 13 12 11 11 11 10 10 10 10 8 6 5 4 6 8 8 8 7 7 7 7 6 5 4 4 4 4 3 3 3 5 7
18 16 14 12 12 12 11 11 12 13 13 12 11 10 10 9 9 9 9 8 6 5 4 5 8 9 8 7 7 8 9 8 7 7 6 6 6 6 4 4 4 6
18 16 14 12 11 12 11 11 12 12 12 12 11 10 9 9 8 8 8 8 7 6 4 5 8 10 8 7 8 9 10 9 8 8 8 7 7 7 6 5 5 6
18 15 13 11 10 10 11 12 13 12 12 12 11 10 9 8 8 8 7 7 7 6 4 5 8 11 9 8 9 10 10 9 8 8 7 7 8 8 8 8 7 8
17 15 13 12 11 11 12 12 13 13 12 12 11 10 9 8 8 7 7 7 7 7 5 5 8 11 10 9 9 10 9 8 8 8 7 7 8 9 10 10 9 10
16 15 15 13 12 12 12 12 12 12 12 11 10 9 9 8 8 7 7 7 8 8 6 5 8 11 11 10 10 10 9 8 7 8 8 7 8 10 11 10 10 10
17 16 16 14 13 12 12 12 13 12 11 10 9 8 8 9 8 7 7 8 8 8 7 6 8 11 11 10 10 11 9 8 7 7 7 8 8 9 10 10 9 9
18 17 16 15 13 12 12 13 13 13 11 9 8 8 8 9 8 8 8 8 9 9 9 8 8 10 11 11 11 11 10 8 7 6 7 8 8 8 8 9 8 7
18 17 17 15 13 12 13 14 14 13 12 9 7 6 7 8 9 9 8 9 10 10 10 9 8 10 11 12 12 11 10 8 7 6 7 9 9 7 7 8 7 6
19 18 17 15 13 12 13 15 15 13 12 10 7 5 6 7 7 8 9 9 10 11 11 10 9 10 11 12 12 12 10 9 9 9 10 9 9 8 7 6 5 5
19 18 18 16 13 12 14 16 15 13 11 10 7 5 5 6 6 7 9 9 10 11 11 11 11 11 12 13 13 12 12 11 11 11 10 10 9 8 6 5 5 5
18 18 18 16 14 14 15 16 15 14 12 10 8 6 4 4 5 6 8 9 11 12 13 12 13 13 14 14 14 13 12 11 10 10 9 9 8 7 6 5 5 5
17 18 19 17 15 15 15 15 16 15 13 11 8 6 5 4 4 6 9 10 11 14 15 14 14 15 15 15 15 14 13 11 10 9 8 8 7 6 6 6 5 4
17 19 19 18 17 17 16 15 16 16 15 12 10 8 6 5 4 6 9 11 12 15 15 15 16 16 16 15 14 13 13 11 10 9 8 7 7 7 7 6 5 4
19 21 21 20 20 19 18 16 16 16 16 13 10 9 8 7 6 6 9 11 12 14 15 15 16 16 15 14 13 12 11 11 10 9 7 7 6 6 7 7 6 5
21 22 22 22 21 21 21 19 17 16 16 14 11 10 9 8 8 7 8 10 11 12 13 14 14 15 14 13 12 11 10 9 9 8 7 6 4 4 5 6 6 5
21 22 22 21 22 22 20 18 17 14 13 13 12 10 10 9 9 8 8 9 10 11 12 12 12 13 13 12 12 11 10 9 9 8 7 6 5 5 5 6 6 6
19 21 21 21 21 20 18 16 17 18 17 16 15 13 11 10 10 10 9 9 9 10 11 12 12 13 13 13 12 12 11 10 10 9 9 8 8 8 7 7 8 8
17 18 18 18 18 18 16 13 13 16 18 16 15 14 13 12 10 9 10 9 10 10 11 12 14 14 14 14 14 13 13 13 13 12 12 12 12 11 11 11 11 11
12 14 15 17 16 15 13 10 11 15 17 16 15 15 16 16 13 11 11 11 11 12 12 13 14 15 15 15 15 15 15 15 15 14 14 15 15 15 15 15 15 15
9 11 12 14 15 14 12 11 12 15 15 16 16 16 17 16 14 13 12 12 12 12 13 13 15 16 16 16 15 15 15 15 16 16 16 17 17 17 17 17 18 17
11 12 11 11 11 11 11 10 11 12 13 15 15 15 13 13 13 12 12 12 12 12 12 13 14 15 16 17 16 16 16 17 17 17 18 18 18 18 18 18 18 18
11 12 11 9 8 7 8 8 8 10 11 12 13 14 14 13 12 12 13 13 13 13 14 14 15 15 16 17 17 18 18 18 19 19 19 19 19 19 20 20 20 20
11 10 9 7 6 7 7 7 8 8 8 8 10 13 13 13 13 12 12 13 13 13 13 12 12 13 14 16 17 18 18 18 18 19 19 19 19 20 20 20 20 21
12 10 9 8 7 7 7 7 7 7 7 7 8 8 9 10 10 10 10 10 10 11 12 12 12 13 14 14 15 16 16 16 17 17 17 17 17 18 18 18 18 18
12 10 9 8 8 8 7 6 5 5 5 5 6 6 6 6 7 7 8 9 9 9 10 12 14 14 14 14 14 14 14 15 15 15 16 17 17 18 18 17 17 18

ECMWFNIL_850_spd_060.txt.gz
Wind_Speed
19 17 13 12 13 15 17 16 14 14 13 12 13 13 13 13 13 12 10 10 10 9 9 9 9 9 8 8 8 7 7 7 7 7 7 7 6 6 7 8 8 8
20 18 14 13 14 15 17 17 15 15 14 13 14 13 13 14 13 12 11 11 10 10 9 10 11 10 10 9 8 7 7 8 8 8 9 9 8 7 7 8 9 9
21 19 16 15 15 16 17 17 16 16 16 15 15 14 15 16 14 12 12 11 10 9 9 11 12 12 10 9 9 8 8 8 8 8 9 9 9 8 8 8 9 9
22 19 17 16 15 17 18 18 16 16 17 16 16 15 15 15 14 12 12 11 10 9 8 11 13 13 12 11 10 10 10 11 10 10 9 9 9 9 9 9 9 10
21 20 18 16 16 17 18 18 16 15 17 16 16 15 15 14 14 13 13 12 10 8 8 11 14 14 13 13 13 13 12 12 12 11 10 11 10 9 11 11 10 11
22 21 19 17 17 17 18 18 15 14 15 15 15 15 15 14 13 13 13 12 10 9 8 11 14 14 14 14 14 13 12 11 12 11 10 11 12 12 14 14 13 13
23 21 20 18 16 16 17 17 16 14 14 14 15 15 15 14 13 12 12 12 11 9 8 11 14 15 15 14 14 13 12 11 11 10 9 11 12 12 14 15 13 13
23 22 20 18 17 17 17 16 16 15 14 14 15 15 15 14 13 13 13 12 11 9 9 11 14 15 15 14 13 12 12 11 10 9 10 11 11 11 12 15 15 15
23 22 21 19 18 17 16 16 16 15 14 13 14 15 15 14 13 13 14 13 12 10 10 12 14 15 15 13 12 11 11 10 10 10 11 11 11 10 10 12 14 15
22 22 21 20 19 17 16 16 16 16 14 13 12 14 14 14 13 13 14 13 13 11 11 12 14 15 15 13 13 11 10 10 11 12 12 10 10 10 10 10 12 13
22 21 21 21 19 17 16 16 16 16 15 12 12 13 14 14 13 13 13 13 13 11 11 12 13 15 15 14 14 13 12 11 12 13 13 12 11 11 10 10 10 10
22 20 21 21 19 18 18 18 17 17 15 12 12 12 13 13 13 13 13 12 11 11 10 11 13 14 15 15 15 14 14 13 14 14 13 13 12 11 10 10 9 9
23 22 22 21 19 18 19 19 18 17 15 13 11 11 11 12 12 13 12 11 10 10 10 11 13 15 16 16 15 14 14 14 14 14 13 12 11 10 9 9 8 7
24 25 25 23 20 19 20 19 18 17 16 14 12 11 11 10 10 12 12 11 11 10 10 12 14 15 16 15 13 13 13 13 12 12 10 10 10 9 9 8 6 6
23 24 24 22 21 21 21 19 18 18 17 15 13 13 12 11 9 10 10 11 11 11 11 12 13 13 16 15 13 12 12 10 10 10 9 8 8 8 8 8 6 6
23 23 23 22 22 22 21 20 20 19 18 15 13 13 13 12 10 10 9 9 10 10 11 12 14 16 19 19 16 14 12 9 10 10 8 8 7 7 8 8 8 8
23 23 24 24 24 24 23 22 21 20 19 16 14 12 12 11 11 11 11 11 11 11 11 13 16 19 19 19 18 16 14 12 10 9 9 9 8 7 7 8 9 9
19 20 22 23 23 24 24 23 23 21 18 16 14 13 12 11 10 11 12 12 12 13 13 14 16 17 17 17 17 15 14 13 11 10 10 10 9 9 8 8 9 10
16 18 20 21 22 22 22 21 20 16 14 15 14 13 12 12 10 10 9 10 11 13 13 13 13 14 16 16 15 15 14 13 12 12 12 11 10 10 10 9 10 10
14 15 17 19 19 19 17 15 16 16 16 17 16 14 13 13 12 11 10 9 10 10 9 9 11 12 13 15 15 15 14 14 14 14 13 13 13 13 12 12 13 12
11 12 13 14 15 14 13 12 13 14 15 16 15 14 14 14 13 13 12 11 11 10 10 10 10 11 12 14 14 14 14 14 14 14 14 14 15 15 16 16 17 17
9 9 9 10 10 10 10 10 10 12 13 13 13 12 13 13 13 14 15 13 13 14 15 15 15 14 13 13 14 14 14 14 14 14 14 15 16 16 17 18 19 19
10 11 11 11 10 9 8 8 10 11 12 12 12 12 13 13 13 14 15 15 14 14 15 15 15 14 14 13 14 14 14 14 14 15 15 16 17 18 19 20 21 22
12 12 12 11 11 9 8 8 9 10 10 10 11 12 13 13 12 11 12 13 13 12 13 13 13 13 13 13 13 13 14 15 15 16 17 18 19 19 20 19 20 22
13 12 11 10 10 9 8 8 9 9 9 9 10 10 10 10 11 10 10 10 10 11 11 12 12 11 11 12 13 13 14 15 16 16 17 18 18 18 18 16 16 17
13 12 12 11 10 9 8 8 7 7 6 7 7 6 6 7 8 9 9 9 9 10 12 12 12 12 13 14 16 16 16 17 17 16 16 16 16 16 16 15 15 15

ECMWFNIL_850_spd_063.txt.gz
Wind_Speed
22 21 19 17 15 16 16 14 13 13 12 11 10 11 11 11 13 12 10 11 10 9 9 8 7 6 6 7 7 6 6 6 6 6 6 7 6 7 9 10 10 9
25 23 21 19 17 17 18 16 14 13 12 10 11 11 11 12 12 11 11 10 8 9 9 8 9 7 5 6 7 6 6 6 6 6 6 7 6 7 8 9 11 11
26 26 23 20 18 18 19 17 14 13 12 11 11 11 12 13 12 10 9 8 7 8 10 10 9 7 5 5 6 6 6 6 6 6 6 7 6 6 8 8 10 12
28 27 24 21 18 17 19 17 14 14 13 12 12 12 12 13 12 10 9 9 7 8 10 11 9 7 6 5 5 5 5 5 6 6 6 7 7 6 7 8 10 10
30 28 25 23 19 17 18 17 15 14 14 13 13 12 13 13 12 10 10 9 8 7 10 11 10 8 8 7 6 6 6 5 6 6 5 6 6 7 7 8 11 11
32 29 26 24 21 19 18 17 15 15 14 14 13 12 13 13 12 11 11 10 8 7 8 10 10 10 9 8 8 7 7 6 6 5 4 4 6 7 8 9 11 12
33 29 27 25 22 20 19 17 16 15 15 14 13 12 12 13 12 11 11 10 8 7 8 10 11 10 10 10 9 8 7 7 7 6 5 5 5 6 8 9 10 10
32 28 28 25 23 21 20 18 16 16 16 15 12 12 12 12 12 11 11 10 9 8 8 10 11 11 11 10 10 10 9 8 7 7 6 6 6 7 8 8 10 11
31 29 29 26 22 22 20 18 17 16 16 15 13 13 12 12 11 12 11 10 10 9 9 10 11 11 11 11 11 11 10 9 9 8 8 7 8 8 9 9 11 12
30 30 30 26 23 22 21 19 17 16 15 14 13 12 12 12 11 11 11 11 10 9 9 11 11 11 11 11 11 10 10 10 10 9 9 8 8 9 10 10 11 12
32 31 29 27 24 22 22 20 17 16 14 14 14 13 12 12 12 12 11 11 10 10 10 11 11 11 11 10 10 10 9 10 10 10 10 9 8 9 10 10 10 11
30 28 25 25 23 22 22 19 17 16 14 13 13 13 12 12 12 12 11 11 11 10 10 10 11 11 11 10 10 9 9 9 10 11 10 9 9 9 9 10 9 10
28 27 24 23 22 21 21 19 18 18 15 13 12 12 12 11 11 12 12 11 10 10 10 10 11 11 10 10 10 10 10 10 10 11 10 10 10 9 9 9 9 9
27 27 25 23 22 20 19 19 18 17 15 12 12 12 11 10 11 11 11 10 10 10 10 10 10 11 11 11 10 10 10 10 10 10 10 10 9 8 9 9 8 8
26 27 26 24 22 20 19 19 18 17 15 13 12 12 11 10 10 11 10 10 10 10 10 11 13 14 15 15 13 12 10 10 10 9 9 9 9 8 8 8 7 8
26 27 26 24 21 19 20 20 18 17 16 14 12 11 10 9 9 10 9 8 9 10 12 14 16 17 17 17 16 14 12 10 9 9 9 8 8 7 7 7 7 7
23 25 25 23 21 19 19 19 18 17 16 15 14 12 11 10 9 10 10 9 11 13 15 17 17 17 19 19 18 16 14 12 10 9 8 8 7 7 7 7 7 7
20 23 24 22 20 20 20 20 20 19 18 18 17 15 13 11 10 13 15 16 16 17 16 17 17 17 19 20 19 18 16 13 9 7 7 7 7 7 7 6 7 7
20 22 25 23 22 22 20 20 22 22 20 18 16 14 13 11 10 13 16 17 16 14 13 14 15 16 17 19 19 18 16 13 9 5 6 7 6 7 7 7 7 8
20 21 23 24 24 23 20 20 21 20 19 17 14 13 13 12 11 11 13 13 12 10 9 10 10 12 14 15 15 14 13 12 9 7 6 6 6 7 8 8 7 8
19 19 20 21 21 20 19 19 19 17 14 12 11 12 12 12 11 11 11 9 8 7 7 8 9 9 10 10 10 11 10 10 10 11 9 8 7 8 9 9 10 10
17 17 18 19 19 18 16 15 17 16 11 9 10 12 13 13 12 12 12 10 9 9 9 9 9 9 8 8 8 8 8 10 12 12 10 8 8 9 9 9 10 11
16 16 17 16 15 16 16 16 17 16 14 13 12 12 12 13 13 13 13 13 12 12 11 10 11 11 12 12 12 12 12 14 15 13 10 9 9 9 10 11 11 14
15 15 16 15 14 15 15 15 14 14 13 13 12 11 11 13 14 14 14 14 14 13 11 11 13 14 16 18 19 18 18 18 16 11 10 11 10 9 11 13 14 17
15 15 15 16 16 15 14 13 12 11 11 11 10 10 11 13 15 15 15 15 14 13 12 13 15 16 17 18 20 20 19 18 16 12 12 13 13 11 11 12 12 15
16 16 15 15 15 14 13 12 11 10 10 9 9 9 10 11 12 12 12 12 11 10 10 11 12 12 13 14 16 17 17 17 17 17 15 15 15 15 16 15 12 13

ECMWFNIL_850_spd_066.txt.gz
Wind_Speed
27 26 25 25 23 20 19 17 16 16 14 13 13 12 11 10 10 9 8 8 8 7 6 6 7 7 6 6 6 6 4 4 6 5 5 6 7 8 8 9 10 10
29 28 26 27 25 21 20 17 16 16 15 14 13 12 11 11 11 10 10 10 8 7 6 5 6 6 6 6 7 7 6 5 6 6 6 7 7 8 9 10 11 12
31 29 28 27 24 23 21 18 16 16 16 15 12 11 11 12 12 12 11 8 6 6 5 5 5 5 5 6 7 7 6 7 6 6 7 6 7 8 9 11 12 13
32 30 28 26 24 24 22 20 18 17 16 15 12 12 12 12 13 13 10 8 6 7 7 6 6 6 3 4 6 5 6 7 6 7 7 7 7 7 10 11 12 13
32 31 29 26 24 23 22 22 20 17 16 15 13 14 13 12 12 10 9 9 9 8 8 7 8 8 5 4 5 5 6 6 7 6 6 8 8 7 9 12 12 13
32 31 30 27 25 23 22 22 20 17 17 16 16 15 13 11 10 8 9 9 8 7 9 9 8 9 7 5 5 6 6 6 6 5 4 6 8 8 9 11 13 13
32 32 30 28 25 23 22 22 20 19 17 16 17 15 13 13 11 9 9 9 5 5 8 9 9 9 8 7 6 8 7 5 6 5 4 4 6 8 8 10 13 13
33 32 30 28 25 23 23 22 21 20 17 15 15 13 13 14 12 11 10 7 5 6 6 8 8 8 9 7 6 8 8 7 7 6 6 5 5 6 8 11 12 11
33 31 29 28 25 24 24 22 21 22 19 16 14 13 13 14 12 11 10 8 7 6 6 9 8 8 9 8 7 8 8 8 7 6 7 6 7 8 8 11 12 11
32 31 29 28 26 24 25 23 21 22 20 16 15 13 14 14 12 11 11 9 8 7 7 9 9 9 9 8 8 8 8 8 7 6 7 6 6 9 9 9 13 15
32 31 29 28 27 25 24 24 21 20 18 16 15 14 14 14 11 10 10 9 8 7 7 9 9 9 9 8 8 8 8 8 7 7 8 6 5 8 10 10 13 15
32 32 29 27 27 26 24 23 21 18 17 17 15 14 15 14 12 11 11 9 9 8 7 8 9 8 8 7 7 8 8 8 9 9 8 8 7 6 7 10 12 12
32 31 29 26 26 25 23 22 19 17 17 17 16 15 16 16 14 13 11 9 9 8 7 8 9 8 8 8 7 8 8 8 10 10 8 9 10 6 6 9 10 9
31 30 29 26 24 24 23 21 19 17 15 16 16 15 15 14 12 12 12 10 8 8 8 10 11 12 12 10 8 8 8 9 11 10 9 11 11 8 9 10 9 9
30 28 29 26 23 22 21 19 19 18 15 14 15 14 13 13 11 11 12 10 9 11 12 13 14 13 13 11 10 10 9 10 11 10 10 11 10 10 11 10 9 10
31 28 28 26 23 21 20 19 20 20 18 16 16 15 14 13 11 11 11 10 13 15 14 14 14 13 13 13 12 11 10 10 10 9 10 10 9 9 11 10 7 9
29 29 28 25 23 22 21 21 20 19 18 17 16 15 15 14 14 15 14 14 16 16 14 14 14 13 14 14 13 13 12 11 10 8 8 8 7 6 8 8 5 5
24 26 27 25 24 25 24 23 23 22 20 19 18 18 17 16 17 18 16 16 16 15 14 15 15 13 15 15 14 14 12 12 11 9 7 7 5 4 4 5 4 4
23 25 29 29 30 30 28 28 28 27 26 24 24 23 22 20 20 18 17 16 15 14 13 15 15 14 15 16 15 14 13 13 13 11 9 6 5 4 4 3 4 4
25 28 30 31 32 33 32 30 29 28 27 26 26 24 21 20 19 18 16 15 13 11 11 13 14 14 15 16 15 14 14 14 13 12 11 9 6 4 4 4 3 5
24 26 27 28 30 31 30 29 27 25 25 24 21 18 16 15 15 16 15 14 11 9 8 9 11 12 14 15 16 16 14 13 12 10 8 7 5 3 5 6 6 7
22 23 23 24 26 27 26 25 24 22 22 21 18 15 14 13 13 13 14 14 12 8 6 6 7 8 10 13 16 17 16 15 13 10 6 4 4 5 7 10 10 8
21 22 20 20 22 22 21 21 20 18 17 15 14 14 14 13 12 11 12 13 12 11 9 8 7 7 9 11 12 13 13 14 14 12 9 7 8 9 13 16 15 12
15 18 19 19 20 20 20 20 19 16 13 11 10 11 12 12 12 11 11 12 12 12 12 11 10 10 10 11 11 10 12 13 14 15 15 13 12 14 17 18 17 15
11 13 14 14 15 15 15 15 14 14 13 10 7 7 9 9 9 9 10 10 10 11 12 12 12 11 10 10 10 11 12 13 15 17 17 16 15 15 14 13 14 16
13 12 13 12 12 12 12 11 10 9 8 6 6 6 6 5 6 7 8 8 9 10 12 12 13 13 12 10 11 14 16 17 19 20 20 20 19 17 15 14 16 18

ECMWFNIL_850_spd_069.txt.gz
Wind_Speed
21 21 21 22 21 21 21 22 25 23 21 21 19 16 18 19 17 14 14 13 12 12 13 13 12 11 11 11 11 11 11 12 12 11 11 12 12 13 14 13 13 13
21 21 22 22 20 21 20 21 24 24 21 19 17 15 16 17 16 13 13 14 12 11 12 12 12 11 11 11 11 11 11 11 11 11 12 12 12 13 13 13 14 14
21 21 22 22 20 21 20 19 22 21 19 18 17 15 15 15 15 14 14 14 12 11 11 12 12 11 11 12 11 11 10 11 10 11 12 12 11 11 13 13 14 15
22 21 21 21 21 21 19 19 21 20 19 19 17 15 16 15 15 14 13 12 12 10 10 11 12 11 11 12 11 10 11 11 11 12 12 11 10 10 13 14 14 15
23 21 21 21 21 22 20 19 21 20 19 18 16 16 16 15 14 14 13 12 11 9 10 12 12 11 10 11 11 11 12 12 12 12 11 11 10 10 12 14 14 15
22 22 22 22 23 22 20 20 21 21 19 17 16 16 14 13 14 15 15 13 10 9 12 15 13 10 9 10 12 12 12 11 11 10 10 11 11 11 12 14 15 15
22 23 23 23 24 23 21 21 21 21 20 17 17 16 13 13 15 16 15 12 9 10 15 16 14 12 10 11 13 13 11 11 10 9 9 9 11 11 11 14 15 15
24 25 24 25 25 23 23 22 21 21 20 18 17 16 13 14 15 14 12 9 8 13 17 16 15 13 11 12 13 12 12 10 8 9 8 6 9 10 11 15 16 15
26 27 26 26 25 24 23 22 21 21 21 19 18 16 14 15 14 12 10 8 9 13 15 16 16 15 12 12 13 12 10 5 7 11 8 5 6 9 13 16 16 14
28 29 28 27 26 24 24 23 22 21 20 19 17 16 18 17 13 11 10 9 9 11 13 15 15 16 14 12 13 13 9 6 9 12 8 4 7 9 12 15 15 14
30 31 29 28 27 25 26 25 22 21 20 17 16 18 20 17 13 12 11 10 8 8 13 14 12 14 14 11 13 14 10 10 12 10 7 7 9 9 11 14 15 15
33 34 32 30 28 27 28 26 23 22 19 16 16 20 20 15 13 14 13 11 8 7 12 13 10 12 12 8 12 14 10 11 12 9 9 10 9 9 11 14 17 17
35 36 33 31 29 29 28 25 23 22 19 17 18 21 20 15 15 16 13 12 10 9 13 14 11 13 12 8 11 13 10 12 13 9 10 11 8 7 10 15 17 18
35 35 34 32 29 29 28 24 23 22 20 19 20 21 19 17 17 17 13 13 14 12 13 13 12 13 12 10 10 10 10 13 13 10 11 12 10 8 11 14 15 16
34 33 33 31 29 29 27 24 23 22 21 20 20 21 20 18 19 18 15 15 15 14 13 13 12 12 12 11 10 10 12 14 12 11 13 13 12 11 12 14 12 12
34 33 32 30 29 29 26 23 22 22 22 20 20 20 19 19 20 20 16 15 14 13 14 13 12 12 12 12 11 11 13 14 12 13 13 12 14 14 12 13 13 11
32 34 33 31 29 27 25 22 22 22 21 21 20 20 20 20 22 21 17 16 15 13 14 14 13 13 12 12 12 11 13 15 13 13 13 11 12 12 10 11 11 10
32 33 33 31 28 26 26 25 24 23 23 23 23 23 22 21 22 21 17 16 16 14 14 14 14 13 12 13 13 12 13 15 14 14 14 11 11 13 12 10 10 10
32 33 31 30 28 27 28 27 26 25 26 25 24 24 23 22 22 21 17 16 17 15 14 15 14 14 14 14 15 14 13 15 16 16 16 15 14 15 15 12 12 13
32 32 30 31 30 29 29 29 28 27 26 26 25 25 24 23 22 21 17 17 17 15 14 15 15 14 14 14 15 15 14 15 17 16 15 16 15 13 13 13 13 13
29 30 29 30 31 31 31 30 28 27 27 26 26 25 24 23 21 20 18 16 16 15 14 14 14 13 14 14 14 15 15 16 17 16 14 14 12 11 9 8 8 8
26 26 27 28 28 29 30 29 28 28 27 27 27 25 23 22 20 18 17 16 15 14 13 12 13 13 13 13 13 13 15 16 16 16 15 13 10 10 8 6 5 4
27 28 27 27 27 26 26 27 29 31 28 27 27 24 21 19 18 16 15 14 13 12 11 10 11 12 12 13 13 13 14 15 15 16 16 13 9 9 10 9 7 6
20 25 28 29 29 28 28 29 30 30 26 23 23 22 18 16 15 14 13 12 11 10 10 10 10 11 12 13 14 14 14 15 15 15 14 13 12 13 12 11 10 9
13 15 19 24 26 26 27 27 26 24 20 17 16 15 15 14 12 12 11 11 10 10 10 11 11 11 12 13 14 14 13 12 12 12 11 12 14 14 13 12 12 11
12 10 11 14 16 17 17 17 16 15 12 10 8 7 9 10 10 9 9 9 9 10 10 11 11 11 12 13 13 13 13 12 11 10 11 12 13 13 13 13 13 13

ECMWFNIL_850_spd_072.txt.gz
Wind_Speed
21 20 19 19 17 17 18 19 21 23 24 23 22 20 19 19 17 17 18 18 17 17 16 15 16 15 16 16 15 15 16 15 15 15 15 15 15 15 14 14 14 15
20 20 19 18 17 18 19 20 23 25 24 22 21 19 19 18 17 17 17 18 17 18 17 16 16 15 15 16 16 16 16 15 15 15 15 15 15 15 15 15 14 14
18 20 19 17 18 20 21 22 25 25 23 23 21 19 19 19 18 17 17 17 17 17 17 16 16 16 16 16 16 16 15 15 15 15 15 15 15 15 15 14 14 14
17 19 19 18 18 20 22 24 26 23 22 24 22 19 20 21 20 18 18 17 17 17 16 17 17 17 16 15 15 15 14 14 14 14 15 15 13 13 14 14 14 14
16 18 18 18 19 21 23 25 25 22 21 22 20 19 21 23 21 19 19 18 16 16 16 16 17 17 16 15 15 14 14 15 14 14 15 14 13 14 15 15 15 15
14 16 17 19 20 22 23 25 24 21 20 20 19 20 21 22 21 19 19 18 16 16 17 17 17 16 16 16 15 14 14 15 15 15 15 14 13 14 15 16 16 15
15 17 18 20 22 24 24 24 24 22 20 20 20 20 20 21 20 19 19 17 16 16 18 18 17 16 16 16 16 15 15 15 14 14 14 13 13 14 15 16 16 16
17 19 20 22 24 26 25 24 25 23 22 21 20 20 20 20 19 20 19 16 15 17 19 19 16 15 16 17 16 16 16 14 14 13 13 13 13 14 16 17 17 17
18 20 22 23 26 28 27 25 25 24 23 22 21 20 19 19 20 21 19 15 15 19 20 18 16 15 16 17 17 16 16 15 13 12 11 10 12 13 15 17 17 17
19 20 22 24 27 29 28 26 25 25 24 23 22 21 19 20 21 19 15 14 18 22 21 18 17 17 18 18 16 15 14 12 11 11 9 6 9 13 15 16 18 17
18 20 22 25 28 30 29 27 26 25 25 24 23 22 20 21 20 17 13 15 21 23 22 19 18 17 18 17 14 12 11 11 12 11 8 5 7 13 15 16 18 17
17 21 24 28 31 31 29 28 27 25 25 26 24 22 22 21 19 16 13 15 20 23 22 21 19 18 18 16 14 12 12 13 14 11 8 6 8 13 15 15 16 16
18 22 26 31 33 31 29 29 27 26 26 26 24 23 23 21 18 16 15 14 18 22 22 21 20 18 18 18 16 15 15 14 14 12 9 7 8 11 14 16 17 17
19 21 26 32 32 30 31 30 28 28 28 25 24 25 24 21 19 19 18 16 19 22 20 19 20 18 17 18 17 16 17 15 14 13 11 9 9 10 14 16 17 16
20 22 25 31 32 31 31 30 29 29 27 25 26 27 24 22 21 21 19 17 18 21 19 17 19 17 14 16 18 18 17 16 14 14 13 11 10 11 14 15 15 14
21 23 26 30 32 32 30 29 29 28 26 26 28 28 25 24 23 21 19 18 18 20 19 17 18 17 14 13 15 17 17 15 14 15 16 13 12 13 16 16 16 15
22 24 27 31 32 31 30 29 28 26 28 29 29 28 26 25 24 21 19 19 19 19 18 17 17 17 16 12 12 16 17 15 15 17 17 15 13 15 17 15 15 15
23 26 28 31 32 32 31 29 27 28 30 31 30 29 27 26 24 22 20 20 20 20 18 17 16 17 16 13 13 16 18 16 16 17 18 18 16 16 17 16 15 15
24 26 29 31 32 32 31 30 29 31 32 31 30 29 28 26 25 23 21 20 20 20 19 17 17 17 17 15 13 16 18 18 17 16 17 18 17 16 18 18 16 15
22 26 28 32 33 33 32 31 31 33 33 31 30 29 27 26 25 23 21 21 20 20 19 19 18 17 17 16 14 15 18 19 19 18 17 17 16 16 17 17 16 15
20 25 28 30 33 34 34 33 32 32 31 30 29 28 27 27 26 23 21 21 21 20 19 19 19 18 18 18 16 15 17 19 19 19 18 17 17 17 17 17 16 15
17 23 28 30 32 33 32 31 31 28 27 28 29 28 27 26 25 23 22 22 22 20 20 20 20 19 19 18 18 17 17 18 18 19 19 19 18 17 16 17 16 15
14 20 27 30 31 30 27 28 29 26 25 28 29 29 28 27 25 24 23 23 22 20 20 20 21 20 19 18 18 18 18 19 19 19 20 20 19 18 16 16 15 15
12 18 25 28 29 28 26 27 31 31 29 29 29 30 30 28 27 26 24 22 21 20 20 20 20 20 19 18 17 17 17 18 18 18 19 20 19 17 16 15 13 10
11 11 19 26 30 30 29 30 32 33 32 31 31 31 30 28 27 26 24 22 20 19 18 18 18 19 18 17 17 16 16 16 17 17 18 16 13 10 11 12 11 9
18 15 14 18 23 26 28 28 28 29 29 29 29 30 31 29 27 25 24 22 19 18 17 16 16 17 18 17 18 18 18 17 17 18 17 15 14 13 14 13 13 12

ECMWFNIL_850_spd_075.txt.gz
Wind_Speed
26 25 24 24 21 17 16 18 18 20 22 22 21 21 20 20 20 19 19 19 18 17 17 17 17 17 17 17 17 16 16 16 15 15 15 15 14 14 14 13 13 13
25 24 23 22 20 17 17 18 18 20 22 22 22 22 21 21 19 17 17 18 18 17 17 17 17 17 17 17 17 16 16 16 15 16 16 15 15 15 14 13 12 13
21 23 23 21 20 18 18 18 19 20 22 22 23 23 22 20 18 16 17 18 18 18 17 17 17 17 17 16 16 16 16 16 16 16 16 16 16 15 15 14 13 13
17 20 23 23 21 20 19 19 20 22 23 24 25 23 20 18 16 16 17 19 19 19 18 17 16 17 16 16 16 16 16 16 16 16 17 17 17 16 16 15 14 14
15 18 22 24 22 21 21 21 22 23 24 26 25 22 19 17 17 17 18 18 18 18 18 18 17 17 16 16 16 16 16 16 16 16 17 17 17 16 15 15 15 14
16 16 20 23 21 21 22 22 23 24 26 26 24 22 20 18 17 18 18 17 18 18 18 18 18 18 17 16 16 16 15 15 16 17 17 17 16 15 15 15 15 15
16 15 18 20 20 20 22 22 23 25 27 25 23 23 22 19 18 19 18 18 18 18 18 19 19 19 18 17 16 16 16 16 16 17 16 16 15 15 15 15 15 15
14 14 17 19 19 21 23 23 24 26 27 25 24 23 21 18 18 20 19 19 19 18 18 18 19 19 19 18 17 17 16 16 17 17 16 15 15 15 15 16 15 14
13 14 17 19 20 23 25 25 26 28 26 24 23 22 20 19 20 21 20 20 19 18 18 18 19 19 19 18 18 17 17 17 17 16 15 15 15 14 15 16 15 15
16 16 17 20 22 26 27 27 27 27 25 23 23 21 20 20 21 21 20 20 19 18 18 19 19 19 19 19 19 17 17 16 15 15 15 13 13 13 14 15 16 16
18 17 18 21 23 26 28 28 27 27 26 24 23 23 22 21 21 21 20 20 19 18 19 20 19 18 18 18 18 17 16 16 14 14 12 10 10 11 12 14 15 16
18 18 19 21 23 26 28 29 28 27 27 25 25 25 23 21 22 22 22 21 18 18 20 20 19 18 18 17 17 17 16 15 14 12 10 8 7 9 11 13 15 17
18 18 20 21 23 26 29 30 29 28 26 25 26 26 24 22 23 23 23 20 19 20 22 20 20 20 18 17 17 16 15 14 14 12 9 7 7 9 11 13 16 19
18 20 21 21 22 26 30 31 30 29 27 27 29 29 25 23 24 24 23 21 22 24 24 22 21 21 19 17 16 15 14 14 15 12 10 8 8 9 10 11 14 16
15 18 21 22 23 28 32 32 31 30 28 29 32 31 27 24 25 24 22 22 26 27 25 24 23 22 20 18 16 15 15 15 15 13 11 9 9 10 11 11 11 12
12 14 18 20 24 30 34 33 32 31 29 28 30 31 29 27 25 23 21 23 27 28 27 26 24 23 21 19 17 17 16 16 15 13 12 11 9 10 11 12 12 12
12 12 13 16 21 30 35 33 32 31 29 28 30 32 31 29 26 24 22 23 27 29 28 27 25 23 21 20 20 19 18 16 15 14 13 12 10 9 10 13 15 14
12 12 12 14 18 27 34 33 32 30 28 28 31 33 32 29 27 26 24 23 26 28 27 26 25 23 20 19 19 20 20 18 16 15 15 13 10 10 12 14 15 15
13 13 13 12 15 25 32 33 32 31 29 30 33 34 33 30 28 27 25 24 25 26 24 24 24 22 19 16 16 18 21 19 17 17 17 14 11 11 13 14 14 14
15 12 13 12 15 23 30 31 32 32 32 33 33 34 33 31 29 29 26 24 26 26 23 23 23 21 20 16 14 16 19 19 17 18 18 16 15 14 14 14 14 14
14 9 12 13 16 22 28 30 33 34 33 34 34 34 33 31 30 29 28 26 26 26 23 22 21 21 21 18 15 15 18 18 17 18 19 19 18 17 17 16 15 15
11 8 12 15 17 23 28 30 33 35 33 33 35 35 34 34 32 30 28 27 27 26 25 23 22 22 22 20 17 16 17 18 18 18 20 20 19 19 20 18 18 17
9 6 10 15 18 23 28 31 32 34 33 31 33 35 34 34 34 30 28 27 26 26 25 24 23 24 23 22 19 16 17 19 19 18 19 19 19 20 20 20 19 18
9 3 6 13 16 19 26 29 30 31 32 32 33 35 33 31 31 29 27 26 26 26 26 25 25 24 23 22 21 17 17 19 19 19 19 19 20 21 21 21 20 18
15 10 4 5 13 18 23 26 27 27 30 31 32 32 30 28 28 28 28 28 27 27 26 25 25 24 23 21 20 18 17 18 19 19 20 21 22 23 22 19 18 16
21 20 18 12 7 12 20 25 26 25 24 23 24 26 27 28 28 29 29 29 28 27 27 26 25 25 23 20 19 18 17 17 18 19 21 22 22 22 19 13 9 8

ECMWFNIL_850_spd_078.txt.gz
Wind_Speed
23 23 22 21 21 20 19 18 17 17 16 17 19 19 18 18 17 19 19 18 18 18 17 18 19 18 18 18 18 18 18 16 16 15 15 15 14 14 13 12 12 11
21 22 23 23 23 22 21 18 16 16 15 16 18 19 18 17 17 18 18 18 18 18 17 18 19 19 19 18 18 18 17 17 16 16 16 16 15 15 14 12 12 11
19 20 21 23 23 22 21 18 16 16 15 15 16 19 19 18 18 18 18 18 18 18 18 18 19 20 19 18 18 18 17 17 17 16 16 16 16 15 14 13 13 11
17 18 20 22 23 22 20 16 15 15 15 15 17 19 19 19 19 19 19 19 19 19 19 18 19 19 19 19 19 18 18 18 17 16 17 16 16 16 14 14 14 12
17 17 19 21 21 20 17 15 16 17 16 16 18 20 20 20 21 20 19 20 20 20 20 19 19 18 18 19 19 19 19 19 18 17 17 17 17 16 16 15 15 13
16 15 15 17 17 17 16 16 18 19 18 18 20 20 21 21 22 21 20 19 20 20 20 19 19 18 18 19 19 19 19 19 18 18 18 17 16 16 16 16 15 14
13 13 13 15 15 15 16 17 19 19 19 20 21 21 21 22 23 21 19 18 18 20 20 20 20 20 19 19 18 19 19 18 18 18 17 17 17 17 17 16 15 14
12 12 14 16 16 16 16 17 19 20 20 21 21 22 22 23 23 20 17 17 17 19 20 20 20 20 20 19 19 18 18 18 18 17 17 17 18 17 16 15 15 14
12 12 13 15 15 15 17 19 20 20 21 22 22 22 23 24 24 21 18 17 17 18 19 19 19 20 20 20 19 19 19 19 18 17 17 18 17 16 15 14 14 15
12 12 13 14 13 14 18 21 22 22 23 23 23 24 24 25 25 23 20 19 19 19 19 19 20 20 20 20 20 19 19 19 17 17 17 17 16 14 14 14 14 15
14 14 14 14 14 15 19 22 23 24 25 25 25 26 27 26 26 25 23 22 21 20 20 20 20 20 21 21 21 20 20 18 17 16 16 15 14 12 13 13 13 15
17 16 15 15 16 16 19 21 23 25 26 26 25 27 29 27 26 25 24 23 22 21 21 21 21 21 21 22 22 21 20 18 16 15 15 14 13 12 13 13 13 15
15 17 17 16 17 17 19 22 25 28 29 28 26 27 28 26 25 24 24 23 22 21 21 21 21 21 21 22 21 21 20 18 16 15 14 13 13 13 13 13 13 14
13 15 18 18 19 19 21 23 27 30 30 29 28 28 28 26 25 24 23 23 22 21 22 21 21 22 21 21 20 20 19 17 16 16 15 13 13 12 12 13 14 14
11 12 14 17 20 22 22 23 27 31 32 31 30 30 30 29 27 25 24 23 22 22 22 22 22 22 21 20 19 19 18 17 16 16 14 13 12 12 12 13 13 14
10 11 12 13 16 20 23 24 26 30 33 33 32 32 32 31 29 27 25 23 22 23 23 23 23 22 20 19 19 18 18 17 16 16 15 13 12 11 12 12 13 13
12 10 11 12 13 15 19 23 26 29 33 34 35 34 34 32 31 29 26 23 23 24 24 24 23 22 21 20 19 17 17 17 17 17 16 13 11 10 11 12 13 13
15 10 10 10 11 12 15 19 24 28 32 35 36 35 33 32 32 30 27 24 24 25 25 25 24 23 22 20 18 17 17 17 17 17 15 13 11 9 9 11 12 13
17 13 13 10 8 9 11 14 19 25 30 34 35 34 32 31 31 30 26 24 24 25 26 26 25 24 22 21 19 17 17 17 17 16 14 13 11 9 8 10 13 14
20 17 16 13 9 8 10 13 17 22 27 30 31 32 32 30 31 30 27 25 25 24 25 27 26 24 23 21 19 18 18 18 18 16 15 14 12 10 10 13 15 16
25 21 19 16 12 11 11 14 19 23 26 28 30 32 32 32 33 32 28 26 24 23 25 27 26 25 23 21 20 19 19 20 20 18 16 16 14 12 13 15 16 17
30 25 21 18 15 13 13 15 20 24 26 28 31 32 33 34 35 33 30 26 24 23 25 26 26 25 23 21 19 18 17 20 21 19 18 18 17 15 15 15 15 16
32 27 22 18 15 12 13 16 20 22 25 28 30 32 33 33 34 34 31 27 25 25 25 26 25 25 24 22 19 17 16 18 20 19 18 19 19 17 16 16 16 16
30 29 24 20 16 11 10 13 16 18 20 24 27 30 31 30 30 32 31 29 28 27 26 27 26 24 24 23 21 18 16 16 17 17 17 18 19 19 19 19 19 18
26 28 27 26 22 15 9 9 11 12 14 17 21 24 24 24 26 30 30 30 30 28 27 27 26 24 23 23 22 20 16 15 16 17 17 18 19 19 20 21 21 20
21 24 26 28 27 21 13 7 6 7 8 10 14 17 18 18 20 22 24 25 27 27 26 25 24 23 24 24 22 20 17 14 15 17 17 18 19 20 21 21 21 20

ECMWFNIL_850_spd_081.txt.gz
Wind_Speed
14 14 14 15 16 16 15 15 14 14 15 16 15 16 17 17 16 17 18 18 18 19 20 20 19 19 19 19 19 19 19 19 18 18 18 18 17 16 15 14 13 14
11 11 12 13 13 13 13 13 15 17 17 16 15 15 17 16 15 16 18 18 19 20 20 20 20 20 20 19 19 18 19 19 18 18 18 18 17 16 15 14 13 13
10 9 9 10 10 11 13 12 13 17 19 17 15 16 17 16 16 16 18 19 20 20 20 20 20 20 20 19 18 18 19 19 19 18 18 18 18 17 16 15 13 13
11 10 10 10 10 10 10 9 10 14 18 17 15 17 18 17 16 17 18 18 19 20 20 20 20 19 20 20 19 18 19 19 19 18 18 18 18 16 16 14 14 14
13 12 12 12 11 9 8 10 11 12 15 16 16 17 17 16 17 17 18 19 19 20 20 20 20 19 20 20 20 19 19 19 19 18 18 18 17 16 15 14 14 13
14 13 12 12 13 12 11 11 11 12 14 16 16 17 17 17 18 19 19 20 20 21 21 20 20 20 20 21 21 21 20 19 18 18 18 17 16 16 15 15 15 13
10 11 11 12 13 14 12 11 12 13 14 16 17 18 18 19 20 21 21 22 22 22 21 21 21 21 21 21 21 21 20 19 19 20 19 18 17 16 16 16 15 14
8 11 12 12 13 13 14 14 14 15 16 18 19 19 20 20 21 22 23 24 24 23 22 22 22 22 21 21 21 20 19 19 20 19 19 18 18 17 16 16 16 15
9 11 12 13 13 14 15 16 17 17 18 20 20 20 21 21 21 22 24 25 25 23 21 21 22 23 22 21 21 20 19 19 19 18 18 19 18 17 16 16 16 16
10 13 14 14 15 15 16 17 18 19 20 21 20 20 22 22 21 22 24 25 24 22 20 20 21 22 22 22 22 21 20 19 19 18 18 18 17 16 16 15 15 16
12 15 17 17 17 17 17 18 19 20 21 21 21 21 22 23 23 23 24 24 24 22 20 18 19 21 22 22 23 22 21 19 18 18 17 17 17 16 16 15 15 16
12 15 18 19 19 19 19 19 20 21 21 22 22 22 23 24 24 24 24 24 24 22 20 18 17 19 20 21 22 22 21 19 18 17 17 16 16 16 16 16 16 16
10 13 16 18 19 20 21 21 21 21 22 22 22 22 24 25 24 24 24 24 24 22 21 19 18 18 19 19 20 20 20 20 19 18 17 16 16 15 15 16 16 16
9 11 14 17 18 19 21 22 22 22 22 23 23 24 25 26 25 24 24 23 23 23 22 20 20 19 19 19 19 19 19 19 19 19 18 17 17 16 16 16 16 16
12 11 12 15 17 19 20 21 23 23 23 24 24 25 26 27 26 26 25 24 24 25 23 22 21 20 19 19 19 19 20 20 20 19 18 18 17 17 17 16 16 17
15 12 12 13 16 18 19 20 21 23 24 25 26 26 27 28 28 27 27 26 26 25 23 22 21 20 19 18 19 19 20 20 20 19 19 18 18 17 17 17 17 17
21 17 16 15 14 15 17 18 18 19 22 24 25 27 29 29 29 28 28 27 26 23 22 21 21 20 18 18 18 19 19 20 20 20 19 18 17 16 15 15 16 16
26 23 21 18 15 13 13 15 15 15 17 19 21 24 27 28 29 29 29 28 26 23 22 21 21 20 18 18 19 19 19 19 19 20 20 18 17 15 15 14 14 15
29 28 26 24 19 13 10 11 13 13 14 15 16 18 21 24 26 27 29 29 27 25 24 22 21 20 18 18 19 19 19 19 19 19 19 18 17 15 14 13 13 15
31 30 30 29 24 17 11 9 10 11 12 13 13 14 15 18 22 26 28 28 27 27 26 24 22 20 19 19 20 19 18 18 18 19 19 19 17 15 13 13 14 16
31 31 32 31 28 21 14 12 13 13 14 14 14 14 15 18 22 26 29 28 27 27 27 25 22 20 20 21 21 20 18 18 18 18 18 18 17 15 13 12 13 15
29 31 32 32 30 24 17 15 16 16 16 15 14 15 16 19 23 27 29 28 27 27 26 24 22 20 21 22 21 20 19 18 17 17 18 17 16 15 13 12 14 15
28 30 32 33 32 28 22 19 17 17 15 13 13 14 16 18 22 26 27 25 26 25 22 20 19 20 21 21 21 21 20 18 17 18 18 17 16 16 14 14 16 17
25 28 30 32 33 31 28 24 21 18 15 11 9 11 12 13 16 22 24 21 21 21 20 19 19 21 21 20 21 21 19 17 17 19 20 19 18 17 16 16 17 18
23 25 28 29 31 31 29 26 23 19 16 13 9 7 6 6 7 11 13 13 14 16 18 19 19 20 20 21 21 21 19 17 16 18 20 21 20 20 20 18 19 20
21 23 25 26 28 28 26 24 23 19 16 13 11 9 6 2 2 2 2 5 10 15 16 16 17 19 21 21 21 20 19 16 14 14 17 20 22 25 26 24 23 23

ECMWFNIL_850_spd_084.txt.gz
Wind_Speed
9 8 9 10 9 9 10 11 11 11 11 10 9 11 14 15 15 17 19 20 20 21 23 24 21 18 17 17 18 19 18 19 18 17 18 19 18 18 18 18 17 14
10 9 10 10 10 11 12 11 10 11 11 11 11 12 15 16 16 17 19 21 21 21 21 22 21 19 18 19 21 21 20 19 18 17 17 18 18 18 19 19 17 15
10 9 11 10 11 13 12 11 11 11 12 13 14 14 15 16 15 18 20 21 22 22 21 21 20 20 20 20 21 21 20 18 17 17 17 17 18 19 20 19 17 16
10 9 11 12 12 12 11 10 11 11 12 13 14 14 15 15 15 17 21 22 22 22 21 20 20 21 21 20 20 20 18 17 17 18 17 17 18 18 17 17 16 16
11 10 11 13 13 12 10 10 11 11 11 11 12 13 14 14 14 17 20 22 23 22 21 21 21 22 23 22 20 19 18 17 17 18 18 17 17 18 17 17 16 16
13 11 10 11 12 12 11 10 11 11 10 10 11 13 15 16 16 17 21 22 23 22 22 22 23 23 22 20 19 18 18 17 16 17 18 17 17 18 17 17 17 17
13 11 9 9 11 11 10 10 10 11 11 10 11 13 14 16 17 19 21 22 23 22 22 22 23 22 20 18 18 19 18 16 16 17 17 17 17 17 17 17 17 18
11 10 8 7 9 10 10 10 11 11 12 11 12 13 13 15 17 18 20 21 22 21 19 20 21 21 20 19 19 19 18 17 17 18 18 18 17 17 18 18 19 19
11 11 10 9 10 11 12 12 12 12 12 12 12 12 14 15 16 17 19 20 23 23 21 22 21 21 21 21 19 18 18 18 18 19 21 20 19 19 19 18 17 16
12 13 14 12 11 12 14 14 14 13 12 12 13 13 14 16 17 18 19 20 23 24 24 24 23 22 22 21 19 18 18 18 18 19 21 21 20 20 19 17 17 16
12 12 14 14 14 15 16 16 16 16 14 13 14 16 16 16 17 18 19 21 23 25 24 24 24 24 24 23 20 18 18 17 17 18 20 20 20 19 18 17 17 17
13 12 13 14 14 16 17 17 17 16 15 14 15 17 18 17 17 17 18 21 23 24 25 24 24 25 24 23 21 18 17 18 18 19 20 19 19 18 18 18 17 17
15 14 14 14 14 15 15 16 15 14 14 14 16 18 19 19 18 17 18 20 21 23 25 24 24 24 24 24 23 19 18 19 19 18 18 18 18 18 18 18 18 18
16 15 15 15 15 16 15 15 15 14 14 14 16 19 20 20 19 19 19 20 20 22 24 24 24 24 23 24 24 21 18 18 19 18 17 16 17 18 18 18 18 18
19 17 16 16 16 16 16 16 15 13 13 13 14 16 18 19 20 21 21 20 19 21 23 24 24 24 24 24 25 22 19 19 19 18 17 17 17 18 18 17 18 18
22 21 19 16 15 15 15 16 15 11 9 11 13 13 15 16 18 20 21 21 19 19 21 25 26 26 25 24 23 22 21 20 19 19 18 19 19 18 17 17 17 17
26 24 22 19 16 13 12 13 13 11 9 10 12 13 14 15 17 18 21 24 22 20 21 24 26 27 26 25 22 20 20 20 19 20 21 21 21 20 19 19 18 17
27 27 25 22 19 14 12 11 10 11 11 11 12 13 14 16 16 17 21 23 23 23 25 24 24 26 27 25 21 19 21 20 19 19 20 20 20 21 20 19 19 18
25 27 26 23 20 16 13 12 10 9 10 10 11 12 12 13 13 13 17 19 20 23 26 26 25 25 26 24 21 19 20 21 19 19 19 18 19 20 18 17 17 18
22 25 25 23 21 18 14 13 12 10 9 8 8 8 8 9 10 11 14 17 17 20 24 27 27 25 25 24 21 19 20 20 19 20 19 17 18 19 18 16 16 16
23 23 23 23 22 20 18 17 16 15 13 11 10 9 10 10 11 11 13 16 17 17 20 24 25 25 26 25 21 18 19 20 20 20 18 18 19 18 18 17 15 14
24 24 23 23 23 23 23 23 23 21 19 17 15 13 12 11 11 12 14 15 16 16 17 20 23 25 26 24 21 20 21 21 20 19 18 18 19 19 18 17 16 15
22 22 23 23 25 26 26 27 27 25 24 22 19 18 16 13 11 11 12 12 13 15 17 19 22 24 25 24 23 22 23 22 20 19 19 19 20 20 20 19 16 15
20 21 21 22 25 28 28 27 27 26 25 23 21 19 17 15 14 12 11 9 9 11 14 19 22 22 22 24 24 23 22 21 19 18 18 19 20 20 20 19 17 15
19 20 21 21 23 25 27 27 26 25 22 20 18 17 15 13 12 10 9 7 5 5 9 13 16 17 16 16 19 21 21 21 20 18 17 18 19 19 19 18 17 16
22 22 23 22 21 22 25 27 26 25 22 19 17 15 13 12 10 8 7 6 3 1 4 6 9 14 15 15 15 16 18 20 20 19 17 18 18 18 19 19 18 17

ECMWFNIL_850_spd_087.txt.gz
Wind_Speed
8 9 10 12 14 15 16 17 16 17 19 18 18 19 18 17 16 15 17 19 20 19 20 22 22 23 22 22 23 21 19 20 24 26 25 25 25 24 25 26 23 20
10 9 10 10 13 16 17 18 18 18 19 19 20 21 21 21 20 19 19 19 18 19 19 21 22 23 21 21 22 22 21 20 22 24 24 24 25 24 24 25 24 20
11 11 10 10 12 15 17 20 20 19 18 18 20 23 23 23 22 21 20 17 16 18 20 20 22 21 20 20 19 20 21 21 21 22 22 23 24 23 23 23 22 19
11 12 11 10 13 15 16 19 20 17 18 19 20 23 24 23 21 19 18 16 17 19 20 21 21 19 17 17 17 18 20 21 22 21 21 22 22 23 22 22 20 18
12 12 11 11 13 16 16 17 16 15 17 18 19 21 23 24 22 18 17 17 17 19 20 20 20 18 16 14 15 18 19 20 22 22 22 23 23 23 22 21 21 19
12 12 11 10 12 14 15 14 12 13 15 17 17 20 22 22 20 19 19 18 18 17 18 19 19 17 17 16 16 17 18 19 21 22 23 23 22 22 22 22 21 21
12 12 12 11 10 11 12 11 11 12 14 15 16 18 19 19 18 18 19 18 17 17 16 17 18 17 17 17 17 18 20 20 21 23 23 23 22 21 22 21 20 20
13 13 13 12 11 11 11 11 11 12 14 14 16 17 17 17 16 16 17 16 16 16 15 15 16 17 17 16 16 19 21 20 21 23 22 22 22 23 23 21 20 20
14 14 13 13 13 13 13 13 12 12 13 14 16 17 16 16 16 16 16 17 17 16 14 13 16 18 18 18 18 20 21 20 21 23 22 21 23 23 22 21 21 21
14 14 15 14 14 14 14 16 15 15 15 16 16 16 16 18 17 17 19 20 19 17 14 14 17 19 18 19 20 20 20 20 20 22 23 22 23 23 22 22 22 21
14 16 18 17 16 16 16 17 17 18 18 18 17 17 17 18 17 18 20 20 19 18 16 17 19 19 18 18 20 20 20 20 21 21 22 22 23 24 24 22 21 20
16 16 17 17 18 18 16 17 18 18 19 18 17 17 17 17 16 18 20 20 20 20 18 18 19 18 18 18 18 19 19 19 20 21 20 21 23 24 23 21 20 19
18 15 15 16 18 18 17 17 18 18 17 16 16 17 18 17 16 17 19 20 21 21 19 19 18 17 17 18 19 20 19 18 21 22 21 22 23 24 23 21 20 18
20 17 16 17 17 17 18 18 17 17 16 14 13 15 17 17 17 17 18 19 21 22 21 20 18 17 17 17 18 19 19 18 21 23 22 21 22 23 22 19 17 18
22 19 18 18 17 16 17 17 17 16 15 14 12 12 13 15 17 18 18 18 20 21 21 21 19 17 17 16 15 17 18 18 20 22 21 20 20 20 21 19 19 20
21 20 20 19 17 17 17 16 16 16 15 14 13 12 13 14 14 15 17 18 19 20 20 20 19 18 19 19 18 17 17 18 20 21 21 21 19 19 22 22 21 21
20 20 20 19 17 17 18 17 16 16 15 14 13 13 15 16 16 16 15 15 18 18 18 18 19 18 19 21 21 19 18 19 21 22 22 20 19 20 23 23 22 22
19 20 20 20 18 18 19 18 17 16 15 13 12 12 14 15 18 20 18 17 17 17 17 18 18 19 19 20 20 20 20 21 21 22 21 20 21 24 24 21 20 21
18 19 20 20 19 18 19 18 17 18 17 14 13 12 12 12 13 16 18 17 17 16 17 16 15 18 22 21 20 21 22 22 22 22 20 19 21 23 20 16 16 17
18 18 19 19 19 18 19 20 20 20 20 19 17 14 13 12 11 11 12 14 14 15 15 16 16 19 24 25 24 23 23 23 23 23 21 19 18 17 16 16 17 18
18 18 18 19 19 18 20 23 24 23 24 24 23 21 19 16 14 12 10 10 11 12 13 16 18 20 23 26 26 25 24 23 24 23 21 19 16 15 15 16 17 18
18 17 17 18 19 18 20 24 26 26 26 26 26 25 24 23 22 19 17 14 11 11 11 13 16 19 22 24 24 26 25 24 24 23 20 19 16 14 14 14 15 16
18 17 16 17 19 20 20 22 23 25 27 26 25 25 24 24 24 23 21 20 17 15 13 12 14 17 20 20 21 23 24 24 25 23 21 20 17 14 16 17 16 15
18 17 17 17 19 20 19 19 20 22 25 26 24 23 22 22 22 21 21 20 18 17 15 14 14 16 17 17 17 20 22 22 22 19 16 17 15 13 15 15 13 12
18 17 17 18 19 19 18 18 18 18 20 22 23 23 22 22 22 22 21 20 17 15 14 12 12 12 13 14 14 17 18 18 17 15 14 15 14 12 12 12 12 12
18 17 18 19 18 18 18 18 18 17 17 17 18 20 23 24 23 24 24 23 21 19 17 14 12 10 8 8 8 10 13 15 17 18 16 13 11 11 12 13 13 14

ECMWFNIL_850_spd_090.txt.gz
Wind_Speed
7 8 8 8 9 11 14 16 18 18 20 20 20 18 17 17 16 16 16 16 16 17 19 21 21 22 22 21 20 20 20 21 21 22 25 27 26 25 26 25 25 25
9 9 9 6 7 11 13 16 19 20 20 21 21 21 20 19 18 18 19 19 19 19 19 20 21 22 23 23 22 21 21 21 20 19 23 25 24 24 26 24 24 26
11 11 10 8 7 10 13 16 19 20 20 19 19 19 20 20 19 20 21 21 21 20 21 22 22 22 22 22 22 22 21 21 20 18 19 22 23 24 24 24 25 26
13 12 11 9 9 11 12 15 17 17 17 16 16 15 17 19 20 21 22 23 22 22 22 21 21 23 24 23 21 20 20 20 21 19 19 21 23 23 23 23 24 26
13 13 12 11 12 12 13 14 14 15 15 14 15 14 14 16 19 21 21 22 22 22 21 20 21 23 24 22 21 20 19 20 21 22 22 22 22 22 23 23 24 25
14 14 13 12 12 13 13 13 13 14 14 14 15 15 15 15 17 18 19 19 19 19 20 21 21 22 22 21 21 20 20 21 22 23 24 23 22 22 23 23 24 25
17 16 14 13 13 13 13 13 13 13 13 14 15 15 15 15 15 16 17 17 17 18 19 20 18 18 19 20 20 20 20 22 24 24 24 23 23 23 23 23 24 25
18 17 16 15 15 14 15 14 13 13 13 13 14 15 16 16 16 16 15 16 16 17 18 18 17 16 17 18 19 20 21 22 24 25 23 22 23 23 22 23 24 25
18 18 20 20 19 17 17 17 15 14 13 13 14 14 15 15 16 17 16 17 17 17 19 19 18 16 15 16 18 19 21 23 23 22 20 20 21 22 22 23 24 24
20 19 20 22 22 20 19 19 19 18 16 15 14 14 14 14 14 16 18 18 17 16 18 19 17 15 15 16 17 18 20 22 20 19 20 20 20 20 22 23 24 25
23 21 20 20 22 22 21 21 21 20 18 18 17 15 15 13 12 13 16 19 18 15 15 15 15 17 17 17 18 18 18 19 17 17 19 20 19 20 20 22 24 24
23 22 21 23 23 22 22 21 21 20 19 19 18 16 14 12 11 11 12 16 18 17 16 14 14 18 19 17 17 18 17 17 16 16 17 17 19 20 20 21 23 23
22 22 22 23 23 22 22 22 22 21 20 20 19 17 15 13 12 12 12 13 14 15 16 15 13 17 20 18 16 16 16 15 15 17 17 17 18 20 21 22 23 23
22 22 22 22 22 23 23 22 23 23 22 21 20 19 18 15 15 15 15 14 13 13 14 13 11 13 16 17 16 16 14 14 15 16 16 17 18 20 21 22 23 23
21 22 23 23 23 24 25 24 25 25 23 21 20 20 19 18 17 17 18 17 16 15 14 13 10 10 12 14 15 15 14 16 16 16 16 17 19 21 22 22 23 23
21 22 23 24 24 24 25 26 26 26 25 23 20 19 19 19 19 18 18 19 18 18 17 16 13 12 13 14 15 15 15 16 16 16 17 18 18 21 22 22 23 23
21 21 23 24 24 24 24 26 27 27 26 24 23 21 19 18 18 18 18 18 18 18 18 18 16 14 14 15 17 18 16 15 16 18 19 19 19 21 22 23 24 23
20 21 22 24 24 24 24 26 27 28 27 27 27 26 24 21 19 18 18 18 17 17 17 18 19 18 17 16 17 19 18 18 18 18 20 20 19 20 21 22 23 23
20 21 22 23 24 24 25 26 27 28 30 30 30 30 28 26 24 22 21 20 18 17 17 17 19 20 20 18 17 18 18 20 20 18 19 19 18 19 21 22 22 22
21 21 22 23 23 25 26 27 28 29 31 31 31 31 31 31 31 29 27 26 24 22 19 18 18 19 19 20 20 20 19 19 20 18 18 19 20 20 21 22 22 22
21 22 23 23 24 25 26 27 28 28 29 30 30 30 31 32 33 33 32 31 29 27 25 22 20 19 18 19 20 22 22 21 21 20 18 17 18 18 19 20 19 20
22 22 23 24 24 25 26 26 27 26 27 28 28 28 28 29 31 32 32 32 30 30 29 27 25 23 20 19 19 20 21 22 24 23 19 16 16 18 18 18 18 18
23 23 23 24 25 25 26 27 26 26 27 27 27 27 27 27 29 30 31 32 32 32 32 30 28 26 24 23 20 18 17 17 19 21 18 16 17 19 18 15 16 17
24 24 24 24 24 24 23 24 25 27 28 26 25 26 26 25 25 27 29 32 33 34 34 33 30 27 25 24 22 18 16 14 13 13 14 14 17 18 16 13 13 15
23 24 26 26 26 26 25 24 24 26 26 26 25 25 26 26 25 25 27 30 32 33 34 34 33 31 27 24 21 18 16 13 8 5 7 10 11 12 11 10 11 13
22 23 25 26 26 27 27 25 25 25 25 25 26 25 26 27 26 25 26 28 29 31 32 33 34 33 30 26 21 17 15 13 8 5 4 2 1 3 4 4 6 8

ECMWFNIL_850_spd_096.txt.gz
Wind_Speed
13 12 12 12 11 10 9 9 8 8 8 8 8 9 9 9 10 11 12 12 11 11 12 12 13 13 13 14 15 16 17 19 20 21 23 25 26 27 28 29 29 31
4 5 6 8 8 8 7 7 7 8 8 7 7 9 9 9 9 9 10 11 10 10 11 12 13 14 15 15 16 17 18 19 21 22 24 25 26 27 28 28 28 29
4 3 1 1 3 5 6 7 7 8 7 7 8 9 9 9 9 9 9 10 10 9 10 11 12 13 15 15 16 16 17 18 20 21 23 25 25 26 27 27 27 27
6 5 4 3 3 3 4 6 7 8 8 8 9 9 10 9 9 10 10 10 10 10 10 11 12 13 14 15 16 16 16 18 19 20 22 24 24 25 25 25 26 26
6 6 6 5 4 4 3 4 6 7 7 9 10 11 11 12 11 11 11 11 11 11 10 11 12 13 14 14 15 16 17 18 19 19 20 21 22 22 22 23 25 25
7 8 8 8 7 6 5 4 4 5 6 7 9 11 13 14 14 13 12 12 12 12 12 11 12 13 13 13 14 15 17 19 18 17 18 19 18 19 19 20 22 23
8 9 10 10 9 8 7 7 6 5 5 5 7 9 11 13 13 11 10 11 12 13 14 13 14 14 14 14 14 15 15 17 17 16 16 17 16 17 17 19 20 21
11 11 12 12 11 10 9 9 8 7 6 6 6 6 8 10 10 9 8 9 11 13 14 14 14 15 16 16 15 15 15 14 15 15 15 16 16 17 18 18 19 21
12 13 13 12 12 12 12 12 11 11 10 9 7 6 6 7 8 8 8 8 10 14 14 14 15 16 17 17 17 16 17 16 15 15 16 17 17 18 18 19 21 21
14 14 14 13 13 14 14 14 14 13 13 13 12 10 8 8 8 8 9 9 12 14 14 15 16 16 17 18 18 17 18 18 18 17 17 18 18 19 20 21 22 23
15 15 15 15 15 15 16 15 15 15 15 15 15 14 13 11 10 9 9 10 12 14 15 16 18 18 18 18 18 19 19 19 20 20 20 20 20 20 21 22 23 24
17 17 17 16 16 17 17 16 16 16 16 16 15 15 15 14 14 13 11 11 12 14 16 17 19 20 20 20 19 19 19 19 19 20 21 21 20 20 21 22 22 22
19 19 18 18 18 18 17 17 17 16 16 17 16 15 15 15 15 15 15 14 14 15 16 18 19 20 21 21 21 21 20 19 19 20 21 20 20 20 20 20 21 21
19 19 18 18 17 17 17 16 16 16 16 16 16 16 16 17 16 16 15 15 15 16 16 18 19 19 20 20 21 21 21 21 20 21 22 22 21 20 19 19 20 20
20 20 19 19 18 17 17 16 16 16 16 15 16 17 17 17 17 17 16 16 17 17 18 18 19 19 19 20 21 21 22 22 22 21 21 23 23 21 19 19 19 20
20 20 20 20 19 19 18 17 17 16 15 15 15 16 17 17 17 18 18 19 19 19 19 20 20 20 20 20 21 22 22 22 22 21 20 21 22 22 22 20 19 20
18 18 19 19 20 20 19 19 19 18 17 16 16 17 17 18 18 19 20 21 21 21 21 21 21 22 21 20 20 20 21 20 20 20 20 19 20 22 23 22 21 21
18 17 18 18 19 19 20 21 21 21 20 20 19 19 20 20 20 21 21 22 22 22 23 23 23 23 22 20 20 19 20 18 17 17 17 16 17 18 20 22 22 22
19 18 18 18 18 18 20 21 22 23 23 23 22 22 22 22 23 23 22 22 22 22 23 23 23 24 24 22 20 19 19 18 15 14 14 13 13 14 17 20 22 23
21 20 19 18 18 19 21 22 23 23 24 23 23 23 23 24 24 24 24 23 22 22 23 23 24 25 25 25 22 19 18 18 16 14 12 11 11 12 14 17 20 22
24 22 21 20 20 20 22 23 23 23 23 23 22 23 24 25 25 26 25 25 23 22 22 23 25 25 25 26 25 21 17 16 16 15 13 11 11 11 12 14 16 19
26 25 24 23 22 22 23 24 23 23 22 22 22 23 24 25 27 27 28 27 26 25 23 23 24 26 26 26 26 24 19 15 15 16 16 14 12 12 12 13 14 16
27 27 26 24 24 24 25 25 24 23 22 21 21 23 24 26 27 28 29 29 29 29 27 26 25 26 27 27 27 27 23 19 16 16 16 15 14 13 13 13 14 15
28 28 28 26 26 27 27 26 25 24 22 21 22 23 24 25 26 27 28 30 31 31 30 28 27 27 27 28 28 28 26 23 20 18 16 15 14 14 13 13 13 15
29 30 30 29 28 28 28 28 28 26 23 21 21 22 23 24 25 26 28 29 31 32 32 31 30 28 27 28 29 29 28 27 24 21 19 18 18 16 14 13 12 11
28 29 30 31 30 29 28 29 29 28 26 24 22 22 22 24 25 26 27 28 29 31 33 34 34 31 29 27 28 29 30 30 28 25 24 24 23 21 17 15 13 11

ECMWFNIL_850_spd_102.txt.gz
Wind_Speed
13 13 14 14 15 16 16 16 16 16 16 17 17 18 18 19 19 20 20 19 19 19 19 18 18 18 18 18 18 19 19 19 19 19 18 18 19 19 19 20 21 22
9 10 10 11 12 14 15 15 15 15 16 17 18 19 20 21 21 22 23 23 22 22 22 22 22 22 22 21 20 20 19 20 20 20 20 20 19 19 20 21 23 24
7 8 9 10 11 12 14 14 15 15 16 17 18 19 21 21 22 22 23 24 24 24 24 24 24 24 23 23 22 21 20 21 22 22 22 22 21 21 21 22 23 24
7 8 8 10 11 11 12 13 14 15 15 17 18 19 21 22 22 23 23 23 23 23 23 23 24 23 22 23 22 21 21 21 22 23 23 23 22 22 23 23 23 23
6 7 8 8 9 10 11 12 13 14 14 16 17 18 20 21 21 22 22 23 23 24 24 24 25 25 24 24 24 25 24 23 22 22 22 22 21 21 22 23 25 25
6 6 6 7 8 9 10 11 12 12 13 14 15 16 17 18 19 20 21 22 22 23 24 24 25 25 25 25 25 25 25 24 24 23 22 22 23 22 22 23 25 26
5 5 5 6 8 8 9 10 11 11 12 13 14 14 16 17 18 19 20 21 22 23 23 24 25 25 25 26 25 24 23 23 22 23 23 23 23 23 22 23 24 25
4 4 5 6 7 8 8 9 10 11 12 13 14 15 16 17 18 19 20 20 21 22 22 23 24 24 25 26 26 26 24 23 22 22 23 23 23 23 22 23 25 26
3 3 5 6 7 8 9 10 11 12 13 14 15 16 17 17 18 19 19 20 20 21 21 22 23 23 24 25 25 25 25 23 22 22 22 23 24 24 24 24 25 26
3 5 6 7 8 9 9 11 11 12 13 14 15 16 16 17 18 18 18 19 20 21 22 23 24 24 25 25 25 25 25 24 22 21 21 22 23 24 24 25 26 26
5 6 7 8 8 9 10 10 11 12 13 14 14 15 16 16 17 17 18 19 20 21 22 23 24 25 26 26 26 26 26 26 25 23 21 21 22 23 24 24 25 26
6 7 8 8 9 9 10 10 11 12 13 14 14 15 16 16 17 17 18 19 20 20 21 22 24 25 25 25 26 26 27 28 28 26 24 22 22 23 23 23 24 24
8 8 8 9 9 10 10 11 12 12 13 14 15 15 16 16 17 18 19 19 19 20 21 22 23 24 25 26 26 27 28 29 29 29 27 26 24 24 24 25 25 25
8 8 9 9 9 10 11 11 12 13 14 14 15 16 17 18 19 19 20 20 20 21 21 22 23 25 27 28 29 29 29 29 29 30 29 28 26 26 25 26 26 26
8 8 9 9 9 10 11 12 13 14 15 15 16 18 19 20 20 20 21 21 22 22 23 23 24 25 27 29 30 30 30 29 28 28 28 27 27 26 26 26 26 26
8 9 9 10 11 12 12 13 14 15 16 17 18 19 20 21 21 21 22 23 24 24 24 25 25 26 26 27 28 29 29 28 26 25 25 25 27 27 27 26 26 26
9 10 10 11 12 13 13 14 15 15 16 18 19 20 21 21 22 23 24 25 25 26 26 27 28 28 27 26 26 27 28 28 26 25 24 24 26 27 28 28 27 26
10 10 11 12 12 13 13 14 14 15 17 18 20 21 21 21 22 23 24 25 26 26 27 28 29 31 30 29 28 27 27 27 27 26 26 26 26 27 29 30 29 27
11 10 11 11 12 13 13 13 14 15 17 19 20 20 20 21 22 23 24 25 26 27 28 29 30 31 32 32 31 30 28 27 27 27 27 27 27 28 29 30 30 29
10 10 11 11 12 12 12 12 14 16 17 18 19 19 20 22 23 23 24 25 27 28 29 30 31 32 32 33 33 32 31 29 29 28 28 29 29 29 30 30 31 31
10 10 11 11 11 11 11 13 14 16 17 18 19 19 21 22 22 23 25 26 27 28 29 30 31 32 33 33 33 33 33 32 31 31 31 31 31 31 32 32 32 33
11 11 11 12 12 11 12 13 14 15 16 16 17 18 19 20 21 23 24 25 26 28 29 30 32 33 34 35 35 35 35 34 34 33 33 33 33 33 34 34 34 35
12 12 12 13 12 13 13 14 14 14 14 14 15 16 18 20 21 22 23 24 26 27 29 30 31 33 34 35 36 37 37 37 36 35 35 35 34 34 34 35 35 36
13 13 13 13 13 14 14 14 14 13 13 13 14 15 17 18 19 20 22 23 25 26 27 28 30 32 33 35 36 38 39 40 39 39 38 37 35 34 33 34 35 36
14 14 14 14 14 15 15 14 14 14 13 13 13 14 15 16 18 19 21 22 23 25 25 27 29 31 32 34 36 38 40 41 41 42 41 40 37 35 34 33 34 35
16 16 15 15 15 15 15 15 15 14 14 13 13 14 15 16 18 19 20 21 23 24 25 27 28 30 32 34 35 37 39 40 42 42 42 40 38 36 35 34 34 35

ECMWFNIL_850_spd_105.txt.gz
Wind_Speed
5 5 6 7 8 9 10 11 11 11 12 12 12 13 14 15 16 17 18 18 19 20 20 21 21 21 21 21 20 20 19 19 18 18 18 17 17 17 16 16 17 18
5 6 6 7 8 9 10 10 11 11 12 13 13 14 15 15 16 17 17 18 18 19 19 20 20 21 21 21 21 21 21 20 19 19 19 20 20 19 18 17 17 17
5 5 6 7 7 8 8 9 10 11 11 12 13 14 14 15 16 17 17 17 18 18 19 19 20 20 20 20 20 20 20 20 20 19 19 19 20 20 19 18 19 17
4 5 5 6 7 7 8 9 10 11 11 12 13 13 14 15 16 16 17 17 18 18 19 19 20 20 20 20 20 20 20 20 20 20 20 19 18 18 19 19 21 21
4 5 5 6 7 8 9 10 10 11 12 12 13 14 14 15 15 16 16 17 17 18 19 19 20 20 20 20 20 21 21 21 21 20 20 20 19 19 19 19 21 21
6 6 7 8 9 10 10 11 11 12 12 13 14 14 14 15 16 16 17 18 18 19 20 20 21 21 21 21 21 21 21 21 21 21 20 21 20 19 20 20 21 21
8 8 9 10 10 11 11 11 12 12 13 14 14 14 15 16 17 17 18 19 19 20 20 21 21 22 22 22 22 22 22 21 21 21 20 20 20 20 20 20 21 21
9 10 10 10 10 10 11 11 12 13 14 14 14 15 16 16 17 18 18 19 19 20 20 21 21 22 23 23 23 23 23 24 23 23 22 21 20 20 21 21 22 22
9 10 10 9 10 10 11 12 12 13 14 14 15 16 16 17 17 17 18 18 19 20 21 22 23 23 24 24 24 24 25 26 26 25 25 25 23 22 22 22 23 23
9 9 9 9 10 11 11 12 13 13 14 15 15 16 17 17 17 18 19 20 21 22 23 24 25 25 24 24 25 26 26 27 27 27 28 28 27 26 25 25 25 26
8 9 9 10 10 11 12 12 13 14 14 15 16 17 17 18 18 19 21 22 23 24 25 26 26 26 26 26 27 27 28 28 29 29 29 29 28 28 27 27 27 27
8 9 9 10 10 11 12 13 13 14 15 16 17 18 19 19 21 22 22 24 25 25 26 26 27 27 28 29 29 29 29 29 29 29 29 28 27 26 26 26 26 26
9 10 10 10 11 12 13 13 14 15 16 18 18 19 20 21 22 23 24 24 25 25 26 27 28 29 30 30 30 29 29 28 27 27 27 26 25 25 25 25 25 25
10 11 11 11 12 13 13 14 16 17 18 18 19 20 21 22 23 24 24 25 25 26 27 28 30 31 32 32 31 30 29 27 26 25 25 24 24 24 24 24 24 25
12 12 12 12 12 13 14 16 17 18 18 19 20 21 22 23 23 24 25 25 26 27 28 29 30 32 32 32 31 31 30 28 26 25 24 24 23 23 23 23 24 24
12 12 12 12 13 14 16 17 17 18 19 20 21 22 23 23 24 24 25 26 27 27 28 29 31 31 30 30 30 30 29 28 27 26 25 25 25 25 24 24 24 24
13 12 12 13 14 15 16 17 17 18 19 20 21 22 23 23 24 25 25 26 27 27 28 29 30 30 30 30 30 30 29 29 28 28 27 28 28 28 27 27 26 26
12 12 12 13 15 16 16 17 17 18 19 21 22 22 23 23 24 25 25 25 26 27 28 29 29 29 29 30 30 30 29 29 29 30 30 30 30 30 30 31 30 29
12 12 12 14 15 15 16 16 17 18 20 21 21 21 22 23 23 24 24 25 26 27 28 28 29 29 29 30 30 30 30 30 32 32 33 33 33 32 32 33 33 33
12 12 13 14 15 15 15 15 16 18 19 19 20 20 21 22 22 23 24 25 26 26 27 28 28 29 29 30 30 31 31 33 34 35 35 35 34 34 33 34 35 36
12 12 13 14 14 14 14 15 16 17 17 18 18 19 21 21 22 22 23 24 25 25 26 27 29 29 29 31 32 32 33 35 36 37 37 37 36 36 35 34 35 36
13 13 14 14 14 14 14 15 15 16 16 17 18 19 20 20 21 22 22 23 24 25 26 27 28 29 30 32 33 34 35 36 38 38 39 39 38 37 36 34 33 33
13 13 14 14 14 14 14 15 14 15 15 16 17 18 19 19 20 21 22 22 23 24 26 27 28 30 31 33 34 35 36 38 39 39 39 39 39 38 36 34 32 31
14 14 14 14 14 15 15 15 15 15 16 16 17 17 18 18 19 20 20 22 23 24 25 26 28 30 32 33 34 35 36 38 38 38 39 39 39 38 38 37 34 32
15 15 15 15 15 16 16 16 17 17 17 16 16 17 17 17 18 18 20 21 22 23 24 25 28 30 31 32 33 34 35 36 37 37 38 39 39 40 40 39 38 37
16 15 16 17 17 18 18 18 18 17 16 16 16 16 16 16 17 18 20 22 22 23 24 26 27 29 30 31 32 32 34 35 36 36 37 37 38 39 40 40 40 39

ECMWFNIL_850_spd_108.txt.gz
Wind_Speed
4 4 4 5 4 4 4 5 6 6 7 7 7 8 8 9 10 10 10 11 12 12 12 13 13 13 13 13 13 13 13 13 13 13 13 13 13 14 15 15 16 17
4 5 5 6 6 6 7 7 7 7 8 8 8 9 9 10 10 11 11 11 12 13 13 13 14 13 13 13 13 13 13 14 14 14 14 14 14 14 14 15 16 16
5 6 7 8 8 8 9 9 9 9 9 9 9 9 9 10 10 11 11 11 12 13 14 14 14 14 14 13 14 14 14 15 15 15 15 15 15 15 15 15 16 16
8 10 10 10 10 10 10 10 10 9 9 9 9 9 9 10 10 10 11 12 13 14 15 15 15 15 15 14 15 15 16 16 17 17 17 16 16 16 17 16 16 16
11 12 12 12 11 11 11 10 10 9 9 9 10 9 9 9 10 11 12 14 14 15 15 16 16 17 17 16 17 17 18 18 17 18 17 17 17 17 17 17 18 17
12 13 13 12 12 11 10 10 10 10 9 10 10 10 10 11 11 12 14 15 15 16 16 17 18 18 18 18 18 18 19 19 19 19 18 18 17 16 16 17 18 18
13 13 13 12 11 11 10 10 10 10 10 11 11 11 12 13 13 15 15 16 16 17 18 18 19 19 19 19 19 19 19 19 20 20 19 17 15 14 15 16 16 16
13 13 12 11 10 11 11 11 11 11 12 12 12 13 14 14 15 16 16 17 18 19 19 20 20 20 20 20 19 20 20 21 21 20 19 17 14 14 15 15 15 15
12 12 12 11 11 11 11 12 12 12 13 13 14 15 15 15 16 17 18 19 20 20 20 21 21 21 22 22 22 22 21 21 21 20 19 16 14 15 16 16 16 18
12 12 12 12 12 13 13 13 13 14 14 14 15 16 16 17 18 19 19 20 20 21 21 21 22 23 23 23 24 23 21 20 20 18 16 15 15 15 16 16 17 18
13 13 13 13 14 14 14 14 15 15 15 16 16 17 17 18 19 19 20 21 21 21 22 23 23 24 24 24 24 24 21 19 18 16 14 14 15 15 16 16 16 17
15 15 15 15 15 15 15 15 16 16 16 17 17 17 19 19 20 20 21 22 22 22 22 24 24 25 26 25 25 25 21 17 16 15 14 15 15 16 16 16 16 16
16 16 15 15 16 16 16 16 16 16 17 18 18 19 20 21 21 22 23 23 23 23 23 24 25 25 26 26 27 26 21 15 15 15 14 15 15 16 16 16 16 16
16 16 16 16 16 16 16 17 17 17 19 19 19 20 21 22 22 23 23 23 23 23 24 25 26 27 28 28 29 27 21 15 14 15 15 15 16 17 16 15 16 16
16 16 16 16 17 17 17 17 18 19 20 20 20 21 22 22 22 22 22 23 23 23 24 25 26 28 29 29 28 27 22 16 14 15 15 16 17 18 17 16 17 17
17 17 17 17 17 18 18 18 19 20 20 20 21 22 22 22 22 22 22 23 23 23 24 25 26 26 26 26 25 25 23 17 14 15 16 16 17 18 18 18 19 19
17 17 17 17 17 18 18 19 19 20 20 20 21 22 22 21 21 22 22 23 23 24 24 25 25 25 25 25 25 25 24 18 14 15 16 17 17 18 19 19 21 23
17 17 17 18 18 18 18 19 19 19 20 20 20 21 21 21 21 22 22 23 23 24 24 24 24 24 25 26 25 25 25 21 15 15 16 18 18 18 19 20 22 28
16 17 18 18 18 18 18 18 19 19 19 20 20 20 20 20 21 22 22 22 22 23 23 23 24 25 25 27 26 26 27 23 17 16 16 17 18 18 19 21 24 30
17 17 17 17 17 17 17 17 18 18 19 19 19 19 20 20 21 21 21 21 21 23 23 23 24 25 26 27 27 28 29 22 17 17 17 17 18 18 19 22 25 30
17 17 17 17 17 16 16 16 17 18 18 19 19 19 19 19 19 19 20 20 21 22 23 23 25 25 27 28 28 30 31 22 16 17 18 17 18 19 20 21 24 31
18 18 17 16 16 16 15 16 16 17 18 19 19 19 19 18 18 19 19 19 20 21 22 23 24 25 27 29 29 31 30 22 16 18 19 19 19 20 20 20 24 32
18 18 17 16 16 15 15 15 16 17 18 19 18 18 18 18 18 18 19 19 20 21 22 23 25 26 27 29 30 32 31 24 18 18 20 20 20 21 20 19 24 32
18 18 17 16 16 16 15 16 16 17 18 18 18 18 18 18 18 18 19 20 20 22 22 23 24 26 27 29 30 31 32 28 21 18 21 22 22 22 21 19 21 29
19 18 18 17 17 17 16 17 17 18 18 18 18 18 18 18 18 18 19 20 21 22 23 23 25 26 27 29 29 31 33 30 21 17 20 24 23 23 23 21 20 25
19 19 19 18 18 18 18 18 19 18 19 19 19 18 17 18 19 19 19 20 20 21 23 24 25 25 26 28 29 30 32 31 26 21 21 23 23 22 23 22 21 24

ECMWFNIL_850_spd_111.txt.gz
Wind_Speed
7 6 6 6 6 5 5 5 5 5 5 5 4 4 5 5 6 7 8 9 10 10 10 10 11 11 12 12 12 11 11 11 11 11 12 12 12 12 12 13 13 14
7 7 7 7 7 7 6 6 7 6 5 6 5 5 6 7 8 9 9 9 10 10 11 11 11 11 12 12 11 11 11 11 11 12 12 12 12 12 13 13 14 14
7 8 9 9 9 8 8 8 8 7 7 7 6 7 8 9 9 9 9 10 10 10 11 11 11 11 12 12 12 12 12 11 12 13 12 10 11 12 12 13 14 15
8 9 10 10 10 9 9 9 8 8 8 8 8 9 10 9 9 10 10 10 11 11 11 12 12 12 12 13 13 13 13 11 11 13 12 10 11 12 13 14 14 16
9 10 11 11 11 10 10 10 8 9 9 9 10 10 10 10 10 10 10 11 11 12 12 13 13 13 13 13 13 13 13 12 12 12 11 11 12 13 14 15 15 17
10 10 11 11 10 10 11 10 9 10 11 11 11 10 10 10 10 11 11 12 12 13 13 13 13 13 13 13 13 13 12 12 12 11 12 13 13 14 15 15 16 17
10 10 10 9 9 11 12 11 10 12 12 12 11 11 11 11 11 12 13 13 13 13 13 13 13 13 13 13 13 14 14 12 12 12 13 14 14 15 16 15 16 17
10 10 9 10 11 13 13 13 12 13 14 13 12 12 12 13 13 13 13 13 13 13 14 14 14 14 15 14 13 14 14 13 13 14 14 15 15 16 17 17 17 17
10 10 10 11 13 14 14 14 14 14 14 14 14 13 13 14 14 14 14 14 15 15 15 16 16 16 17 16 14 13 13 14 14 14 15 15 16 17 17 18 18 18
11 11 11 13 15 15 15 15 15 15 15 14 14 14 14 14 14 15 15 15 16 17 17 18 18 17 18 17 15 14 14 13 14 15 15 15 16 17 17 18 18 18
12 11 13 15 16 16 16 16 15 16 16 15 15 15 15 15 15 15 16 16 17 18 18 19 19 19 20 18 16 16 15 13 14 15 15 15 16 16 17 17 18 18
13 14 16 17 16 16 17 17 16 16 16 17 16 16 17 16 16 16 16 17 19 19 19 20 19 20 20 19 17 16 15 14 14 15 15 15 16 17 17 18 18 18
14 17 18 17 17 18 17 17 17 16 17 17 17 17 17 16 16 17 17 18 19 19 20 20 20 21 21 20 18 15 14 15 15 16 16 16 17 17 18 18 19 18
17 18 17 18 18 18 18 18 18 18 18 18 18 18 16 15 15 16 16 18 19 20 21 21 21 23 23 22 20 16 13 14 16 16 16 17 17 18 18 19 19 18
18 18 18 18 18 18 19 19 19 19 19 18 18 18 17 15 15 14 15 17 19 20 21 21 23 25 24 22 21 17 15 14 15 16 16 17 18 17 18 19 19 19
18 18 18 18 18 19 19 19 19 20 19 18 18 18 18 17 16 15 15 16 18 20 21 21 23 24 23 21 19 17 17 16 15 15 16 17 18 18 18 20 21 22
18 18 18 18 19 19 18 19 19 20 19 19 18 18 18 17 16 16 15 16 18 19 20 21 22 22 21 19 17 17 18 17 15 15 16 17 17 18 19 21 23 23
17 17 17 18 18 18 18 18 19 19 19 19 18 18 18 17 16 16 15 16 18 19 20 21 21 21 21 18 17 18 19 18 16 15 16 17 18 18 18 20 23 23
16 16 16 17 17 17 17 18 18 19 19 19 19 18 18 17 16 16 16 15 17 19 20 20 21 21 21 19 18 19 19 18 16 15 16 17 18 18 18 20 22 24
17 16 16 16 17 17 18 19 19 20 20 19 19 18 17 15 15 16 17 16 17 19 20 20 21 21 21 20 19 18 19 18 15 14 15 16 17 18 18 19 23 26
17 16 16 16 17 18 19 19 20 21 20 19 18 16 15 14 14 15 17 17 18 19 19 20 21 21 22 22 19 17 18 17 14 14 15 15 17 18 17 19 25 29
16 16 16 15 17 19 19 20 20 21 20 19 18 16 15 15 15 15 16 17 18 19 19 20 20 21 23 24 21 19 17 15 13 14 15 15 16 18 17 21 28 31
16 17 16 16 18 20 20 20 20 20 19 18 17 15 14 14 15 16 17 17 18 19 19 20 21 21 22 24 24 22 19 14 12 14 15 15 16 17 17 21 27 29
18 19 18 17 18 19 19 20 20 20 19 18 16 14 12 12 14 15 17 18 18 19 20 20 20 20 21 23 25 24 21 16 11 12 15 16 16 17 17 19 22 26
21 20 19 17 18 19 20 20 20 19 18 16 14 13 12 12 12 12 14 17 19 20 20 19 20 20 20 21 23 24 23 19 13 11 14 16 16 17 17 18 19 22
22 20 19 17 18 20 20 21 20 19 17 13 12 11 11 12 13 13 13 14 17 18 19 19 19 19 19 20 21 22 23 22 18 16 15 15 16 17 17 18 19 21

ECMWFNIL_850_spd_114.txt.gz
Wind_Speed
15 17 17 15 13 11 9 6 5 4 5 4 3 5 7 7 7 7 7 8 8 8 8 9 9 9 10 10 10 10 10 11 11 10 10 12 13 14 15 15 15 16
12 12 12 11 10 10 8 7 6 5 5 6 7 8 9 8 8 8 8 8 8 8 9 9 9 10 10 10 10 11 10 11 12 11 11 11 11 14 17 17 18 18
11 10 9 9 8 8 8 8 7 6 8 9 10 9 9 8 9 8 8 8 8 9 9 9 9 9 10 10 11 11 11 12 12 11 13 13 13 15 16 16 17 17
11 10 10 9 9 8 8 8 9 9 10 10 10 9 9 9 9 9 9 8 8 8 9 9 10 10 10 11 12 12 12 13 14 15 16 16 16 16 14 14 15 15
11 11 11 12 11 10 9 9 10 10 10 10 10 9 9 10 9 9 9 8 8 9 9 10 10 10 10 11 12 13 14 16 18 18 18 17 17 17 16 15 15 16
12 12 12 11 11 11 11 11 11 11 11 11 11 10 10 10 9 9 9 9 9 9 10 10 9 9 9 10 12 14 16 17 18 18 17 16 16 17 17 17 17 18
14 13 12 12 12 12 13 13 12 12 12 12 12 11 10 10 9 9 9 9 9 9 9 9 9 10 10 9 12 14 16 17 16 16 16 15 15 15 16 17 17 17
15 14 13 14 14 14 15 15 14 13 12 12 12 12 11 10 10 10 10 10 10 9 10 10 10 10 10 10 13 14 15 16 16 16 16 15 15 16 16 16 17 17
15 15 16 16 16 16 17 16 16 15 13 12 12 12 12 11 10 10 10 10 11 11 11 11 11 12 10 10 14 15 15 16 16 16 16 17 17 18 18 19 19 19
15 15 17 18 18 18 18 17 16 15 14 13 13 13 13 12 12 12 11 12 13 13 13 12 12 13 11 11 16 17 15 16 17 16 16 17 19 20 20 20 21 21
15 16 18 19 19 18 17 17 17 16 15 14 13 13 13 13 14 14 13 14 15 14 14 14 14 15 12 11 15 17 15 16 17 15 16 18 19 19 19 20 21 20
16 17 20 20 19 18 17 17 17 16 15 14 14 14 14 14 15 15 15 16 16 16 15 15 15 15 13 11 12 15 16 17 16 16 17 18 17 18 19 20 21 21
18 19 21 20 18 18 18 18 17 17 16 15 14 14 15 15 16 16 17 17 17 17 16 16 16 16 14 13 13 16 18 18 16 16 17 16 16 19 22 23 24 24
20 21 20 19 19 18 18 17 17 17 17 16 15 15 14 14 15 16 17 17 17 17 17 17 17 17 16 15 15 16 18 18 16 15 17 16 17 22 25 26 25 25
22 21 20 19 19 18 18 17 16 16 17 17 16 16 15 14 15 16 17 17 18 18 18 18 19 19 18 16 16 15 18 18 15 15 16 18 20 23 26 26 25 25
21 20 20 19 19 19 18 18 17 17 16 16 16 16 15 14 15 16 17 17 18 18 19 19 20 20 18 17 16 16 17 18 15 15 16 18 22 24 26 27 27 25
21 21 20 19 19 18 18 18 17 17 17 17 17 16 16 15 15 15 16 17 18 18 19 20 20 18 17 16 17 17 18 18 16 16 16 17 21 24 26 29 28 27
21 21 20 19 18 18 18 17 17 17 17 17 17 16 16 15 14 14 15 16 17 18 19 20 19 17 16 17 19 19 18 17 16 16 16 17 18 22 26 30 30 28
20 20 20 19 18 18 18 17 17 18 17 17 17 16 16 16 14 14 15 16 17 18 19 19 18 17 16 19 22 20 18 16 15 15 17 17 16 19 25 29 29 28
19 19 19 18 18 18 17 17 18 18 18 17 16 15 15 16 15 14 15 16 16 17 18 19 19 17 16 18 20 19 18 17 15 13 15 16 15 17 23 27 28 27
20 20 19 18 18 18 18 18 18 17 16 16 15 14 14 15 15 15 15 16 16 17 18 19 19 17 15 16 17 17 16 17 15 13 13 15 16 17 21 24 27 26
20 19 19 19 18 19 20 19 18 16 15 16 15 14 13 14 15 15 15 16 16 16 17 19 20 18 16 15 15 15 16 15 13 13 14 14 15 17 19 22 24 24
20 20 20 19 19 20 21 20 18 16 16 16 15 14 13 13 14 14 15 16 16 17 17 18 19 19 17 16 14 13 14 14 11 11 13 14 15 16 18 19 20 21
20 20 21 21 21 22 22 21 19 16 15 14 13 13 13 14 15 15 15 15 16 16 17 17 17 17 16 16 15 13 13 14 12 12 13 15 14 14 15 16 17 19
22 22 23 23 23 23 22 22 20 17 15 14 12 10 10 12 14 15 16 16 16 16 17 16 16 15 15 15 16 15 15 16 15 14 15 15 14 13 14 16 17 19
23 23 23 23 23 23 23 21 20 17 15 13 10 9 10 11 13 14 15 16 16 16 16 16 15 14 13 14 15 15 16 17 16 14 14 14 13 12 14 17 19 20

ECMWFNIL_850_spd_117.txt.gz
Wind_Speed
14 14 14 15 15 16 15 14 14 13 10 5 6 9 9 8 6 5 4 3 2 2 3 3 3 4 5 6 7 8 9 9 8 9 9 9 10 11 11 11 11 9
16 16 16 17 18 18 16 15 12 10 9 9 10 10 8 8 6 5 4 3 2 2 2 3 4 5 5 6 7 8 9 10 11 12 12 11 10 9 9 9 10 10
17 18 19 19 20 18 17 13 9 9 10 12 11 9 9 8 7 5 4 3 2 2 3 3 4 5 5 7 8 9 11 12 13 14 13 12 11 11 10 9 10 13
18 19 20 21 20 18 15 12 12 13 13 12 11 11 10 8 7 6 4 3 2 2 3 3 4 5 6 8 9 10 11 12 11 10 9 9 10 11 12 11 12 15
16 17 18 19 17 16 15 14 14 14 14 13 12 11 10 8 7 6 4 3 2 3 3 4 5 5 6 8 9 10 10 9 8 7 6 8 10 12 13 13 14 17
15 16 16 17 16 16 16 15 15 15 15 14 13 11 10 8 6 5 4 3 2 3 4 4 5 5 6 8 9 9 9 8 7 7 8 10 12 13 15 16 18 20
18 17 16 15 16 16 16 16 16 16 16 15 13 11 9 8 6 5 4 3 3 4 4 4 5 6 7 8 10 10 9 8 9 11 12 13 15 16 18 19 21 23
19 19 18 17 18 18 18 18 18 17 16 14 13 11 9 7 6 5 4 4 4 4 5 5 6 7 8 9 11 10 10 11 12 14 15 17 18 19 20 21 23 25
19 19 19 19 19 19 18 19 18 17 15 13 11 10 9 7 6 5 5 4 4 5 6 7 7 7 8 10 12 11 11 13 14 16 18 19 19 20 21 23 26 28
19 19 20 20 21 20 20 19 18 16 14 12 11 10 9 8 7 6 6 5 6 7 8 9 9 8 8 10 13 13 13 15 17 19 20 20 22 23 24 26 29 29
20 21 22 22 22 21 20 19 18 16 15 13 11 11 10 9 9 8 7 7 8 9 10 11 11 9 9 11 13 16 17 18 20 21 21 22 24 26 27 29 29 29
21 22 23 23 22 21 20 19 17 16 14 13 11 11 11 10 10 10 9 9 10 11 11 11 11 10 10 12 14 19 21 21 21 23 24 25 26 27 28 29 29 29
23 23 23 23 22 21 19 18 17 15 14 13 12 12 12 12 11 11 11 11 12 12 12 12 12 11 12 13 16 21 24 22 23 25 27 28 27 27 28 28 28 29
24 24 23 23 22 21 20 18 18 16 15 15 14 14 14 13 13 12 12 12 12 13 13 13 13 13 13 14 17 21 23 22 24 26 28 29 28 26 27 27 26 28
25 24 24 23 23 21 20 19 19 18 17 15 15 15 15 15 14 14 13 13 14 14 15 15 15 15 16 17 18 20 20 21 24 26 27 28 27 26 25 25 25 26
25 25 24 23 22 21 20 20 19 19 18 16 15 15 16 15 14 14 14 13 14 15 16 16 17 19 19 19 20 20 20 21 22 23 24 25 25 24 24 23 23 24
25 24 23 22 22 21 20 20 20 20 19 17 16 16 16 15 15 15 14 14 14 15 17 18 19 20 20 19 20 21 21 21 20 19 20 22 23 23 24 22 22 23
25 24 23 23 22 21 21 21 21 20 20 18 17 16 17 16 15 15 15 14 14 15 17 19 20 20 19 18 18 19 19 19 17 16 18 19 20 22 23 22 21 22
25 24 24 23 23 22 21 21 21 21 20 20 18 16 17 16 15 15 15 14 14 16 18 20 20 20 19 18 17 17 16 15 14 15 17 18 19 20 21 21 21 21
25 25 24 24 23 22 22 21 21 21 20 19 18 17 17 17 15 14 15 14 15 16 17 18 19 19 19 18 17 16 15 13 11 12 16 18 19 19 19 20 20 20
26 26 25 24 23 22 21 21 21 21 20 19 17 17 17 17 15 14 15 15 15 15 15 16 17 18 17 17 15 14 14 13 10 11 15 17 18 18 18 19 20 19
27 26 26 25 23 23 22 23 22 21 21 19 18 17 17 17 16 15 15 15 15 14 14 15 15 15 15 15 13 11 11 13 12 12 13 14 15 17 17 18 19 19
27 27 26 25 24 24 24 23 22 21 21 20 18 17 16 16 16 15 15 15 15 14 14 15 15 14 13 12 11 9 10 12 12 12 13 12 13 15 17 17 18 19
26 26 26 25 24 24 24 23 22 21 20 19 18 17 17 16 15 15 15 14 14 14 13 13 14 14 13 12 11 10 10 11 12 11 12 12 12 14 15 16 17 18
26 25 25 24 24 24 24 24 23 22 21 20 19 18 18 17 16 16 15 14 14 14 13 12 12 12 12 12 12 12 11 11 10 10 11 12 12 13 14 15 16 17
26 25 24 25 25 25 25 24 24 22 22 21 20 19 19 18 17 16 16 15 14 13 13 12 11 10 10 10 11 12 11 10 9 10 11 12 13 14 15 15 17 18

ECMWFNIL_850_spd_120.txt.gz
Wind_Speed
21 19 18 15 13 11 11 11 10 8 5 5 8 10 10 9 7 6 5 3 2 1 1 2 2 3 3 2 2 2 2 2 2 2 3 4 7 8 10 12 13 13
19 18 17 15 13 12 11 11 9 6 4 6 10 11 10 8 7 6 5 3 1 1 1 1 2 2 2 2 2 2 2 2 2 3 4 7 9 11 13 14 14 14
18 17 17 15 14 12 12 11 8 6 6 10 12 11 10 8 7 6 4 2 1 1 1 2 3 2 2 3 2 2 2 2 3 5 7 10 12 13 14 15 15 15
19 18 17 16 15 13 13 11 8 8 11 14 13 11 10 9 7 5 4 3 2 1 2 2 3 2 3 3 2 2 2 2 4 6 8 11 13 14 14 15 15 15
20 19 18 17 16 15 13 11 9 11 15 16 13 11 10 8 6 5 4 3 2 2 2 2 2 2 3 2 1 1 2 4 6 7 9 12 13 13 14 15 15 16
21 20 19 18 17 16 14 11 12 16 17 15 13 12 10 8 6 5 5 4 3 3 2 2 2 2 2 2 1 3 5 7 9 10 11 12 13 14 15 16 16 17
20 20 19 19 17 16 14 14 16 18 16 14 13 11 9 7 6 5 5 4 4 3 3 3 2 2 2 1 3 6 9 11 11 11 12 13 14 15 16 17 17 19
19 18 17 17 16 16 16 19 19 17 16 15 13 11 8 7 6 5 5 5 4 4 4 4 3 2 2 4 7 10 11 13 13 12 13 14 14 16 18 19 19 21
18 18 17 17 18 19 20 20 19 17 16 14 12 10 8 7 7 6 6 5 5 5 5 5 4 3 4 8 11 12 13 14 14 14 14 14 16 18 20 20 21 23
19 19 18 18 19 21 21 20 19 18 15 13 11 9 8 8 8 7 6 6 6 7 7 6 6 5 7 12 14 13 14 15 15 15 16 17 19 20 20 21 22 24
20 19 17 18 19 21 21 20 18 16 14 12 10 9 9 8 8 8 8 7 8 8 8 8 7 8 11 15 15 15 15 16 17 17 18 19 20 20 20 21 22 23
20 19 18 19 20 21 20 19 17 15 14 11 10 9 9 9 9 9 9 9 9 10 9 9 10 12 14 16 16 17 17 17 18 19 20 20 20 20 20 20 21 23
19 19 20 21 21 21 19 18 17 15 13 12 11 10 10 10 10 11 11 11 11 10 10 10 12 15 16 17 18 18 18 19 20 20 20 19 19 19 19 19 20 21
19 21 23 23 22 21 20 18 17 15 13 13 12 11 11 11 11 12 12 12 11 11 11 12 14 16 18 18 18 18 19 20 20 19 19 18 17 17 17 18 18 19
22 24 24 23 21 20 19 18 17 15 14 13 13 12 12 12 12 12 12 12 12 12 12 13 15 17 18 17 17 18 19 19 19 18 17 17 16 16 16 16 16 17
25 25 24 23 22 21 20 19 17 16 15 15 15 13 13 13 13 13 12 12 13 13 13 14 16 18 17 16 16 17 18 18 17 17 16 15 16 16 15 15 15 15
26 25 24 23 22 21 21 19 18 16 16 16 16 15 14 14 13 13 13 13 13 14 15 17 18 19 18 16 16 16 16 16 15 14 14 14 15 16 16 15 15 16
26 26 25 24 23 22 21 20 18 16 16 16 16 15 15 15 14 14 14 14 15 16 18 19 19 19 17 16 15 15 14 14 13 12 13 13 14 15 15 15 15 15
28 27 27 25 24 23 22 20 18 16 16 16 16 16 16 16 15 15 15 15 16 18 18 19 18 17 15 14 13 13 12 11 11 11 12 12 13 14 14 14 14 14
28 28 28 27 25 24 22 21 18 16 16 17 17 17 17 16 16 16 16 17 18 18 18 18 17 15 13 12 11 10 9 8 8 10 11 11 12 13 13 13 13 14
28 28 28 27 26 24 23 21 19 17 17 18 18 17 17 17 16 16 17 18 18 17 17 17 17 15 12 10 9 9 8 7 7 9 10 11 12 13 13 13 13 13
28 28 28 27 26 24 23 21 19 17 18 19 19 19 18 17 17 16 17 18 17 16 16 16 16 15 12 9 7 6 6 6 7 8 9 10 11 12 12 12 12 12
28 28 27 27 25 24 22 21 19 18 19 19 19 19 18 18 18 18 17 17 16 15 14 14 15 14 12 9 6 5 4 5 6 7 8 10 10 10 11 11 11 11
28 28 27 26 24 23 22 21 20 19 19 19 18 18 18 18 18 19 18 16 15 14 13 12 13 13 11 9 7 5 4 4 4 6 7 9 9 9 10 10 10 10
28 27 26 25 24 22 22 22 21 20 20 19 18 18 18 18 17 18 18 17 16 15 13 12 11 12 11 9 8 7 5 4 4 5 6 7 8 8 9 9 10 11
27 27 26 24 23 23 22 22 21 21 21 21 20 19 19 18 17 17 17 17 16 15 14 13 11 10 10 9 9 8 6 5 5 5 5 6 7 8 8 9 10 11

ECMWFNIL_850_spd_123.txt.gz
Wind_Speed
16 17 19 19 18 16 15 14 13 11 9 8 8 9 10 10 9 8 6 5 4 4 3 2 2 3 3 4 5 6 7 8 9 10 11 11 12 12 13 13 13 13
17 19 20 20 18 16 14 13 11 10 8 8 9 11 11 10 8 7 5 4 4 2 0 1 1 2 3 4 5 5 7 8 9 10 10 11 12 13 13 14 14 14
19 20 21 19 17 15 14 12 11 10 10 9 10 12 11 9 8 6 5 4 2 1 2 1 1 2 3 4 5 6 8 9 10 11 11 11 13 14 15 16 15 16
22 21 19 17 15 14 14 13 12 12 11 10 11 13 11 8 7 6 5 3 2 2 2 1 1 2 3 4 5 7 8 9 11 11 11 12 13 14 15 16 16 16
21 20 18 17 16 16 15 14 13 13 12 10 12 12 10 8 7 5 4 3 2 2 1 0 2 2 3 5 6 7 8 10 11 11 10 12 14 15 15 15 15 17
21 20 19 18 17 17 16 15 15 14 12 12 14 12 9 8 6 5 4 3 2 1 0 1 2 3 4 6 6 8 9 10 11 9 10 13 14 14 15 15 16 18
21 21 20 19 18 18 17 17 16 15 14 14 14 11 8 7 6 5 3 2 2 1 1 2 3 5 6 7 7 8 9 10 10 10 11 13 13 14 16 16 17 19
22 22 21 20 20 19 19 18 17 15 16 16 13 10 8 7 5 4 4 3 2 2 2 3 5 7 8 8 8 9 9 11 11 11 12 13 14 15 17 17 18 20
22 21 21 21 20 21 20 19 18 17 17 15 11 9 8 7 6 5 4 4 3 3 4 5 6 8 9 9 9 9 10 12 12 12 12 14 15 16 17 17 19 21
21 21 21 21 21 21 20 19 19 18 16 13 10 9 8 8 7 6 5 5 5 5 5 6 7 8 9 10 10 10 11 12 12 12 13 15 16 17 17 18 19 21
21 21 21 21 21 21 20 20 20 18 15 11 9 9 8 8 8 7 7 7 6 6 7 7 8 9 10 10 11 11 12 12 13 13 14 15 16 17 17 18 19 20
21 21 21 20 20 21 20 20 19 16 14 11 10 9 9 9 8 9 8 8 8 8 8 8 10 10 10 11 12 12 12 12 13 13 14 15 16 17 17 18 19 19
21 21 20 19 20 20 20 20 18 15 13 11 10 9 9 9 9 10 9 9 9 9 9 10 11 11 11 12 12 12 11 12 12 13 14 15 15 16 16 17 18 18
21 20 19 19 19 21 21 19 16 14 12 11 11 10 10 9 10 10 10 10 10 11 11 12 12 12 12 12 12 12 12 12 13 13 13 14 14 15 15 15 16 16
20 20 19 19 20 21 20 18 15 13 11 11 11 10 10 10 10 10 10 11 12 12 13 14 13 13 13 13 12 12 12 12 13 13 13 13 13 13 13 14 14 14
21 21 20 21 22 21 19 17 15 13 12 11 11 10 10 11 11 11 11 12 13 14 15 15 15 14 14 13 13 12 12 12 12 12 12 12 12 12 12 12 13 13
21 22 23 23 22 21 19 16 14 13 12 11 11 11 11 12 12 12 12 13 13 14 15 16 15 14 14 13 13 13 12 12 12 11 11 11 11 11 12 12 12 13
22 24 24 23 22 20 18 15 13 12 12 12 12 12 12 13 13 13 13 14 14 15 16 16 15 14 13 12 12 12 12 11 11 11 10 10 10 11 11 12 12 13
24 25 24 23 21 19 17 15 13 13 13 13 13 13 13 14 14 14 14 14 15 15 17 17 16 15 13 12 12 12 11 10 10 10 9 9 9 10 10 11 13 14
24 25 24 22 20 19 17 16 14 14 14 14 14 14 14 14 14 15 15 15 16 17 18 18 16 15 13 12 11 10 10 9 8 8 8 8 9 9 10 11 13 14
26 25 24 23 21 20 19 17 15 14 15 15 14 14 14 14 15 15 16 17 18 18 18 16 15 14 13 11 10 9 8 8 7 7 7 7 8 9 10 11 12 13
26 25 25 24 23 22 20 17 15 14 15 16 16 15 15 15 15 16 17 19 19 17 16 15 15 14 12 11 9 8 7 6 6 6 5 6 7 8 10 10 11 11
26 25 25 25 24 22 20 18 15 15 16 16 16 16 16 16 16 17 18 18 18 16 14 14 15 14 12 10 8 7 6 6 5 4 4 5 7 8 9 9 10 10
26 26 26 25 24 22 21 18 16 15 16 17 17 16 17 17 18 19 19 17 16 14 12 12 13 13 11 9 8 7 6 5 4 3 3 5 6 6 7 8 8 9
26 25 25 25 24 23 21 18 16 16 17 17 17 17 17 18 19 19 19 18 15 14 12 10 10 11 10 8 8 7 6 5 4 2 3 3 3 4 5 6 7 8
27 26 25 25 24 23 21 18 16 17 18 19 18 18 17 18 19 19 19 18 16 14 13 11 9 8 9 8 7 7 6 5 3 2 2 1 1 2 3 4 5 6

ECMWFNIL_850_spd_129.txt.gz
Wind_Speed
12 10 9 10 11 10 9 8 6 4 2 2 5 7 5 2 3 5 5 4 4 4 5 5 6 6 6 7 8 9 10 10 13 14 14 15 16 17 18 18 17 18
11 11 12 13 14 13 11 8 5 3 1 3 6 7 3 2 5 5 5 4 4 4 5 5 5 6 6 8 9 10 10 12 14 15 14 16 17 18 18 17 17 18
10 12 14 15 16 14 11 7 5 2 2 5 7 6 1 4 6 5 5 5 5 4 5 5 5 6 7 9 10 10 11 13 14 14 15 17 17 17 17 17 17 19
12 14 15 17 17 14 9 6 4 1 3 6 7 5 1 5 6 6 5 5 5 4 5 5 6 7 8 10 10 10 12 15 15 14 15 17 17 17 17 17 19 20
14 15 17 19 18 13 8 6 4 1 3 6 6 3 3 6 6 6 5 5 5 5 5 6 7 8 10 11 10 11 13 15 15 14 15 17 17 17 18 19 19 20
16 16 19 19 16 11 10 8 4 2 5 6 5 2 4 7 7 6 6 5 5 5 6 7 8 10 11 12 11 12 14 15 15 14 15 16 17 18 19 19 20 21
18 17 18 17 14 13 12 8 3 5 6 6 5 0 6 8 8 7 7 6 5 6 7 8 10 12 12 12 12 14 15 15 15 14 15 17 18 18 19 19 20 22
17 16 17 15 15 15 11 5 4 6 7 6 4 2 7 9 8 8 7 6 6 7 8 9 12 13 13 12 13 14 15 15 15 14 15 17 18 18 19 19 21 22
15 15 16 17 18 15 8 5 7 7 6 6 3 4 8 10 9 9 8 7 7 8 9 11 13 14 14 13 13 13 14 15 14 14 15 16 17 18 19 20 21 22
16 14 17 20 17 10 7 9 8 7 7 5 2 6 9 10 10 10 8 8 8 9 11 13 14 15 15 14 13 13 13 14 14 14 15 16 17 18 19 20 20 21
19 18 19 17 12 9 10 10 8 7 7 5 4 8 9 10 11 11 10 9 9 10 12 14 15 15 15 14 14 13 13 13 14 14 15 16 17 18 19 20 20 21
20 20 17 13 12 12 12 10 9 9 7 5 7 9 10 11 11 11 11 10 11 12 14 15 16 16 15 14 13 13 13 13 13 14 15 16 17 18 18 19 19 20
20 18 15 15 15 14 11 10 10 8 6 7 10 10 10 11 12 12 12 11 11 14 15 16 16 16 15 14 13 13 13 13 13 14 15 16 17 18 18 18 18 19
20 19 18 17 16 13 12 11 10 9 8 10 11 11 12 12 12 12 12 12 13 15 16 16 16 16 15 14 13 13 13 13 13 14 15 16 17 17 17 17 17 17
22 21 19 17 15 13 12 11 11 10 11 13 13 13 13 13 12 12 12 13 14 16 17 17 16 15 14 13 13 13 13 13 14 15 15 16 17 16 16 16 16 17
22 20 17 17 15 13 12 12 13 12 13 14 14 14 14 14 13 12 12 12 15 17 18 18 17 16 14 13 12 12 13 13 14 15 16 16 16 15 15 15 15 16
19 18 17 16 14 13 13 14 14 14 14 15 15 15 15 15 14 14 13 13 15 18 19 18 18 16 15 14 13 13 13 13 14 15 16 16 15 15 15 15 15 14
18 18 16 15 14 15 15 15 15 15 15 15 16 16 16 16 15 14 14 14 17 18 19 18 17 16 15 14 14 14 13 13 14 14 15 15 14 14 14 14 14 13
19 17 16 15 15 15 15 15 16 16 16 16 17 17 17 16 16 15 14 16 17 18 18 18 17 16 15 14 14 14 13 13 13 14 14 14 14 14 14 14 13 13
17 16 15 15 15 15 15 16 16 16 16 16 17 17 17 17 17 16 15 16 17 18 18 17 16 16 15 15 14 14 13 13 13 13 13 13 13 13 13 13 12 12
17 16 15 15 15 16 16 17 17 17 17 17 18 18 18 18 17 16 16 17 18 17 17 16 16 15 15 15 14 13 13 12 12 12 12 12 13 12 12 12 12 12
17 16 15 15 16 17 18 18 18 18 18 18 19 18 18 18 17 16 17 18 18 17 17 16 15 15 15 15 14 13 13 12 11 11 11 12 12 12 11 11 11 11
16 14 14 15 17 18 19 18 18 18 18 19 19 19 19 18 18 17 17 18 18 18 17 15 15 15 15 15 14 14 12 11 11 11 10 11 11 11 11 10 10 10
12 11 14 16 17 19 19 18 18 19 19 19 20 20 19 19 18 18 18 18 18 18 16 15 14 14 16 16 15 14 12 11 11 10 10 10 10 10 10 9 9 9
11 11 14 16 17 19 19 19 19 19 19 20 19 18 18 18 19 18 18 19 19 18 17 16 15 14 16 16 15 14 13 11 10 9 9 9 9 9 9 9 8 7
14 14 16 17 19 20 20 20 21 20 19 20 20 20 19 19 19 18 18 19 20 20 19 18 16 16 16 16 15 14 13 11 10 9 9 8 8 8 8 7 7 6

ECMWFNIL_850_spd_132.txt.gz
Wind_Speed
11 12 16 15 15 18 17 14 10 7 4 4 3 1 4 8 10 11 11 11 10 8 8 7 7 7 8 10 11 12 13 14 15 16 16 16 16 16 16 17 18 18
13 15 17 16 18 20 17 13 8 6 4 3 2 3 8 11 12 12 11 11 10 9 8 7 7 8 10 11 12 12 14 15 16 16 16 17 17 16 16 17 18 18
15 17 17 18 20 20 16 12 8 6 4 2 1 5 10 13 13 13 12 11 10 9 8 8 8 10 11 12 13 14 15 16 17 17 17 17 17 16 17 17 18 19
16 17 19 21 21 19 14 11 8 6 4 1 2 7 12 13 13 13 12 11 10 9 8 9 10 11 13 13 13 15 16 16 17 17 17 17 17 17 17 18 19 20
17 18 20 21 20 18 13 11 9 6 4 1 3 9 12 13 13 13 12 11 10 9 9 9 11 13 14 14 15 16 17 17 17 17 17 17 17 17 18 19 19 20
19 20 21 20 20 17 13 12 9 5 3 1 3 9 12 13 13 13 12 11 10 10 10 11 13 14 15 15 16 17 17 18 17 16 17 17 17 17 19 20 20 21
21 22 22 21 20 17 14 13 9 5 2 3 3 9 13 13 13 13 12 11 11 11 11 13 14 15 16 16 17 17 18 18 17 17 17 17 17 18 19 21 21 21
22 23 22 22 20 17 15 14 9 5 2 2 1 9 13 13 13 14 13 12 12 12 13 15 15 16 17 17 17 17 18 18 17 17 17 17 18 19 20 21 21 21
24 23 22 21 19 18 16 13 8 5 3 2 1 9 14 14 13 13 13 13 12 13 15 16 17 17 18 17 17 17 17 18 18 17 17 18 20 20 20 20 21 21
24 24 23 22 20 19 17 12 8 6 4 3 3 9 14 14 15 14 13 14 13 14 16 17 18 18 18 18 18 17 17 18 18 18 18 19 20 20 20 20 20 21
24 24 24 22 21 20 16 12 8 7 7 5 5 11 14 15 16 14 14 14 14 15 17 18 19 19 18 18 18 18 18 18 18 18 19 19 19 19 20 20 19 20
23 23 23 22 21 19 15 12 10 9 8 6 7 13 14 15 16 15 15 15 15 17 18 19 19 19 18 18 18 18 18 18 18 19 19 20 20 19 20 20 19 19
22 20 21 22 20 17 15 13 12 11 8 6 9 14 14 15 17 16 16 16 16 18 19 19 20 19 18 18 18 18 18 18 18 19 19 20 20 20 19 19 18 17
22 20 20 21 19 16 16 14 14 13 8 6 12 15 15 16 17 16 17 17 17 19 20 20 20 19 19 19 18 19 18 18 19 19 19 19 19 19 19 18 17 16
24 22 20 20 17 17 17 15 15 12 8 9 14 15 16 17 17 16 17 17 19 20 21 21 20 20 20 19 19 19 19 19 19 19 19 19 18 18 18 17 16 15
24 22 20 19 18 18 18 16 14 10 9 13 15 15 17 18 17 17 17 18 20 21 22 22 21 20 20 20 20 20 20 20 19 19 18 18 17 17 17 15 14 13
23 22 21 20 21 20 18 16 13 11 13 16 16 16 18 19 18 18 18 18 21 22 22 22 21 20 19 19 20 21 21 20 19 18 18 17 17 16 15 14 13 12
24 24 24 22 22 21 18 15 13 13 15 17 18 18 19 19 19 19 19 20 22 23 23 22 21 20 19 19 19 21 21 20 19 18 18 16 16 16 14 13 12 11
26 26 24 22 21 20 17 15 15 15 17 18 19 19 20 20 20 19 19 20 22 24 23 23 22 21 21 21 21 21 21 20 18 18 17 16 16 16 14 14 12 10
26 25 24 22 22 20 17 16 17 18 18 19 20 20 21 21 20 19 19 20 22 24 24 23 22 22 22 23 22 21 21 20 18 18 17 16 16 15 14 14 12 11
24 24 24 23 21 19 18 18 19 20 21 21 21 21 22 22 21 20 20 21 23 24 24 23 22 22 22 23 23 21 21 20 19 18 17 16 16 15 14 13 12 10
24 24 24 23 20 19 21 22 22 22 23 22 22 22 23 22 21 21 21 23 24 24 23 22 21 21 21 22 22 21 20 19 18 18 17 16 15 14 14 13 11 10
25 25 24 22 21 22 24 24 23 24 24 24 24 24 25 24 23 23 23 24 24 23 22 21 21 21 21 22 22 21 21 19 17 16 16 16 15 14 13 12 11 10
23 23 22 21 23 25 25 24 25 26 26 25 25 26 27 26 26 25 25 24 23 22 21 20 20 20 20 21 22 21 21 19 16 15 16 15 14 14 13 12 10 10
23 22 22 22 24 26 25 25 27 28 27 26 26 26 27 26 25 24 23 23 22 22 21 19 19 19 20 21 21 21 22 19 14 13 15 15 13 13 12 11 10 9
24 24 25 25 26 27 27 27 28 28 28 28 27 26 25 25 24 23 22 23 23 23 22 20 19 18 19 20 21 21 22 20 15 13 14 15 13 11 10 10 9 8